[[{"header":{"parameterUnit":"m.s-1","parameterCategory":1,"la1":30.6,"la2":28.766,"lo1":-90.7593,"lo2":-88.6598,"dy":0.0162,"dx":0.0183,"nx":116,"ny":114,"refTime":"2024-04-27T06:00:00:Z","depth":0,"parameterNumber":2,"parameterNumberName":"U-component_of_WINDS"},"data":[0.0,0.0,0.0,0.0,0.0,0.0,0.0,0.0,0.0,0.0,0.0,0.0,0.0,0.0,0.0,0.0,0.0,0.0,0.0,0.0,0.0,0.0,0.0,0.0,0.0,0.0,0.0,0.0,0.0,0.0,0.0,0.0,0.0,0.0,0.0,0.0,0.0,0.0,0.0,0.0,0.0,0.0,0.0,0.0,0.0,0.0,0.0,0.0,0.0,0.0,0.0,0.0,0.0,0.0,0.0,0.0,0.0,0.0,0.0,0.0,0.0,0.0,0.0,0.0,0.0,0.0,0.0,0.0,0.0,0.0,0.0,0.0,0.0,0.0,0.0,0.0,0.0,0.0,0.0,0.0,0.0,0.0,0.0,0.0,0.0,0.0,0.0,0.0,0.0,0.0,0.0,0.0,0.0,0.0,0.0,0.0,0.0,0.0,0.0,0.0,0.0,0.0,0.0,0.0,0.0,0.0,0.0,0.0,0.0,0.0,0.0,0.0,0.0,0.0,0.0,0.0,0.0,0.0,0.0,0.0,0.0,0.0,0.0,0.0,0.0,0.0,0.0,0.0,0.0,0.0,0.0,0.0,0.0,0.0,0.0,0.0,0.0,0.0,0.0,0.0,0.0,0.0,0.0,0.0,0.0,0.0,0.0,0.0,0.0,0.0,0.0,0.0,0.0,0.0,0.0,0.0,0.0,0.0,0.0,0.0,0.0,0.0,0.0,0.0,0.0,0.0,0.0,0.0,0.0,0.0,0.0,0.0,0.0,0.0,0.0,0.0,0.0,0.0,0.0,0.0,0.0,0.0,0.0,0.0,0.0,0.0,0.0,0.0,0.0,0.0,0.0,0.0,0.0,0.0,0.0,0.0,0.0,0.0,0.0,0.0,0.0,0.0,0.0,0.0,0.0,0.0,0.0,0.0,0.0,0.0,0.0,0.0,0.0,0.0,0.0,0.0,0.0,0.0,0.0,0.0,0.0,0.0,0.0,0.0,0.0,0.0,0.0,0.0,0.0,0.0,0.0,0.0,0.0,0.0,0.0,0.0,0.0,0.0,0.0,0.0,0.0,0.0,0.0,0.0,0.0,0.0,0.0,0.0,0.0,0.0,0.0,0.0,0.0,0.0,0.0,0.0,0.0,0.0,0.0,0.0,0.0,0.0,0.0,0.0,0.0,0.0,0.0,0.0,0.0,0.0,0.0,0.0,0.0,0.0,0.0,0.0,0.0,0.0,0.0,0.0,0.0,0.0,0.0,0.0,0.0,0.0,0.0,0.0,0.0,0.0,0.0,0.0,0.0,0.0,0.0,0.0,0.0,0.0,0.0,0.0,0.0,0.0,0.0,0.0,0.0,0.0,0.0,0.0,0.0,0.0,0.0,0.0,0.0,0.0,0.0,0.0,0.0,0.0,0.0,0.0,0.0,0.0,0.0,0.0,0.0,0.0,0.0,0.0,0.0,0.0,0.0,0.0,0.0,0.0,0.0,0.0,0.0,0.0,0.0,0.0,0.0,0.0,0.0,0.0,0.0,0.0,0.0,0.0,0.0,0.0,0.0,0.0,0.0,0.0,0.0,0.0,0.0,0.0,0.0,0.0,0.0,0.0,0.0,0.0,0.0,0.0,0.0,0.0,0.0,0.0,0.0,0.0,0.0,0.0,0.0,0.0,0.0,0.0,0.0,0.0,0.0,0.0,0.0,0.0,0.0,0.0,0.0,0.0,0.0,0.0,0.0,0.0,0.0,0.0,0.0,0.0,0.0,0.0,0.0,0.0,0.0,0.0,0.0,0.0,0.0,0.0,0.0,0.0,0.0,0.0,0.0,0.0,0.0,0.0,0.0,0.0,0.0,0.0,0.0,0.0,0.0,0.0,0.0,0.0,0.0,0.0,0.0,0.0,0.0,0.0,0.0,0.0,0.0,0.0,0.0,0.0,0.0,0.0,0.0,0.0,0.0,0.0,0.0,0.0,0.0,0.0,0.0,0.0,0.0,0.0,0.0,0.0,0.0,0.0,0.0,0.0,0.0,0.0,0.0,0.0,0.0,0.0,0.0,0.0,0.0,0.0,0.0,0.0,0.0,0.0,0.0,0.0,0.0,0.0,0.0,0.0,0.0,0.0,0.0,0.0,0.0,0.0,0.0,0.0,0.0,0.0,0.0,0.0,0.0,0.0,0.0,0.0,0.0,0.0,0.0,0.0,0.0,0.0,0.0,0.0,0.0,0.0,0.0,0.0,0.0,0.0,0.0,0.0,0.0,0.0,0.0,0.0,0.0,0.0,0.0,0.0,0.0,0.0,0.0,0.0,0.0,0.0,0.0,0.0,0.0,0.0,0.0,0.0,0.0,0.0,0.0,0.0,0.0,0.0,0.0,0.0,0.0,0.0,0.0,0.0,0.0,0.0,0.0,0.0,0.0,0.0,0.0,0.0,0.0,0.0,0.0,0.0,0.0,0.0,0.0,0.0,0.0,0.0,0.0,0.0,0.0,0.0,0.0,0.0,0.0,0.0,0.0,0.0,0.0,0.0,0.0,0.0,0.0,0.0,0.0,0.0,0.0,0.0,0.0,0.0,0.0,0.0,0.0,0.0,0.0,0.0,0.0,0.0,0.0,0.0,0.0,0.0,0.0,0.0,0.0,0.0,0.0,0.0,0.0,0.0,0.0,0.0,0.0,0.0,0.0,0.0,0.0,0.0,0.0,0.0,0.0,0.0,0.0,0.0,0.0,0.0,0.0,0.0,0.0,0.0,0.0,0.0,0.0,0.0,0.0,0.0,0.0,0.0,0.0,0.0,0.0,0.0,0.0,0.0,0.0,0.0,0.0,0.0,0.0,0.0,0.0,0.0,0.0,0.0,0.0,0.0,0.0,0.0,0.0,0.0,0.0,0.0,0.0,0.0,0.0,0.0,0.0,0.0,0.0,0.0,0.0,0.0,0.0,0.0,0.0,0.0,0.0,0.0,0.0,0.0,0.0,0.0,0.0,0.0,0.0,0.0,0.0,0.0,0.0,0.0,0.0,0.0,0.0,0.0,0.0,0.0,0.0,0.0,0.0,0.0,0.0,0.0,0.0,0.0,0.0,0.0,0.0,0.0,0.0,0.0,0.0,0.0,0.0,0.0,0.0,0.0,0.0,0.0,0.0,0.0,0.0,0.0,0.0,0.0,0.0,0.0,0.0,0.0,0.0,0.0,0.0,0.0,0.0,0.0,0.0,0.0,0.0,0.0,0.0,0.0,0.0,0.0,0.0,0.0,0.0,0.0,0.0,0.0,0.0,0.0,0.0,0.0,0.0,0.0,0.0,0.0,0.0,0.0,0.0,0.0,0.0,0.0,0.0,0.0,0.0,0.0,0.0,0.0,0.0,0.0,0.0,0.0,0.0,0.0,0.0,0.0,0.0,0.0,0.0,0.0,0.0,0.0,0.0,0.0,0.0,0.0,0.0,0.0,0.0,0.0,0.0,0.0,0.0,0.0,0.0,0.0,0.0,0.0,0.0,0.0,0.0,0.0,0.0,0.0,0.0,0.0,0.0,0.0,0.0,0.0,0.0,0.0,0.0,0.0,0.0,0.0,0.0,0.0,0.0,0.0,0.0,0.0,0.0,0.0,0.0,0.0,0.0,0.0,0.0,0.0,0.0,0.0,0.0,0.0,0.0,0.0,0.0,0.0,0.0,0.0,0.0,0.0,0.0,0.0,0.0,0.0,0.0,0.0,0.0,0.0,0.0,0.0,0.0,0.0,0.0,0.0,0.0,0.0,0.0,0.0,0.0,0.0,0.0,0.0,0.0,0.0,0.0,0.0,0.0,0.0,0.0,0.0,0.0,0.0,0.0,0.0,0.0,0.0,0.0,0.0,0.0,0.0,0.0,0.0,0.0,0.0,0.0,0.0,0.0,0.0,0.0,0.0,0.0,0.0,0.0,0.0,0.0,0.0,0.0,0.0,0.0,0.0,0.0,0.0,0.0,0.0,0.0,0.0,0.0,0.0,0.0,0.0,0.0,0.0,0.0,0.0,0.0,0.0,0.0,0.0,0.0,0.0,0.0,0.0,0.0,0.0,0.0,0.0,0.0,0.0,0.0,0.0,0.0,0.0,0.0,0.0,0.0,0.0,0.0,0.0,0.0,0.0,0.0,0.0,0.0,0.0,0.0,0.0,0.0,0.0,0.0,0.0,0.0,0.0,0.0,0.0,0.0,0.0,0.0,0.0,0.0,0.0,0.0,0.0,0.0,0.0,0.0,0.0,0.0,0.0,0.0,0.0,0.0,0.0,0.0,0.0,0.0,0.0,0.0,0.0,0.0,0.0,0.0,0.0,0.0,0.0,0.0,0.0,0.0,0.0,0.0,0.0,0.0,0.0,0.0,0.0,0.0,0.0,0.0,0.0,0.0,0.0,0.0,0.0,0.0,0.0,0.0,0.0,0.0,0.0,0.0,0.0,0.0,0.0,0.0,0.0,0.0,0.0,0.0,0.0,0.0,0.0,0.0,0.0,0.0,0.0,0.0,0.0,0.0,0.0,0.0,0.0,0.0,0.0,0.0,0.0,0.0,0.0,0.0,0.0,0.0,0.0,0.0,0.0,0.0,0.0,0.0,0.0,0.0,0.0,0.0,0.0,0.0,0.0,0.0,0.0,0.0,0.0,0.0,0.0,0.0,0.0,0.0,0.0,0.0,0.0,0.0,0.0,0.0,0.0,0.0,0.0,0.0,0.0,0.0,0.0,0.0,0.0,0.0,0.0,0.0,0.0,0.0,0.0,0.0,0.0,0.0,0.0,0.0,0.0,0.0,0.0,0.0,0.0,0.0,0.0,0.0,0.0,0.0,0.0,0.0,0.0,0.0,0.0,0.0,0.0,0.0,0.0,0.0,0.0,0.0,0.0,0.0,0.0,0.0,0.0,0.0,0.0,0.0,0.0,0.0,0.0,0.0,0.0,0.0,0.0,0.0,0.0,0.0,0.0,0.0,0.0,0.0,0.0,0.0,0.0,0.0,0.0,0.0,0.0,0.0,0.0,0.0,0.0,0.0,0.0,0.0,0.0,0.0,0.0,0.0,0.0,0.0,0.0,0.0,0.0,0.0,0.0,0.0,0.0,0.0,0.0,0.0,0.0,0.0,0.0,0.0,0.0,0.0,0.0,0.0,0.0,0.0,0.0,0.0,0.0,0.0,0.0,0.0,0.0,0.0,0.0,0.0,0.0,0.0,0.0,0.0,0.0,0.0,0.0,0.0,0.0,0.0,0.0,0.0,0.0,0.0,0.0,0.0,0.0,0.0,0.0,0.0,0.0,0.0,0.0,0.0,0.0,0.0,0.0,0.0,0.0,0.0,0.0,0.0,0.0,0.0,0.0,0.0,0.0,0.0,0.0,0.0,0.0,0.0,0.0,0.0,0.0,0.0,0.0,0.0,0.0,0.0,0.0,0.0,0.0,0.0,0.0,0.0,0.0,0.0,0.0,0.0,0.0,0.0,0.0,0.0,0.0,0.0,0.0,0.0,0.0,0.0,0.0,0.0,0.0,0.0,0.0,0.0,0.0,0.0,0.0,0.0,0.0,0.0,0.0,0.0,0.0,0.0,0.0,0.0,0.0,0.0,0.0,0.0,0.0,0.0,0.0,0.0,0.0,0.0,0.0,0.0,0.0,0.0,0.0,0.0,0.0,0.0,0.0,0.0,0.0,0.0,0.0,0.0,0.0,0.0,0.0,0.0,0.0,0.0,0.0,0.0,0.0,0.0,0.0,0.0,0.0,0.0,0.0,0.0,0.0,0.0,0.0,0.0,0.0,0.0,0.0,0.0,0.0,0.0,0.0,0.0,0.0,0.0,0.0,0.0,0.0,0.0,0.0,0.0,0.0,0.0,0.0,0.0,0.0,0.0,0.0,0.0,0.0,0.0,0.0,0.0,0.0,0.0,0.0,0.0,0.0,0.0,0.0,0.0,0.0,0.0,0.0,0.0,0.0,0.0,0.0,0.0,0.0,0.0,0.0,0.0,0.0,0.0,0.0,0.0,0.0,0.0,0.0,0.0,0.0,0.0,0.0,0.0,0.0,0.0,0.0,0.0,0.0,0.0,0.0,0.0,0.0,0.0,0.0,0.0,0.0,0.0,0.0,-3.4333,0.0,0.0,0.0,0.0,0.0,0.0,0.0,0.0,0.0,0.0,0.0,0.0,0.0,0.0,0.0,0.0,0.0,0.0,0.0,0.0,0.0,0.0,0.0,0.0,-3.2398,-3.2398,-3.2398,-3.2398,-3.2398,-3.2398,0.0,0.0,0.0,0.0,0.0,-3.2398,-3.2398,-3.2398,-3.2398,-3.2398,-3.2398,-3.2398,-3.2578,-3.273,-3.2834,0.0,0.0,0.0,0.0,0.0,0.0,0.0,0.0,0.0,0.0,0.0,0.0,0.0,0.0,0.0,0.0,0.0,0.0,0.0,0.0,0.0,0.0,0.0,0.0,0.0,0.0,0.0,0.0,0.0,0.0,0.0,0.0,0.0,0.0,0.0,0.0,0.0,0.0,0.0,0.0,0.0,0.0,0.0,0.0,0.0,0.0,0.0,0.0,0.0,0.0,0.0,0.0,0.0,0.0,0.0,0.0,0.0,0.0,0.0,0.0,0.0,0.0,0.0,0.0,0.0,0.0,0.0,0.0,0.0,0.0,0.0,-3.4797,0.0,0.0,0.0,0.0,0.0,0.0,0.0,0.0,0.0,0.0,0.0,0.0,0.0,0.0,0.0,0.0,0.0,0.0,0.0,0.0,0.0,-3.2398,-3.2398,-3.2398,-3.2398,-3.2398,-3.2492,-3.2492,-3.2425,-3.2492,0.0,0.0,-3.2398,-3.2398,-3.2398,-3.2398,-3.2398,-3.2398,-3.2398,-3.2398,-3.2398,-3.2398,-3.2398,-3.2398,-3.2398,0.0,0.0,0.0,0.0,0.0,0.0,0.0,0.0,0.0,0.0,0.0,0.0,0.0,0.0,0.0,0.0,0.0,0.0,0.0,0.0,0.0,0.0,0.0,0.0,0.0,0.0,0.0,0.0,0.0,0.0,0.0,0.0,0.0,0.0,0.0,0.0,0.0,0.0,0.0,0.0,0.0,0.0,0.0,0.0,0.0,0.0,0.0,0.0,0.0,0.0,0.0,0.0,0.0,0.0,0.0,0.0,0.0,0.0,0.0,0.0,0.0,0.0,0.0,-3.6275,-3.6341,-3.6341,-3.6341,-3.6275,-3.6163,-3.6297,-3.6188,-3.5954,-3.5932,0.0,0.0,0.0,0.0,0.0,0.0,0.0,0.0,0.0,0.0,0.0,0.0,0.0,0.0,0.0,0.0,0.0,0.0,0.0,-3.2398,-3.2398,-3.2398,-3.2398,-3.2398,-3.2815,-3.2895,-3.2437,-3.2841,-3.2895,-3.2425,-3.2398,-3.2398,-3.2398,-3.2398,-3.2398,-3.2398,-3.2398,-3.2398,-3.2398,-3.2398,-3.2398,-3.2398,-3.2398,-3.2398,-3.2398,0.0,0.0,0.0,0.0,0.0,0.0,0.0,0.0,0.0,0.0,0.0,0.0,0.0,0.0,0.0,0.0,0.0,0.0,0.0,0.0,0.0,0.0,0.0,0.0,0.0,0.0,0.0,0.0,0.0,0.0,0.0,0.0,0.0,0.0,0.0,0.0,0.0,0.0,0.0,0.0,0.0,-3.3012,-3.4122,0.0,0.0,0.0,0.0,0.0,0.0,0.0,0.0,0.0,0.0,0.0,0.0,0.0,-3.5989,-3.6666,-3.6683,-3.7005,-3.7625,-3.7625,-3.7648,-3.7648,-3.7648,-3.7625,-3.7625,-3.7625,0.0,-3.5817,-3.5689,0.0,0.0,0.0,0.0,0.0,0.0,0.0,0.0,0.0,0.0,0.0,0.0,0.0,0.0,0.0,0.0,0.0,0.0,0.0,0.0,0.0,-3.2574,-3.252,-3.2815,-3.2788,-3.2641,-3.2425,-3.2614,-3.2641,-3.241,-3.2398,-3.2547,-3.2841,-3.2547,-3.2398,-3.2398,-3.2398,-3.2398,-3.2398,-3.2398,-3.2398,-3.2398,-3.2398,-3.2398,-3.2398,-3.2398,0.0,0.0,0.0,0.0,0.0,0.0,0.0,0.0,0.0,0.0,0.0,0.0,0.0,0.0,0.0,0.0,0.0,0.0,0.0,0.0,0.0,0.0,0.0,0.0,0.0,0.0,0.0,0.0,0.0,0.0,0.0,0.0,0.0,0.0,0.0,0.0,0.0,0.0,0.0,-3.4056,-3.4522,-3.5076,-3.5131,-3.525,0.0,0.0,0.0,0.0,0.0,0.0,0.0,0.0,0.0,-3.6884,-3.6884,-3.7077,-3.7398,-3.7415,-3.7584,-3.7905,-3.7905,-3.7905,-3.7905,-3.7905,-3.7905,-3.7905,-3.7905,-3.7557,-3.6943,-3.6474,-3.6304,-3.6322,0.0,0.0,0.0,0.0,-3.4159,-3.3322,0.0,0.0,0.0,0.0,0.0,0.0,0.0,0.0,0.0,0.0,0.0,0.0,-3.2933,-3.2641,-3.2629,-3.3145,-3.2841,-3.2586,-3.2586,-3.2722,-3.2749,-3.2614,-3.2586,-3.2788,-3.3182,-3.2668,-3.2557,-3.2877,-3.2727,-3.282,-3.3156,-3.3005,-3.2921,-3.2921,-3.2921,-3.2736,-3.2398,-3.2398,-3.2398,-3.2398,0.0,0.0,0.0,0.0,0.0,0.0,0.0,0.0,0.0,0.0,0.0,0.0,0.0,0.0,0.0,0.0,0.0,0.0,0.0,0.0,0.0,0.0,0.0,0.0,0.0,0.0,0.0,0.0,0.0,0.0,0.0,0.0,0.0,0.0,0.0,0.0,0.0,-3.56,-3.5667,-3.5893,-3.591,-3.5971,0.0,0.0,0.0,0.0,0.0,0.0,-3.7083,-3.7601,-3.7905,-3.7905,-3.7905,-3.7905,-3.7905,-3.7905,-3.7905,-3.7905,-3.7905,-3.7905,-3.7905,-3.7905,-3.7905,-3.7905,-3.7905,-3.8024,-3.8125,-3.7381,-3.7083,-3.7009,-3.6434,-3.6174,-3.6157,-3.5971,-3.5076,-3.3914,0.0,0.0,0.0,0.0,0.0,0.0,0.0,0.0,0.0,0.0,0.0,-3.241,-3.2437,-3.2425,-3.2629,-3.3145,-3.3172,-3.3172,-3.3172,-3.364,-3.3691,-3.3198,-3.3172,-3.3156,-3.3182,-3.2668,-3.2994,-3.4194,-3.3647,-3.3988,-3.5236,-3.4672,-3.4397,-3.4397,-3.4397,-3.3658,-3.2398,-3.2398,-3.2398,-3.2398,-3.2398,0.0,0.0,0.0,0.0,0.0,0.0,0.0,0.0,0.0,0.0,0.0,0.0,0.0,0.0,0.0,0.0,0.0,0.0,0.0,0.0,0.0,0.0,0.0,0.0,0.0,0.0,0.0,0.0,0.0,0.0,0.0,0.0,0.0,0.0,0.0,0.0,0.0,0.0,-3.666,-3.6745,0.0,0.0,0.0,0.0,-3.7787,-3.7821,-3.7838,-3.7838,-3.7889,-3.7905,-3.7905,-3.7905,-3.7905,-3.7905,-3.7905,-3.7905,-3.7905,-3.7905,-3.7905,-3.7905,-3.7905,-3.7905,-3.7905,-3.7905,-3.8311,-3.8886,-3.8159,-3.7838,-3.7838,-3.7804,-3.7787,-3.7702,-3.7015,-3.6214,-3.5295,0.0,0.0,0.0,0.0,0.0,-3.2398,-3.2398,-3.2398,-3.2398,-3.2398,-3.2398,-3.2641,-3.3345,-3.3119,-3.3277,-3.4153,-3.3903,-3.3716,-3.3716,-3.3563,-3.3407,-3.3224,-3.3651,-3.4308,-3.517,-3.4963,-3.4918,-3.5007,-3.4785,-3.4729,-3.4838,-3.4606,-3.4505,-3.4505,-3.4505,-3.4227,-3.3735,-3.3229,-3.3044,-3.2998,-3.2567,-3.2398,0.0,0.0,0.0,0.0,0.0,0.0,0.0,0.0,0.0,0.0,0.0,0.0,0.0,0.0,0.0,0.0,0.0,0.0,0.0,0.0,0.0,0.0,0.0,0.0,0.0,0.0,0.0,0.0,0.0,0.0,0.0,0.0,0.0,0.0,0.0,0.0,0.0,-3.7466,-3.7499,0.0,-3.7872,-3.7905,-3.7905,-3.7905,-3.8345,-3.8396,-3.7939,-3.8345,-3.8396,-3.7922,-3.7905,-3.7905,-3.7905,-3.7905,-3.7905,-3.7905,-3.7905,-3.7905,-3.7905,-3.7905,-3.7905,-3.7905,-3.7905,-3.8058,-3.8278,-3.8024,-3.8176,-3.8565,-3.8091,-3.7905,-3.7872,-3.7601,-3.7026,-3.6299,0.0,0.0,0.0,-3.2342,-3.2398,-3.2398,-3.2398,-3.2398,-3.2398,-3.2398,-3.2398,-3.2749,-3.364,-3.3407,-3.3624,-3.4697,-3.4144,-3.3869,-3.426,-3.4018,-3.3956,-3.4147,-3.4838,-3.5582,-3.6289,-3.6056,-3.5968,-3.6027,-3.5638,-3.5464,-3.5464,-3.5272,-3.5183,-3.5183,-3.5183,-3.5183,-3.5136,-3.4398,-3.3983,-3.3706,-3.3013,-3.2736,-3.2705,0.0,0.0,0.0,0.0,0.0,0.0,0.0,0.0,0.0,0.0,0.0,0.0,0.0,0.0,0.0,0.0,0.0,0.0,0.0,0.0,0.0,0.0,0.0,0.0,0.0,0.0,0.0,0.0,0.0,0.0,0.0,0.0,0.0,0.0,0.0,-3.799,-3.8244,-3.8278,-3.8379,-3.8616,-3.8413,-3.8278,-3.8278,-3.8481,-3.8413,-3.7939,-3.8599,-3.8768,-3.8294,-3.8514,-3.8514,-3.8278,-3.8278,-3.8159,-3.7905,-3.7905,-3.7905,-3.7905,-3.7905,-3.7905,-3.7905,-3.7905,-3.8041,-3.8278,-3.8278,-3.8565,-3.892,-3.8193,-3.8058,-3.8278,-3.8278,-3.7956,-3.7472,0.0,-3.2064,-3.2398,-3.2398,-3.2398,-3.2398,-3.2398,-3.2398,-3.2398,-3.2398,-3.2398,-3.2614,-3.3172,-3.3209,-3.3649,-3.4721,-3.3878,-3.3742,-3.4778,-3.5086,-3.5486,-3.605,-3.6721,-3.6856,-3.6397,-3.5794,-3.6075,-3.7313,-3.6144,-3.6178,-3.7326,-3.6754,-3.6445,-3.643,-3.6445,-3.6461,-3.6415,-3.5784,-3.5167,-3.4505,-3.3737,-3.3429,-3.3367,0.0,0.0,0.0,0.0,0.0,0.0,0.0,0.0,0.0,0.0,0.0,0.0,0.0,0.0,0.0,0.0,0.0,0.0,0.0,0.0,0.0,0.0,0.0,0.0,0.0,0.0,0.0,0.0,0.0,0.0,0.0,0.0,0.0,-3.8041,-3.7956,-3.8227,-3.892,-3.8988,-3.9259,-3.996,-3.9419,-3.9005,-3.9022,-3.8396,-3.799,-3.7973,-3.865,-3.9005,-3.8954,-3.9673,-3.9706,-3.8971,-3.8954,-3.8616,-3.7905,-3.7905,-3.7905,-3.7905,-3.7905,-3.7905,-3.7905,-3.7905,-3.8311,-3.8954,-3.8954,-3.8954,-3.8886,-3.821,-3.8362,-3.8954,-3.8954,-3.8954,-3.8751,-3.1523,-3.1781,-3.2007,-3.2342,-3.2398,-3.2398,-3.2398,-3.2398,-3.2398,-3.2398,-3.2398,-3.2749,-3.3665,-3.3767,-3.4219,-3.5293,-3.5115,-3.5302,-3.6192,-3.5965,-3.6323,-3.7534,-3.6934,-3.7155,-3.8364,-3.7822,-3.7443,-3.738,-3.7479,-3.7001,-3.601,-3.5844,-3.5537,-3.5075,-3.5568,-3.5753,-3.5784,-3.6091,-3.6107,-3.583,-3.4674,-3.4212,-3.4181,0.0,0.0,0.0,0.0,0.0,0.0,0.0,0.0,0.0,0.0,0.0,0.0,0.0,0.0,0.0,0.0,0.0,0.0,0.0,0.0,0.0,0.0,0.0,0.0,0.0,0.0,0.0,0.0,0.0,0.0,0.0,0.0,-3.9554,-3.8802,-3.9157,-3.9385,-3.9039,-3.8988,-3.887,-3.8531,-3.8802,-3.9208,-3.9757,-4.0104,-4.0054,-3.9512,-3.969,-3.9292,-3.8244,-3.8396,-3.8413,-3.821,-3.821,-3.8108,-3.7905,-3.7905,-3.7905,-3.7905,-3.7905,-3.7905,-3.7905,-3.7905,-3.8024,-3.821,-3.821,-3.821,-3.8244,-3.8565,-3.8481,-3.821,-3.821,-3.821,-3.8227,-3.1552,-3.1866,-3.2092,-3.2342,-3.2398,-3.2398,-3.2398,-3.2398,-3.2398,-3.2398,-3.2398,-3.2803,-3.3885,-3.4011,-3.4333,-3.5201,-3.5572,-3.5964,-3.6441,-3.6973,-3.7661,-3.8579,-3.8187,-3.8357,-3.9189,-3.8601,-3.8266,-3.8141,-3.7463,-3.6695,-3.5879,-3.5333,-3.4874,-3.452,-3.4921,-3.509,-3.5136,-3.5784,-3.6061,-3.603,-3.5552,-3.5183,-3.489,-3.4613,-3.4505,-3.4505,-3.4505,-3.4505,-3.4505,-3.4505,0.0,0.0,0.0,0.0,0.0,0.0,0.0,0.0,0.0,0.0,0.0,0.0,0.0,0.0,0.0,0.0,0.0,0.0,0.0,0.0,0.0,0.0,0.0,0.0,-3.9842,-3.9503,-3.9056,-3.9385,-3.9385,-3.8633,-3.8802,-3.8954,-3.8811,-3.8937,-3.9292,-4.0045,-3.9918,-3.9631,-3.9191,-3.9462,-3.9377,-3.8853,-3.9123,-3.9445,-3.9749,-3.9749,-3.9749,-3.9749,-3.9749,-3.9749,-3.9749,-3.9749,-3.958,-3.9292,-3.9292,-3.9106,-3.8819,-3.8819,-3.8633,0.0,0.0,0.0,0.0,0.0,-3.8362,-3.8379,-3.1655,-3.2035,-3.2342,-3.2398,-3.2398,-3.2398,-3.2398,-3.2398,-3.2398,-3.2398,-3.2398,-3.2776,-3.3793,-3.3944,-3.4226,-3.4789,-3.5586,-3.6148,-3.6314,-3.8019,-3.9076,-3.9199,-3.9644,-3.9653,-3.9109,-3.8629,-3.8596,-3.8966,-3.6774,-3.5845,-3.6121,-3.4936,-3.4351,-3.4274,-3.4351,-3.4382,-3.4428,-3.5106,-3.5444,-3.5568,-3.6138,-3.6061,-3.5568,-3.4951,-3.4736,-3.4736,-3.4736,-3.4736,-3.4736,-3.4736,0.0,0.0,0.0,0.0,0.0,0.0,0.0,0.0,0.0,0.0,0.0,0.0,0.0,0.0,0.0,0.0,0.0,0.0,0.0,0.0,0.0,0.0,0.0,0.0,-3.9436,-3.8988,-3.8988,-3.8988,-3.8751,-3.8108,-3.8599,-3.9259,-3.9893,-3.9377,-3.9326,-4.0163,-3.9089,-3.8447,-3.8531,0.0,0.0,0.0,0.0,-4.1644,-4.2286,-4.2286,-4.2286,-4.2286,-4.2286,-4.2286,-4.2286,-4.2286,-4.1931,-4.1322,-4.1322,-4.095,-4.035,-4.035,-3.9926,-3.9157,-3.8261,-3.8311,-3.887,-3.887,-3.887,-3.8785,-3.1835,-3.1752,-3.1951,-3.2327,-3.2398,-3.2398,-3.2398,-3.2398,-3.2398,-3.2398,-3.2398,-3.2641,-3.3261,-3.3742,-3.4246,-3.4899,-3.5989,-3.7162,-3.8342,-3.8906,-3.9163,-3.9206,-3.8849,-3.8585,-3.849,-3.8821,-3.8542,-3.759,-3.7169,-3.6134,-3.4608,-3.3929,-3.3321,-3.2813,-3.3367,-3.3598,-3.366,-3.4397,-3.5013,-3.5521,-3.566,-3.5922,-3.6276,-3.6153,-3.6107,-3.6107,-3.6107,-3.6107,-3.6107,-3.6107,-3.6107,-3.6107,-3.6107,-3.6107,0.0,0.0,0.0,0.0,0.0,0.0,0.0,0.0,0.0,0.0,0.0,0.0,0.0,0.0,0.0,0.0,0.0,0.0,0.0,-3.9208,-3.9089,-3.8988,-3.8988,-3.8988,-3.8937,-3.8802,-3.8903,-3.9056,-3.9191,-3.9073,-3.9546,-4.0882,-4.1271,-4.1711,-4.2293,-4.2489,-4.2354,-4.188,-4.1999,-4.2151,-4.2286,-4.2286,-4.2286,-4.2286,0.0,0.0,-4.2286,-4.2286,-4.2219,-4.2083,-4.2083,-4.1999,-4.1863,-4.1863,-4.1441,-4.0578,-3.865,-3.799,-3.8125,-3.8125,-3.8125,-3.8176,-3.2496,-3.2447,-3.2516,-3.2432,-3.2398,-3.2398,-3.2398,-3.2398,-3.2398,-3.2398,-3.2398,-3.2726,-3.3592,-3.4246,-3.4862,-3.5532,-3.6483,-3.7753,-3.9437,-3.9339,-3.9055,-3.8767,-3.9038,-3.893,-3.8306,-3.8892,-3.8708,-3.7718,-3.6804,-3.5644,-3.4225,-3.3308,-3.2721,-3.2398,-3.2752,-3.2906,-3.2936,-3.3644,-3.4366,-3.5044,-3.5367,-3.5891,-3.6492,-3.6492,-3.6492,-3.6492,-3.6492,-3.6492,-3.6492,-3.6492,-3.6492,-3.6492,-3.6492,-3.6492,-3.6492,0.0,0.0,0.0,0.0,0.0,0.0,0.0,0.0,0.0,0.0,0.0,0.0,0.0,0.0,-3.963,-3.9572,0.0,-3.8988,-3.8988,-3.8988,-3.8988,-3.8988,-3.9334,-3.9394,-3.9039,-3.8988,-3.9276,-4.0037,-4.0104,-4.0713,-4.2175,-4.2303,-4.2455,-4.2828,-4.2861,-4.2861,-4.2861,-4.2861,-4.3047,-4.3464,-4.3464,-4.3464,-4.3464,-4.3464,-4.3464,-4.3464,-4.3464,-4.3217,-4.2861,-4.2861,-4.2642,-4.2286,-4.2286,-4.2066,-4.1593,-4.0138,-3.9326,-3.8954,-3.8582,-3.8447,-3.8447,-3.3301,-3.3517,-3.3552,-3.2736,-3.249,-3.2398,-3.2398,-3.2398,-3.2398,-3.2398,-3.2505,-3.2977,-3.3932,-3.4761,-3.5544,-3.6335,-3.7059,-3.8144,-3.9645,-3.9312,-3.881,-3.8306,-3.9226,-3.9295,-3.8306,-3.8767,-3.8762,-3.8164,-3.6329,-3.5078,-3.4441,-3.3049,-3.2398,-3.2398,-3.2398,-3.2398,-3.2444,-3.3121,-3.3814,-3.4566,-3.5244,-3.5891,-3.6492,-3.6492,-3.6492,-3.6492,-3.6492,-3.6492,-3.6492,-3.6492,-3.6492,-3.6492,-3.6492,-3.6492,-3.6492,-3.6492,-3.6569,0.0,0.0,0.0,0.0,0.0,0.0,0.0,0.0,0.0,-4.0062,-3.9926,-3.9893,-3.9706,-3.9106,-3.887,-3.8819,-3.8971,-3.8988,-3.9039,-3.9191,-3.9859,-4.0163,-3.9681,-3.9512,-4.0003,-4.1491,-4.1508,-4.1982,-4.3291,-4.2861,-4.2574,-4.2726,-4.277,-4.3014,-4.3623,-4.3639,-4.3944,-4.4598,-4.4615,-4.4615,-4.4615,-4.4615,-4.4615,-4.4615,-4.4615,-4.4231,-4.3639,-4.3639,-4.3301,-4.277,-4.277,-4.2642,-4.2439,-4.1863,-4.117,-4.0417,-3.9529,-3.9208,-3.9123,-3.3932,-3.4589,-3.4829,-3.3521,-3.2798,-3.2398,-3.2398,-3.2398,-3.2398,-3.2398,-3.2921,-3.3349,-3.3468,-3.4563,-3.5752,-3.6982,-3.776,-3.8281,-3.8474,-3.8435,-3.8379,-3.8306,-3.8418,-3.8446,-3.8306,-3.8379,-3.8297,-3.8096,-3.6302,-3.5313,-3.5053,-3.3239,-3.2398,-3.2398,-3.2398,-3.2398,-3.2444,-3.3121,-3.3814,-3.4566,-3.5244,-3.5891,-3.6492,-3.6492,-3.6492,-3.6492,-3.6492,-3.6492,-3.6492,-3.6492,-3.6492,-3.6492,-3.6492,-3.6492,-3.6492,-3.6492,-3.6861,-3.7298,-3.7298,-3.8141,-3.9001,-3.9082,-3.9549,-3.9995,0.0,0.0,-3.991,-3.9242,-3.9106,-3.9089,-3.9005,-3.8464,-3.8244,-3.8886,-3.8988,-3.9249,-3.9893,-4.0595,-4.1288,-4.1847,-4.1356,-4.1542,-4.3003,-4.2557,-4.2523,-4.3325,-4.3308,-4.3589,-4.431,-4.4344,-4.4395,-4.4479,-4.4479,-4.4513,-4.4615,-4.4615,-4.4615,-4.4615,-4.4615,-4.4615,-4.4615,-4.4615,-4.4564,-4.4479,-4.4479,-4.4429,-4.4344,-4.4344,-4.391,-4.3257,-4.3172,-4.2709,-4.188,-4.0502,-3.9977,-3.9977,-3.4471,-3.4775,-3.4942,-3.4677,-3.3706,-3.2982,-3.2982,-3.2644,-3.2536,-3.2921,-3.3229,-3.3706,-3.4522,-3.5761,-3.6874,-3.7769,-3.7792,-3.794,-3.8294,-3.7982,-3.7767,-3.7767,-3.8435,-3.849,-3.7796,-3.8463,-3.8259,-3.7104,-3.6358,-3.5556,-3.4794,-3.3978,-3.3627,-3.3627,-3.3627,-3.3627,-3.3658,-3.3935,-3.4429,-3.5121,-3.5398,-3.5891,-3.6492,-3.6492,-3.6492,-3.6492,-3.6492,-3.6492,0.0,-3.6492,-3.6492,-3.6492,-3.6492,-3.6754,-3.6952,-3.66,-3.6922,-3.746,-3.7825,-3.8294,-3.8849,0.0,-3.9901,-3.9994,-3.9571,-3.9469,-3.9242,-3.8514,-3.87,-3.887,-3.8447,-3.8464,-3.8633,0.0,-3.936,-3.9901,-4.0629,-4.1373,-4.2117,-4.2861,-4.2675,-4.2716,-4.3325,-4.3132,-4.3267,-4.4045,-4.4096,-4.4231,-4.4581,-4.4615,-4.4818,-4.5229,-4.5229,-4.5449,-4.5884,-4.5872,-4.5652,-4.5229,-4.5229,-4.501,-4.4615,-4.4615,-4.4615,-4.4615,-4.4615,-4.4615,-4.4615,-4.4615,-4.4412,-4.4045,-4.3589,-4.3189,-4.276,-4.1271,-4.073,-4.0679,-3.461,-3.4832,-3.5105,-3.5492,-3.4679,-3.3921,-3.3721,-3.3275,-3.3136,-3.3629,-3.386,-3.4429,-3.563,-3.6746,-3.7519,-3.778,-3.7549,-3.7519,-3.778,-3.7549,-3.7417,-3.7417,-3.8254,-3.8367,-3.765,-3.8197,-3.7939,-3.6931,-3.6411,-3.5761,-3.5031,-3.467,-3.4505,-3.4505,-3.4505,-3.4505,-3.452,-3.4705,-3.5059,-3.5537,-3.5722,-3.6061,-3.6492,-3.6492,-3.6492,-3.6492,-3.6492,-3.646,-3.6414,-3.6414,-3.6383,-3.6367,-3.6429,-3.6708,-3.6997,-3.66,-3.7043,-3.7825,-3.8601,-3.8794,-3.8962,-3.964,-3.9808,-3.9605,-3.8853,-3.8853,-3.8785,-3.8058,-3.8481,-3.8836,-3.8311,-3.8633,-3.9056,-3.9259,-3.9918,-4.0586,-4.1136,-4.2016,-4.2811,-4.3325,-4.3606,-4.3741,-4.3741,-4.3741,-4.4062,-4.4823,-4.4919,-4.5004,-4.5207,-4.5224,-4.5432,-4.5991,-4.6007,-4.6261,-4.6786,-4.6786,-4.6532,-4.6007,-4.6007,-4.572,-4.5207,-4.5004,-4.4801,-4.4615,-4.4615,-4.4615,-4.4615,-4.4615,-4.4615,-4.4547,-4.3961,-4.3741,-4.3589,-4.2286,-4.1694,-4.1407,-3.4119,-3.496,-3.5689,-3.5689,-3.5553,-3.5229,-3.4582,-3.4459,-3.4443,-3.4459,-3.5044,-3.5722,-3.6384,-3.7028,-3.7178,-3.66,-3.7058,-3.7148,-3.66,-3.7104,-3.7417,-3.7417,-3.7447,-3.7709,-3.825,-3.7163,-3.7133,-3.8246,-3.6413,-3.5804,-3.6314,-3.5091,-3.4505,-3.4505,-3.4505,-3.4505,-3.4536,-3.5198,-3.546,-3.5568,-3.6199,-3.6476,-3.6492,-3.6492,-3.6492,-3.6492,-3.6492,-3.6383,-3.6211,-3.6211,-3.6116,-3.6037,-3.6179,-3.6227,-3.6274,-3.646,-3.7326,-3.853,-3.9705,-4.0045,-3.9876,-3.9191,-3.9022,-3.8836,-3.8108,-3.8481,-3.8785,-3.8058,-3.8481,-3.8988,-3.8954,-3.8971,-3.9225,-3.996,-4.0679,-4.1187,-4.1204,-4.2429,-4.3358,-4.3392,-4.4079,-4.4564,0.0,-4.4564,-4.4857,-4.5618,-4.5669,-4.5974,-4.6684,-4.6718,-4.6735,-4.6752,-4.6752,-4.6769,-4.6786,-4.6786,-4.6786,-4.6752,-4.6752,-4.6735,-4.6701,-4.5991,-4.528,-4.4615,-4.4615,-4.4615,-4.4615,-4.4615,-4.4615,-4.4615,-4.4581,-4.4564,-4.4479,-4.3639,-4.2878,-4.2151,-3.4016,-3.4677,-3.5285,-3.5655,-3.5965,-3.6076,-3.5845,-3.5075,-3.4659,-3.5121,-3.5737,0.0,0.0,0.0,0.0,0.0,-3.6693,-3.6723,-3.6523,-3.6693,-3.68,-3.68,-3.7178,-3.7328,-3.7118,-3.7088,-3.7088,-3.7118,-3.6461,-3.6276,-3.6458,-3.6029,-3.5845,-3.5845,-3.5845,-3.5845,-3.583,-3.6061,-3.6153,-3.6168,-3.6399,-3.6492,-3.6492,-3.6492,-3.6492,-3.6492,0.0,-3.646,-3.6383,-3.6242,-3.6179,-3.6148,-3.6179,-3.6399,-3.6691,-3.6758,-3.7441,-3.8156,-3.8081,-3.8395,-3.8698,-3.8349,-3.8278,-3.821,-3.7973,-3.8091,-3.821,-3.7956,-3.8481,-3.8988,-3.8988,-3.9394,-3.9977,-4.0696,-4.1035,-4.1542,-4.2513,-4.3088,-4.3606,-4.413,-4.4445,0.0,0.0,0.0,0.0,-4.5686,-4.616,-4.6532,-4.6786,-4.6786,-4.7022,-4.7513,-4.753,-4.7767,-4.8257,-4.8257,-4.802,-4.753,-4.7022,-4.6786,-4.6786,-4.6532,-4.6024,-4.5331,-4.5331,-4.5043,-4.4615,-4.4615,-4.4615,-4.4615,-4.4615,-4.4615,-4.4581,-4.4282,-4.4028,-4.365,0.0,-3.4254,-3.4776,-3.5317,-3.5847,0.0,0.0,0.0,0.0,0.0,0.0,0.0,0.0,0.0,0.0,0.0,0.0,-3.6492,-3.6492,-3.6492,-3.6492,-3.6492,-3.6861,-3.7013,-3.6846,-3.6983,-3.6983,-3.6816,-3.6616,-3.6492,-3.6492,-3.6492,-3.6492,-3.6492,-3.6492,-3.6492,-3.6492,-3.6492,-3.6492,-3.6492,-3.6492,-3.6492,-3.6492,-3.6492,-3.6492,0.0,-3.6492,-3.6492,-3.646,-3.6211,-3.6116,-3.6116,-3.6038,-3.6292,-3.6678,-3.7137,-3.7483,-3.772,-3.7718,-3.7861,-3.8028,-3.7911,-3.7905,-3.7905,-3.7905,-3.8108,-3.8294,-3.8294,-3.887,-3.9402,-3.9402,-3.9791,-4.035,-4.1085,-4.1424,-4.2033,-4.3223,-4.3656,-4.4012,-4.4547,-4.4615,-4.4902,0.0,0.0,0.0,-4.6481,-4.6938,-4.731,-4.7564,-4.7581,-4.78,-4.8291,-4.8308,-4.8528,-4.9001,-4.9001,-4.8765,-4.8308,-4.7817,-4.7445,-4.7192,-4.7192,-4.6786,-4.6075,-4.5821,-4.5432,-4.4959,-4.4716,-4.4615,-4.4615,-4.4615,-4.4615,-4.4615,-4.4615,-4.4615,-4.4429,0.0,0.0,-3.4274,0.0,0.0,0.0,0.0,0.0,0.0,0.0,0.0,0.0,0.0,0.0,0.0,0.0,0.0,0.0,-3.6445,-3.6476,-3.6492,-3.6492,-3.6492,-3.6785,-3.7358,-3.6785,-3.6785,-3.7358,-3.6785,-3.6492,-3.6492,-3.6492,-3.6492,-3.6492,-3.6492,-3.6492,-3.6492,-3.6492,-3.6492,-3.6492,-3.6492,-3.6492,-3.6492,-3.6492,-3.6492,-3.6492,-3.6492,-3.6492,-3.646,-3.6132,-3.6005,-3.5973,-3.5816,-3.5938,0.0,-3.7571,-3.7524,-3.7361,-3.8503,-3.8379,-3.7889,-3.7855,-3.7872,-3.7922,-3.7956,-3.8497,-3.9005,-3.9039,-3.9622,-4.0096,0.0,0.0,-4.0367,-4.1136,-4.183,-4.2574,-4.3341,-4.4113,-4.4615,0.0,0.0,0.0,0.0,0.0,0.0,-4.7889,0.0,-4.8244,-4.8968,-4.9001,-4.9001,-4.9001,-4.9001,-4.9001,-4.9001,-4.9001,-4.9001,-4.9001,-4.9001,-4.8646,-4.7939,-4.7939,-4.7564,-4.6802,-4.6126,-4.5771,-4.5652,-4.4925,-4.4632,-4.4615,-4.4615,-4.4615,-4.4615,-4.4615,-4.4615,-4.4496,0.0,0.0,0.0,0.0,0.0,0.0,0.0,0.0,0.0,0.0,0.0,0.0,0.0,0.0,0.0,0.0,0.0,0.0,-3.5737,-3.6215,-3.6492,-3.6492,-3.6492,-3.6585,-3.6723,-3.6585,-3.6585,-3.6723,-3.6585,-3.6492,-3.6492,-3.6492,-3.6492,-3.6492,-3.6492,-3.6492,-3.6492,-3.6492,-3.6492,-3.6492,-3.6492,-3.6492,-3.6492,-3.6492,-3.6492,-3.6492,-3.6492,-3.6492,-3.646,-3.6211,-3.6148,0.0,0.0,-3.7035,-3.7491,0.0,0.0,-3.8061,-3.6821,-3.7178,-3.777,-3.7212,-3.7483,-3.8041,-3.8582,-3.887,-3.9157,-3.9723,-3.9977,-4.0096,0.0,0.0,0.0,-4.1796,-4.2168,0.0,-4.4096,-4.4479,0.0,-4.4615,0.0,-4.5703,-4.6447,-4.7192,0.0,0.0,-4.8731,-4.8798,-4.8984,-4.9001,-4.9001,-4.9001,-4.9001,-4.9001,-4.9001,-4.9001,-4.9001,-4.9001,-4.9001,-4.89,-4.8731,-4.8731,-4.8325,-4.7631,-4.7428,-4.6735,-4.5703,-4.55,-4.5094,-4.4615,-4.4615,-4.4615,-4.4615,-4.4615,-4.4615,-4.4581,0.0,0.0,0.0,0.0,0.0,0.0,0.0,0.0,0.0,0.0,0.0,0.0,0.0,0.0,0.0,0.0,0.0,0.0,0.0,-3.583,-3.6184,-3.6476,-3.6492,-3.6492,-3.6492,-3.6492,-3.6492,-3.6492,-3.6492,-3.6492,-3.6492,-3.6492,-3.6492,-3.6492,-3.6492,-3.6492,-3.6492,-3.6492,-3.6492,0.0,0.0,-3.6492,-3.6492,-3.6492,-3.6492,-3.6492,-3.6492,-3.6492,-3.6492,0.0,0.0,-3.6196,-3.6814,-3.7266,-3.7524,-3.7265,0.0,-3.7725,-3.6867,-3.7009,-3.7466,-3.7726,-3.8075,-3.8582,-3.9292,-3.9486,-3.9605,-4.0011,-4.0096,0.0,-4.0096,0.0,0.0,0.0,0.0,0.0,-4.4395,-4.4615,-4.4615,0.0,-4.5246,0.0,-4.6718,-4.7479,-4.8193,0.0,-4.9001,-4.9001,-4.9001,-4.9001,-4.9001,-4.9001,-4.9001,-4.9001,-4.9001,-4.9001,-4.9001,-4.9001,-4.9001,-4.9001,-4.9001,-4.9001,-4.8781,-4.8376,0.0,-4.7415,-4.6633,-4.5974,-4.5449,-4.5043,-4.4733,-4.4542,-4.4468,-4.457,-4.4514,-4.44,0.0,0.0,0.0,0.0,0.0,0.0,0.0,0.0,0.0,0.0,-3.6492,-3.6492,0.0,0.0,0.0,0.0,0.0,0.0,0.0,0.0,-3.5675,-3.6322,-3.6353,-3.6399,-3.6492,-3.6492,-3.6492,-3.6492,-3.6492,-3.6492,-3.6492,-3.6492,-3.6492,-3.6492,-3.6492,-3.6492,-3.6492,-3.6492,-3.6492,-3.6492,-3.6492,-3.6492,-3.6492,0.0,-3.6492,-3.6492,-3.6492,-3.6492,-3.6492,-3.6492,-3.6304,-3.6211,-3.7011,-3.7189,-3.718,-3.7666,-3.741,-3.7043,-3.7601,-3.7347,-3.7286,-3.865,-3.9056,-3.9292,-3.996,-4.0096,-4.0096,-4.0096,0.0,-4.0096,-4.0096,-4.0096,-4.0587,-4.2049,0.0,-4.2855,-4.4395,-4.4615,-4.4649,-4.475,-4.5399,-4.6143,-4.687,-4.7614,-4.8325,-4.8951,-4.9001,-4.9001,-4.9001,-4.9001,-4.9001,-4.9001,-4.9001,-4.9001,-4.9001,-4.9001,-4.9001,-4.9001,-4.9001,-4.9001,-4.9001,-4.9001,-4.9001,-4.8968,-4.8342,-4.7973,-4.7787,-4.6413,-4.5788,-4.5635,-4.4902,-4.4468,-4.4338,-4.4514,-4.4355,-4.4126,0.0,0.0,0.0,0.0,0.0,0.0,0.0,0.0,0.0,-3.6492,-3.6492,-3.6492,0.0,0.0,0.0,0.0,0.0,0.0,0.0,0.0,0.0,-3.563,-3.566,-3.5922,-3.6476,-3.6492,-3.6492,-3.6492,-3.6492,-3.6492,-3.6492,-3.6492,-3.6492,-3.6492,-3.6492,-3.6492,-3.6492,-3.6492,-3.6492,-3.6492,-3.6492,-3.6492,-3.6492,-3.6492,0.0,0.0,-3.6492,-3.6492,-3.6492,-3.6492,-3.646,-3.6616,-3.7751,-3.8084,-3.8023,-3.7928,-3.781,-3.7601,-3.7134,-3.733,-3.7922,-3.8768,-3.9469,-3.9943,-4.0079,-4.0096,0.0,0.0,-4.0096,-4.0096,-4.0096,-4.0096,-4.0587,-4.2049,0.0,0.0,0.0,0.0,-4.4835,0.0,0.0,0.0,0.0,0.0,0.0,0.0,0.0,-4.9001,-4.9001,-4.9001,-4.9001,-4.9001,-4.9001,-4.9001,-4.9001,-4.9001,-4.9001,-4.9001,-4.9001,-4.9001,-4.9001,-4.9001,-4.9001,-4.9001,-4.8866,0.0,-4.7821,-4.6972,-4.6244,-4.5635,-4.4902,-4.4468,-4.4293,-4.4338,-4.4241,-4.4097,0.0,0.0,0.0,0.0,0.0,0.0,-3.5565,-3.5789,-3.5819,-3.57,-3.567,-3.5749,-3.5953,-3.5106,-3.4351,0.0,0.0,0.0,0.0,0.0,0.0,-3.4951,-3.4982,-3.5306,-3.5953,-3.5968,-3.6138,-3.6492,0.0,-3.6492,-3.6492,-3.6492,-3.6492,-3.6492,-3.6492,-3.6492,-3.6492,-3.6492,-3.6492,-3.6492,-3.6492,-3.6492,-3.6492,-3.6492,0.0,0.0,0.0,-3.6492,-3.6492,-3.6492,-3.6492,-3.6708,-3.7924,-3.8306,-3.817,-3.7635,-3.7672,-3.7749,-3.7122,-3.7427,-3.8176,-3.9276,-3.9842,-4.0096,-4.0096,0.0,0.0,0.0,-4.0096,-4.0096,-4.0096,0.0,0.0,0.0,0.0,0.0,0.0,0.0,0.0,0.0,0.0,0.0,0.0,0.0,0.0,0.0,0.0,-4.9001,-4.9001,-4.9001,-4.9001,-4.9001,-4.9001,-4.9001,-4.9001,-4.9001,-4.9001,-4.9001,-4.9001,-4.9001,-4.9001,-4.9001,-4.9001,-4.9001,-4.9001,0.0,-4.8426,-4.7682,-4.6938,-4.6194,-4.5449,-4.4766,-4.4196,-4.4281,-4.4109,-4.3864,0.0,0.0,0.0,0.0,0.0,0.0,-3.4663,-3.4995,-3.5052,-3.4852,-3.4823,-3.4862,-3.5028,-3.4597,-3.4014,0.0,0.0,0.0,0.0,0.0,0.0,0.0,0.0,0.0,-3.5275,0.0,0.0,-3.6276,-3.6276,0.0,0.0,0.0,0.0,0.0,-3.6492,-3.6492,-3.6492,-3.6492,-3.6492,0.0,0.0,-3.6492,0.0,0.0,0.0,0.0,0.0,-3.6492,-3.6492,-3.6492,-3.6492,-3.6693,-3.7767,-3.821,-3.8175,-3.752,-3.7702,-3.8029,-3.7628,-3.7817,-3.8447,-3.9774,-4.0096,-4.0096,-4.0096,-4.0096,0.0,-4.0096,-4.0096,-4.0096,-4.0096,0.0,-4.0587,0.0,0.0,0.0,0.0,0.0,0.0,0.0,0.0,0.0,0.0,0.0,0.0,0.0,0.0,0.0,-4.9001,-4.9001,-4.9001,-4.9001,-4.9001,-4.9001,-4.9001,-4.9001,-4.9001,-4.9001,-4.9001,-4.9001,-4.9001,-4.9001,-4.9001,-4.9001,-4.9001,0.0,0.0,-4.8193,-4.7479,-4.6718,-4.5991,-4.5029,-4.4126,-4.4224,-4.3964,-4.3628,0.0,0.0,0.0,0.0,0.0,0.0,-3.4372,-3.4563,-3.4548,-3.4534,-3.4534,-3.4303,-3.366,-3.3537,-3.3475,0.0,0.0,0.0,0.0,0.0,0.0,0.0,0.0,0.0,0.0,0.0,0.0,-3.5598,0.0,0.0,0.0,0.0,0.0,0.0,0.0,-3.6492,-3.6492,-3.6492,0.0,0.0,0.0,0.0,0.0,0.0,0.0,0.0,0.0,-3.6492,-3.6492,0.0,0.0,-3.6616,-3.7268,-3.7854,-3.8272,-3.8071,0.0,0.0,-3.8837,-3.8862,-3.9089,-3.991,-4.0096,-4.0096,-4.0096,0.0,-4.0096,-4.0096,-4.0096,-4.0096,-4.0096,-4.0096,-4.0587,-4.2049,-4.2286,-4.2855,0.0,0.0,0.0,0.0,0.0,0.0,0.0,0.0,0.0,0.0,0.0,0.0,-4.9001,-4.9001,-4.9001,-4.9001,-4.9001,-4.9001,-4.9001,-4.9001,-4.9001,-4.9001,-4.9001,-4.9001,-4.9001,-4.9001,-4.9001,-4.9001,-4.9001,0.0,0.0,-4.8193,-4.7479,-4.6718,-4.5991,-4.5029,-4.4097,-4.4126,-4.3894,-4.3598,0.0,0.0,0.0,0.0,0.0,0.0,-3.3457,-3.3665,-3.372,-3.3569,-3.3557,-3.3432,-3.3125,-3.2925,-3.2798,-3.2798,-3.2552,0.0,0.0,0.0,0.0,0.0,0.0,0.0,0.0,0.0,-3.4197,-3.4905,-3.4905,0.0,0.0,0.0,0.0,0.0,0.0,0.0,-3.6492,-3.6492,0.0,0.0,0.0,0.0,0.0,0.0,0.0,0.0,0.0,0.0,-3.6492,-3.6492,0.0,0.0,-3.6785,-3.7268,0.0,0.0,-3.8267,-3.8939,-3.8606,-3.8748,-3.9174,-3.9926,-4.0096,-4.0087,-3.9986,0.0,-3.9986,-3.9986,-3.991,-3.9867,-3.9961,-3.9986,-4.045,-4.1933,-4.225,-4.2855,0.0,0.0,0.0,0.0,0.0,0.0,0.0,0.0,0.0,0.0,0.0,0.0,-4.9001,-4.9001,-4.9001,-4.9001,-4.9001,-4.9001,-4.9001,-4.9001,-4.9001,-4.9001,-4.9001,-4.9001,-4.9001,-4.9001,-4.9001,-4.9001,-4.9001,0.0,0.0,-4.8697,-4.7791,-4.6587,-4.63,-4.5282,-4.3969,-4.3969,-4.3822,-4.3598,0.0,0.0,0.0,0.0,0.0,-3.2381,-3.2733,-3.2936,-3.2973,-3.2773,-3.2746,-3.2746,-3.2746,-3.2551,-3.2398,-3.2398,-3.2398,0.0,0.0,0.0,0.0,0.0,0.0,0.0,0.0,0.0,-3.346,-3.4181,-3.4181,-3.4536,0.0,0.0,0.0,0.0,0.0,0.0,0.0,0.0,0.0,0.0,0.0,0.0,0.0,0.0,0.0,0.0,0.0,0.0,0.0,0.0,0.0,0.0,-3.6492,-3.6922,-3.7395,0.0,-3.8013,-3.8755,-3.8548,-3.8772,-3.9228,-3.9927,-4.0087,-4.0011,0.0,-3.9875,-3.9849,-3.9849,-3.9755,-3.9729,-3.9807,-3.9849,-4.0346,-4.1853,-4.2169,-4.2774,-4.4294,0.0,0.0,0.0,0.0,0.0,0.0,0.0,0.0,0.0,0.0,0.0,-4.9001,-4.9001,-4.9001,-4.9001,-4.9001,-4.9001,-4.9001,-4.9001,-4.9001,-4.9001,-4.9001,-4.9001,-4.9001,-4.9001,-4.9001,-4.9001,-4.9001,0.0,0.0,-4.8956,-4.797,-4.6514,-4.6455,-4.5386,-4.3898,-4.3898,-4.3763,-4.3598,0.0,0.0,0.0,0.0,0.0,-3.2048,-3.2541,-3.2488,-3.2425,-3.2425,-3.2425,-3.2425,-3.2425,-3.2398,-3.2398,-3.2398,-3.2398,0.0,0.0,0.0,0.0,0.0,0.0,0.0,-3.2398,-3.2398,-3.2736,-3.3413,-3.3413,-3.3783,-3.452,-3.452,-3.4874,-3.5521,0.0,0.0,0.0,0.0,-3.6492,0.0,0.0,0.0,-3.6492,0.0,0.0,0.0,0.0,0.0,0.0,0.0,0.0,0.0,0.0,-3.6922,-3.7417,-3.7401,-3.7838,-3.8446,-3.9011,-3.9189,-3.9322,-3.9944,-3.9986,-3.9901,-3.9901,-3.9781,-3.9703,-3.9703,-3.9703,-3.9703,-3.9703,-3.9703,-4.0242,-4.1826,-4.2105,-4.261,-4.4091,0.0,0.0,0.0,0.0,0.0,0.0,0.0,0.0,0.0,0.0,0.0,-4.9001,-4.9001,-4.9001,-4.9001,-4.9001,-4.9001,-4.9001,-4.9001,-4.9001,-4.9001,-4.9001,-4.9001,-4.9001,-4.9001,-4.9001,-4.9001,0.0,0.0,0.0,-4.8863,-4.7878,-4.6484,-4.6334,-4.5313,-4.3898,-4.3898,-4.3763,-4.3598,0.0,0.0,0.0,0.0,0.0,0.0,-3.3887,-3.3865,-3.3842,-3.3842,-3.3842,-3.3842,-3.3842,-3.3383,-3.3075,-3.3075,-3.2659,0.0,0.0,0.0,0.0,-3.2398,-3.2398,-3.2398,-3.2398,-3.2398,-3.249,-3.2721,-3.2721,-3.3059,-3.3737,-3.3737,-3.4121,-3.4844,-3.5306,-3.5629,0.0,-3.6292,-3.6492,0.0,0.0,-3.6492,-3.6492,0.0,0.0,0.0,0.0,0.0,0.0,0.0,0.0,0.0,0.0,0.0,0.0,-3.66,-3.7294,-3.8218,-3.8734,-3.8843,-3.9022,-3.967,-3.9807,-3.9729,-3.9642,-3.959,-3.9563,-3.9563,-3.9484,-3.9458,-3.9537,-3.9563,-4.0047,-4.1571,-4.1887,-4.2517,0.0,0.0,0.0,0.0,0.0,0.0,0.0,0.0,0.0,0.0,0.0,0.0,-4.9001,-4.9001,-4.9001,-4.9001,-4.9001,-4.9001,-4.9001,-4.9001,-4.9001,-4.9001,-4.9001,-4.9001,-4.9001,-4.9001,-4.9001,0.0,0.0,0.0,0.0,-4.8863,-4.7833,-4.6351,-4.6216,-4.5163,-4.3687,-4.3687,-4.3658,-4.3598,0.0,0.0,0.0,0.0,0.0,0.0,-3.4561,-3.4541,-3.4505,-3.4505,-3.4505,-3.4505,-3.4505,-3.4104,-3.3814,-3.3814,-3.3413,0.0,0.0,0.0,0.0,-3.2398,-3.2398,-3.2398,-3.2398,-3.2398,-3.2521,-3.2782,-3.2782,-3.3121,-3.3814,-3.3814,-3.4073,-3.452,-3.4951,-3.5275,0.0,-3.6199,-3.6492,-3.6492,-3.6492,-3.6492,-3.6492,0.0,0.0,0.0,0.0,0.0,0.0,0.0,0.0,0.0,0.0,0.0,0.0,0.0,-3.6615,-3.7247,-3.786,-3.8189,-3.8513,-3.9146,-3.9461,-3.9616,-3.9528,-3.9475,-3.9405,-3.9405,-3.9352,-3.9325,-3.9422,-3.9405,-3.9914,-4.1433,-4.1766,0.0,0.0,0.0,0.0,0.0,0.0,0.0,0.0,0.0,0.0,0.0,0.0,0.0,-4.8798,-4.8877,-4.8877,-4.8798,-4.894,-4.9001,-4.9001,-4.8956,-4.8956,-4.9001,-4.8956,-4.8956,-4.9001,-4.9001,-4.9001,0.0,0.0,0.0,0.0,-4.8753,-4.7891,-4.6661,-4.6179,-4.5178,-4.3992,-4.3698,-4.3598,-4.3598,0.0,0.0,0.0,0.0,0.0,0.0,-3.4831,-3.4729,-3.4643,-3.4643,-3.4643,-3.4643,-3.4643,-3.4597,-3.4582,-3.4582,-3.4536,0.0,0.0,-3.2536,-3.2536,-3.2536,-3.2536,-3.2536,-3.2536,-3.2536,-3.2844,-3.3475,-3.3475,-3.3814,-3.4505,-3.4505,-3.4505,-3.4505,-3.4551,-3.4951,-3.5629,-3.623,-3.6492,-3.6492,-3.6492,-3.6492,0.0,0.0,0.0,0.0,0.0,0.0,0.0,0.0,0.0,0.0,0.0,0.0,0.0,0.0,0.0,0.0,0.0,-3.7235,-3.7835,-3.8469,-3.8974,-3.9352,-3.9352,-3.9255,0.0,-3.9218,-3.9245,-3.9228,-3.9299,-3.9299,-3.9833,-4.1405,-4.1683,0.0,0.0,0.0,0.0,0.0,0.0,0.0,0.0,0.0,0.0,0.0,0.0,0.0,-4.8515,-4.8675,-4.869,-4.8515,-4.8815,-4.897,-4.897,-4.8832,-4.8832,-4.897,-4.8863,-4.8863,-4.897,-4.9001,-4.9001,0.0,0.0,0.0,0.0,-4.861,-4.8048,-4.7297,-4.6205,-4.5334,-4.4589,-4.3817,-4.3539,-4.3522,0.0,0.0,0.0,0.0,0.0,0.0,0.0,0.0,0.0,0.0,-3.6014,-3.6014,-3.6014,-3.5553,-3.5275,0.0,0.0,0.0,0.0,-3.4012,-3.4012,-3.4012,-3.4012,-3.4012,-3.4012,-3.4012,-3.4089,-3.4243,-3.4243,-3.4335,-3.4505,-3.4505,-3.4505,-3.452,-3.5044,-3.566,-3.6261,-3.643,-3.6492,-3.6492,-3.6492,-3.6492,0.0,0.0,0.0,0.0,-3.6492,-3.6492,0.0,0.0,0.0,0.0,0.0,0.0,0.0,0.0,-3.5797,-3.5587,-3.5765,0.0,-3.689,-3.7544,-3.7793,-3.7895,0.0,-3.7867,-3.7982,0.0,0.0,0.0,0.0,0.0,0.0,0.0,0.0,0.0,0.0,0.0,0.0,0.0,0.0,0.0,0.0,0.0,0.0,0.0,0.0,-4.8515,-4.8515,-4.8547,-4.8547,-4.8515,-4.8578,-4.861,-4.861,-4.8578,-4.8578,-4.861,-4.8738,-4.8738,-4.861,-4.8877,-4.8877,0.0,0.0,0.0,-4.8801,-4.8436,-4.7938,-4.7297,-4.6205,-4.5334,-4.4528,-4.3297,-4.2851,-4.2741,0.0,0.0,0.0,0.0,0.0,0.0,0.0,0.0,0.0,0.0,-3.6492,-3.6492,-3.6492,-3.6168,-3.5953,0.0,0.0,0.0,-3.5429,-3.5429,-3.5152,-3.4536,-3.4505,-3.4505,-3.4505,-3.4505,-3.4659,-3.4967,-3.4967,-3.5121,-3.5429,-3.5429,-3.526,-3.4982,-3.5352,-3.5722,-3.6045,-3.6368,-3.6492,-3.6492,-3.6492,0.0,0.0,0.0,0.0,0.0,-3.6492,-3.6492,0.0,-3.6492,-3.6492,-3.6492,0.0,0.0,0.0,0.0,-3.5701,-3.5504,-3.5504,-3.5941,-3.6492,-3.6845,-3.7161,-3.7399,-3.7399,-3.7399,0.0,0.0,0.0,0.0,0.0,0.0,0.0,0.0,0.0,0.0,0.0,0.0,0.0,0.0,0.0,0.0,0.0,0.0,0.0,0.0,0.0,-4.8276,-4.8276,-4.8324,-4.8324,-4.8276,-4.8324,-4.842,-4.8515,-4.842,-4.842,-4.8515,-4.8532,-4.8532,-4.8515,-4.8673,-4.8673,0.0,0.0,-4.8658,-4.8627,-4.8324,-4.8026,-4.764,-4.6306,-4.5549,-4.4991,-4.3256,-4.2617,-4.2475,0.0,0.0,0.0,0.0,0.0,0.0,0.0,0.0,0.0,0.0,0.0,0.0,0.0,0.0,0.0,0.0,0.0,-3.6492,-3.6492,-3.6492,-3.5984,-3.4859,-3.4813,-3.4813,-3.4813,-3.4813,-3.509,-3.566,-3.566,-3.5922,-3.6492,-3.6492,-3.6184,-3.566,-3.566,-3.566,-3.5706,-3.6245,-3.6553,-3.6645,-3.6645,0.0,0.0,0.0,0.0,0.0,0.0,0.0,0.0,-3.6492,-3.6492,-3.646,-3.6274,0.0,0.0,0.0,0.0,0.0,-3.5504,-3.5878,-3.6258,-3.6258,-3.6692,-3.7101,-3.7101,0.0,0.0,0.0,0.0,0.0,0.0,0.0,0.0,0.0,0.0,0.0,0.0,0.0,0.0,0.0,0.0,0.0,0.0,0.0,0.0,0.0,0.0,-4.8001,-4.8001,-4.8115,-4.8115,-4.8001,-4.8115,-4.826,-4.842,-4.826,-4.8276,-4.842,-4.826,-4.8292,-4.842,-4.8483,-4.8483,-4.842,0.0,0.0,-4.8452,-4.826,-4.813,-4.7884,-4.6249,-4.5561,-4.5206,-4.3072,-4.2285,-4.219,0.0,0.0,0.0,0.0,0.0,0.0,0.0,0.0,0.0,0.0,0.0,0.0,0.0,0.0,0.0,0.0,0.0,0.0,-3.6492,-3.6492,-3.6399,-3.6184,-3.6184,-3.6184,-3.6184,-3.6184,-3.623,-3.6338,-3.6338,-3.6384,-3.6492,-3.6492,-3.6445,-3.6338,-3.6338,-3.6338,-3.6338,-3.6445,-3.683,-3.7353,-3.7353,0.0,0.0,0.0,0.0,0.0,0.0,0.0,0.0,-3.6492,-3.6492,-3.646,-3.6274,0.0,0.0,0.0,0.0,0.0,-3.5504,-3.5569,-3.5651,-3.5651,-3.5716,-3.5797,-3.5797,-3.5797,0.0,0.0,0.0,0.0,0.0,0.0,0.0,0.0,0.0,0.0,0.0,0.0,0.0,0.0,0.0,0.0,0.0,0.0,0.0,0.0,0.0,-4.8001,-4.8001,-4.8033,-4.8033,-4.8001,-4.8033,-4.8066,-4.8099,-4.8066,-4.8066,-4.8099,-4.8163,-4.8179,-4.8099,-4.8356,-4.834,-4.8099,0.0,-4.826,-4.8227,-4.8082,-4.7737,-4.7106,-4.5554,-4.4557,-4.3677,-4.1575,-4.0805,-4.082,0.0,0.0,0.0,0.0,0.0,0.0,0.0,0.0,0.0,0.0,0.0,0.0,0.0,0.0,0.0,0.0,-3.6492,-3.6492,-3.6492,-3.6492,-3.6492,-3.6492,-3.6492,-3.6492,-3.6492,-3.6492,-3.6492,-3.6492,-3.6492,-3.6492,-3.6492,-3.6492,-3.6492,-3.6507,-3.6876,-3.703,-3.7061,-3.743,-3.7769,-3.8046,0.0,0.0,0.0,0.0,0.0,0.0,0.0,0.0,0.0,0.0,-3.6414,-3.632,-3.6148,0.0,0.0,0.0,0.0,0.0,-3.5504,-3.5504,-3.5504,-3.5504,-3.5504,-3.5504,-3.5504,-3.5504,0.0,0.0,0.0,0.0,0.0,0.0,0.0,0.0,0.0,0.0,0.0,0.0,0.0,0.0,0.0,0.0,0.0,0.0,0.0,0.0,0.0,0.0,-4.8001,-4.8001,-4.8001,-4.8001,-4.8001,-4.8001,-4.8001,-4.8001,-4.8001,-4.8001,-4.8049,-4.8049,-4.8001,-4.8147,-4.8164,-4.8001,0.0,-4.8082,-4.8082,-4.8033,-4.7588,-4.6801,-4.5356,-4.4324,-4.3334,-4.1283,-4.025,-3.9915,0.0,0.0,0.0,0.0,0.0,0.0,0.0,0.0,0.0,0.0,0.0,0.0,0.0,0.0,0.0,0.0,-3.6492,-3.6492,-3.6492,-3.6492,-3.6492,-3.6492,-3.6492,-3.6492,-3.6492,-3.6492,-3.6492,-3.6492,-3.6492,-3.6569,-3.6722,-3.6722,-3.6815,-3.6984,-3.7507,-3.7738,-3.7769,-3.8292,-3.86,-3.8739,0.0,0.0,0.0,0.0,0.0,0.0,0.0,0.0,0.0,0.0,0.0,0.0,0.0,0.0,0.0,-3.5554,-3.5504,-3.5504,-3.5504,-3.5504,-3.5504,-3.5504,-3.5504,-3.5504,-3.5504,-3.5504,-3.5582,0.0,0.0,0.0,0.0,0.0,0.0,0.0,0.0,0.0,0.0,0.0,0.0,0.0,0.0,0.0,0.0,0.0,0.0,0.0,0.0,0.0,-4.8001,-4.8001,-4.8001,-4.8001,-4.8001,-4.8001,-4.8001,-4.8001,-4.8001,-4.8001,-4.8001,-4.8001,-4.8001,-4.8001,-4.8001,-4.8001,-4.8001,-4.8001,-4.8001,-4.8001,-4.7421,-4.6405,-4.5072,-4.3763,-4.2408,-4.0828,-3.9879,-3.9388,0.0,0.0,0.0,0.0,0.0,0.0,0.0,0.0,0.0,0.0,0.0,0.0,0.0,0.0,0.0,0.0,-3.6492,-3.6492,-3.6492,-3.6492,-3.6492,-3.6492,-3.6492,-3.6492,-3.6492,-3.6492,-3.6492,-3.6492,-3.6492,-3.6815,-3.743,-3.743,-3.7769,-3.8369,-3.8415,-3.8431,-3.8431,-3.8492,-3.8877,-3.9447,-3.9447,0.0,0.0,0.0,0.0,0.0,0.0,0.0,0.0,0.0,0.0,0.0,0.0,0.0,-3.5655,-3.5554,-3.5504,-3.5504,-3.5504,-3.5504,-3.5504,-3.5504,-3.5504,-3.5504,-3.5504,-3.5504,0.0,-3.7103,0.0,0.0,0.0,0.0,0.0,0.0,0.0,0.0,0.0,0.0,0.0,0.0,0.0,0.0,0.0,0.0,0.0,0.0,0.0,0.0,-4.8001,-4.8001,-4.8001,-4.8001,-4.8001,-4.8001,-4.8001,-4.8001,-4.8001,-4.8001,-4.8001,-4.8001,-4.8001,-4.8001,-4.8001,-4.8001,-4.8001,-4.8001,-4.8001,-4.8001,-4.7134,-4.5663,-4.4307,-4.2116,-3.9673,-3.9511,-3.946,-3.9388,0.0,0.0,0.0,0.0,0.0,0.0,0.0,0.0,0.0,0.0,0.0,-3.6492,-3.6492,0.0,0.0,0.0,-3.6492,-3.6492,-3.6492,-3.6492,-3.6492,-3.6492,-3.6492,-3.6692,-3.7107,-3.6707,-3.6492,-3.6492,-3.6907,-3.7461,-3.8123,-3.8123,-3.8262,-3.8523,-3.8954,-3.9105,-3.917,-3.9585,-3.9874,-4.0105,-4.0105,-4.0105,0.0,0.0,0.0,0.0,0.0,0.0,0.0,0.0,-3.6673,-3.6068,-3.6005,-3.5782,-3.5587,-3.5504,-3.5504,-3.5504,-3.5504,-3.5504,-3.5504,-3.5504,-3.5504,0.0,0.0,-3.5818,-3.6277,-3.6784,-3.8415,0.0,0.0,0.0,0.0,0.0,0.0,0.0,0.0,0.0,0.0,0.0,0.0,0.0,0.0,0.0,0.0,0.0,0.0,0.0,-4.8001,-4.8001,-4.8001,-4.8001,-4.8001,-4.8001,-4.8001,-4.8001,-4.8001,-4.8001,-4.8001,-4.8001,-4.8001,-4.8001,-4.8001,-4.7968,-4.7488,-4.7253,-4.7253,-4.7253,-4.6359,-4.4784,-4.2981,-4.1082,-3.9388,-3.9388,-3.9388,-3.9388,0.0,0.0,0.0,0.0,0.0,0.0,0.0,0.0,-3.6492,0.0,0.0,0.0,0.0,-3.6492,0.0,0.0,-3.6492,-3.6492,-3.6492,-3.6692,-3.6815,-3.6815,-3.7015,-3.7353,-3.7815,-3.7369,-3.7138,-3.7138,-3.7584,-3.8169,-3.8831,-3.8831,-3.8939,-3.917,-3.9598,-3.9797,-3.9844,-4.0305,-4.0489,-4.0489,-4.0489,-4.0489,0.0,0.0,0.0,0.0,0.0,0.0,0.0,0.0,-3.6929,-3.6278,-3.6002,-3.5733,-3.5504,-3.5504,-3.5504,-3.5504,-3.5504,-3.5504,-3.5504,-3.5504,0.0,0.0,-3.5774,-3.6163,-3.6603,-3.7032,-3.9079,0.0,0.0,0.0,0.0,0.0,0.0,0.0,0.0,0.0,0.0,0.0,0.0,0.0,0.0,0.0,0.0,0.0,0.0,0.0,0.0,-4.8001,-4.8001,-4.8001,-4.8001,-4.8001,-4.8001,-4.8001,-4.8001,-4.8001,-4.8001,-4.8001,-4.8001,-4.8001,-4.8001,-4.7968,-4.7152,-4.6811,-4.6777,-4.6534,-4.5448,-4.3697,-4.2055,-4.0576,-3.9388,-3.9388,-3.9388,-3.9388,0.0,0.0,0.0,0.0,0.0,0.0,0.0,0.0,-3.6492,-3.6492,-3.6492,0.0,0.0,0.0,0.0,0.0,-3.6507,-3.6507,-3.6507,-3.7138,-3.7507,-3.7507,-3.8154,-3.8508,-3.8523,-3.8523,-3.8523,-3.8523,-3.8523,-3.8862,-3.949,-3.949,-3.9844,-4.0489,-4.0489,-4.0489,-4.0489,-4.0489,-4.0489,-4.0489,-4.0489,-4.0489,-4.0489,0.0,0.0,0.0,0.0,0.0,0.0,0.0,-3.7138,-3.6854,-3.5978,-3.5636,-3.5519,-3.5504,-3.5504,-3.5504,-3.5504,-3.5504,-3.5504,-3.5504,0.0,0.0,-3.6342,-3.6492,-3.689,-3.8256,0.0,-4.1722,-4.2443,0.0,0.0,0.0,0.0,0.0,0.0,0.0,0.0,0.0,0.0,0.0,0.0,0.0,0.0,0.0,0.0,0.0,0.0,-4.8001,-4.8001,-4.8001,-4.8001,-4.8001,-4.8001,-4.8001,-4.8001,-4.8001,-4.8001,-4.8001,-4.8001,-4.8001,-4.8001,-4.7968,-4.7152,-4.6777,-4.6742,-4.5969,-4.4429,-4.2427,-4.1678,-4.0576,-3.9388,-3.9388,-3.9388,-3.9388,0.0,0.0,0.0,0.0,0.0,0.0,0.0,0.0,-3.6492,-3.6492,-3.6492,0.0,0.0,0.0,0.0,0.0,0.0,-3.7923,-3.7923,-3.8092,-3.82,-3.82,-3.84,-3.8739,-3.92,-3.9659,-3.9659,-3.9216,-3.9216,-3.9536,-4.0197,-4.0197,-4.0305,-4.0489,-4.0489,-4.0489,-4.0489,-4.0489,-4.0489,-4.0489,-4.0489,-4.0489,-4.0489,0.0,0.0,0.0,0.0,0.0,0.0,0.0,0.0,0.0,-3.667,-3.6295,-3.6103,-3.5639,-3.5504,-3.5504,-3.5504,-3.5504,0.0,-3.5504,0.0,0.0,0.0,-3.6821,0.0,0.0,-4.039,-4.1176,-4.2396,0.0,0.0,0.0,0.0,0.0,0.0,0.0,0.0,0.0,0.0,0.0,0.0,0.0,0.0,0.0,0.0,0.0,0.0,-4.8001,-4.8001,-4.8001,-4.8001,-4.8001,-4.8001,-4.8001,-4.8001,-4.8001,-4.7438,-4.7438,-4.8001,-4.8001,-4.8001,-4.7935,-4.6585,-4.602,-4.5897,-4.4586,-4.341,-4.2427,-4.1678,-4.0576,-3.9388,-3.9388,-3.9388,-3.9388,0.0,0.0,0.0,0.0,0.0,0.0,-3.6492,-3.6722,-3.6892,-3.6892,-3.7123,-3.7292,0.0,0.0,0.0,-3.7908,-3.8277,-3.8508,-3.8508,-3.8769,-3.8908,-3.8908,-3.917,-3.9474,-3.9874,-4.0274,-4.029,-3.989,-3.989,-4.009,-4.0489,-4.0489,-4.0489,-4.0489,-4.0489,-4.0489,-4.0489,-4.0489,-4.0489,-4.0489,-4.0489,-4.0489,-4.0489,0.0,0.0,0.0,0.0,0.0,0.0,0.0,0.0,0.0,-3.7364,-3.6985,-3.6731,-3.6088,-3.5893,-3.5833,-3.5579,-3.5504,0.0,-3.5504,-3.5699,-3.6133,-3.703,0.0,0.0,0.0,0.0,0.0,0.0,0.0,0.0,0.0,0.0,0.0,0.0,0.0,0.0,0.0,0.0,0.0,0.0,0.0,0.0,0.0,0.0,0.0,0.0,-4.8001,-4.8001,-4.8001,-4.8001,-4.8001,-4.8001,-4.8001,-4.8001,-4.8001,-4.7186,-4.7033,-4.7521,-4.7202,-4.7421,-4.7886,-4.6375,-4.5332,-4.4662,-4.3708,-4.2808,-4.2019,-4.1581,-4.0576,-3.9388,-3.9388,-3.9388,-3.9388,0.0,0.0,-3.6676,-3.6676,0.0,0.0,-3.6676,-3.72,-3.7584,-3.7584,-3.8123,-3.8508,0.0,0.0,0.0,-3.86,-3.8662,-3.8692,-3.8692,-3.9228,-3.9582,-3.9582,-4.0166,-4.0489,-4.0489,-4.0489,-4.0489,-4.0489,-4.0489,-4.0489,-4.0489,-4.0489,-4.0489,-4.0489,-4.0489,-4.0489,-4.0489,-4.0489,-4.0489,-4.0489,-4.0489,-4.0489,-4.0489,-4.0489,0.0,0.0,0.0,0.0,0.0,0.0,0.0,0.0,-3.8043,-3.7646,-3.7375,-3.6746,-3.6567,-3.6432,-3.5774,0.0,0.0,-3.5519,-3.6043,0.0,0.0,0.0,0.0,0.0,0.0,0.0,0.0,0.0,0.0,0.0,0.0,0.0,0.0,0.0,0.0,0.0,0.0,0.0,0.0,0.0,0.0,0.0,0.0,0.0,0.0,-4.8001,-4.8001,-4.8001,-4.7935,-4.7886,-4.7886,-4.782,-4.7787,-4.7787,-4.6965,-4.6638,-4.6673,-4.602,-4.641,-4.7605,-4.6198,-4.4699,-4.329,-4.329,-4.2566,-4.1422,-4.1422,-4.0576,-3.9388,-3.9388,-3.9388,-3.9388,0.0,0.0,-3.8077,-3.8077,0.0,0.0,-3.8077,-3.82,-3.8292,-3.8292,-3.8415,-3.8508,-3.8508,-3.8985,0.0,-3.9259,-3.9751,-4.0059,-4.0059,-4.0197,-4.0274,-4.0274,-4.0413,-4.0489,-4.0489,-4.0489,-4.0489,-4.0489,-4.0489,-4.0489,-4.0489,-4.0489,-4.0489,-4.0489,-4.0489,-4.0489,-4.0489,-4.0489,-4.0489,-4.0489,-4.0489,-4.0489,-4.0489,-4.0489,-4.0489,0.0,0.0,0.0,0.0,0.0,0.0,0.0,-3.8567,-3.8217,-3.8048,-3.7404,-3.721,-3.7075,-3.6447,-3.6267,0.0,0.0,-3.6372,0.0,0.0,0.0,0.0,0.0,0.0,0.0,0.0,0.0,0.0,0.0,0.0,0.0,0.0,0.0,0.0,0.0,0.0,0.0,0.0,0.0,0.0,0.0,0.0,0.0,-4.8001,-4.8001,-4.8001,-4.8001,-4.7371,-4.705,-4.705,-4.648,-4.6198,-4.6198,-4.539,-4.5316,-4.5933,-4.5769,-4.5551,-4.5243,-4.4887,-4.4182,-4.329,-4.329,-4.2566,-4.1422,-4.1422,-4.0576,-3.9388,-3.9388,-3.9388,-3.9388,0.0,0.0,0.0,0.0,0.0,0.0,0.0,0.0,-3.8631,-3.8954,-3.9244,-3.9444,-3.9444,-3.9767,0.0,0.0,-4.029,-4.0489,-4.0489,-4.0489,-4.0489,-4.0489,-4.0489,-4.0489,-4.0489,-4.0489,-4.0489,-4.0489,-4.0489,-4.0489,-4.0489,-4.0489,-4.0489,-4.0489,-4.0489,-4.0489,-4.0489,-4.0489,-4.0489,-4.0489,-4.0489,-4.0489,-4.0489,-4.0489,-4.0489,-4.0489,-4.0489,0.0,0.0,0.0,0.0,0.0,0.0,0.0,-3.8751,-3.8078,-3.7883,-3.7749,-3.7105,0.0,0.0,-3.6432,0.0,0.0,0.0,0.0,0.0,0.0,0.0,0.0,0.0,0.0,0.0,0.0,0.0,0.0,0.0,0.0,0.0,0.0,0.0,0.0,0.0,0.0,0.0,0.0,0.0,-4.7066,-4.7404,-4.7421,-4.7421,-4.7421,-4.6999,-4.6638,-4.6288,-4.5913,-4.5697,-4.5697,-4.4887,-4.4526,-4.4586,-4.5369,-4.5036,-4.3966,-4.432,-4.4028,-4.329,-4.329,-4.2566,-4.1422,-4.1422,-4.0576,-3.9388,-3.9388,-3.9388,-3.9388,0.0,0.0,0.0,0.0,0.0,0.0,0.0,0.0,0.0,-3.9582,-4.0151,-4.0489,-4.0489,-4.0489,-4.0489,0.0,0.0,0.0,-4.0489,-4.0489,-4.0489,-4.0489,-4.0489,-4.0489,-4.0489,-4.0489,-4.0489,-4.0489,-4.0489,-4.0489,-4.0489,-4.0489,-4.0489,-4.0489,-4.0489,-4.0489,-4.0489,-4.0489,-4.0489,-4.0489,-4.0489,-4.0489,-4.0489,-4.0489,-4.0489,-4.0489,-4.0489,-4.0489,-4.0489,-4.0347,0.0,0.0,0.0,0.0,-3.9305,-3.8736,-3.8571,-3.8422,-3.7764,0.0,-3.6791,-3.7419,0.0,0.0,0.0,0.0,0.0,0.0,0.0,0.0,0.0,0.0,0.0,0.0,0.0,0.0,0.0,0.0,0.0,0.0,0.0,0.0,0.0,0.0,0.0,0.0,0.0,-4.5985,-4.6569,-4.6604,-4.6604,-4.6604,-4.6464,-4.6111,-4.5515,-4.5369,-4.5295,-4.5295,-4.4624,-4.3966,-4.3329,-4.4662,-4.4548,-4.3329,-4.3989,-4.3927,-4.329,-4.329,-4.2566,-4.1422,-4.1422,-4.0576,-3.9388,-3.9388,-3.9388,-3.9388,0.0,0.0,0.0,0.0,0.0,0.0,0.0,0.0,0.0,0.0,-4.0443,-4.0489,-4.0489,-4.0489,-4.0489,-4.0489,-4.0489,-4.0489,-4.0489,0.0,0.0,-4.0489,-4.0489,-4.0489,-4.0489,-4.0489,-4.0489,-4.0489,-4.0489,-4.0489,-4.0489,-4.0489,-4.0489,-4.0489,-4.0489,-4.0489,-4.0489,-4.0489,-4.0489,-4.0489,-4.0489,-4.0489,-4.0489,-4.0489,-4.0489,-4.0489,-4.0489,-4.0489,-4.0489,-4.0347,-4.0172,0.0,0.0,0.0,-3.9394,-3.9305,-3.929,-3.9125,0.0,0.0,-3.7449,0.0,0.0,0.0,0.0,0.0,0.0,0.0,0.0,0.0,0.0,0.0,0.0,0.0,0.0,0.0,0.0,0.0,0.0,0.0,0.0,0.0,0.0,0.0,0.0,0.0,-4.5697,-4.5733,-4.5841,-4.5841,-4.5841,-4.5841,-4.5169,-4.4774,-4.4662,-4.3966,-4.363,-4.363,-4.3512,-4.3409,-4.329,-4.3512,-4.3512,-4.329,-4.3409,-4.3409,-4.329,-4.329,-4.2566,-4.1422,-4.1422,-4.0576,-3.9388,-3.9388,-3.9388,-3.9388,0.0,0.0,0.0,0.0,0.0,0.0,0.0,0.0,0.0,0.0,0.0,-4.0489,-4.0489,-4.0489,-4.0489,-4.0489,-4.0489,-4.0489,-4.0489,-4.0489,-4.0489,-4.0489,-4.0489,-4.0489,-4.0489,-4.0489,-4.0489,-4.0489,-4.0489,-4.0489,-4.0489,-4.0489,-4.0489,-4.0489,-4.0489,-4.0489,-4.0489,-4.0489,-4.0489,-4.0489,-4.0489,-4.0489,-4.0489,-4.0489,-4.0489,-4.0489,-4.0489,-4.0489,-4.0455,-4.0207,-4.0066,-3.994,-3.9625,0.0,0.0,0.0,-3.9388,0.0,-3.8571,-3.8452,0.0,0.0,0.0,0.0,0.0,0.0,0.0,0.0,0.0,0.0,0.0,0.0,0.0,0.0,0.0,0.0,0.0,0.0,0.0,0.0,0.0,0.0,0.0,0.0,0.0,0.0,-4.4373,-4.4548,-4.4999,-4.5036,-4.5036,-4.5036,-4.4699,-4.4297,-4.3849,-4.3472,-4.329,-4.329,-4.329,-4.329,-4.329,-4.329,-4.329,-4.329,-4.329,-4.329,-4.329,-4.329,-4.2566,-4.1422,-4.1422,-4.0576,-3.9388,-3.9388,-3.9388,-3.9388,0.0,0.0,0.0,0.0,0.0,0.0,0.0,0.0,0.0,0.0,0.0,-4.0489,-4.0489,0.0,0.0,0.0,-4.0489,-4.0489,-4.0489,-4.0489,-4.0489,-4.0489,-4.0489,-4.0489,-4.0489,-4.0489,-4.0489,-4.0489,-4.0489,-4.0489,-4.0489,-4.0489,-4.0489,-4.0489,-4.0489,-4.0489,-4.0489,-4.0489,-4.0489,-4.0489,-4.0489,-4.0489,-4.0489,-4.0489,-4.0489,-4.0489,-4.0489,-4.0489,-4.0401,-4.0172,-3.9996,-3.9854,-3.9553,-3.946,0.0,0.0,0.0,0.0,0.0,0.0,0.0,0.0,0.0,0.0,0.0,0.0,0.0,0.0,0.0,0.0,0.0,0.0,0.0,0.0,0.0,0.0,0.0,0.0,0.0,0.0,0.0,0.0,0.0,0.0,0.0,0.0,-4.329,-4.3551,-4.4143,-4.4182,-4.4182,-4.4182,-4.4182,-4.3927,-4.329,-4.329,-4.329,-4.329,-4.329,-4.329,-4.329,-4.329,-4.329,-4.329,-4.329,-4.329,-4.329,-4.329,-4.2656,-4.1647,-4.1482,-4.0681,-3.9649,-3.9448,-3.9388,-3.9388,0.0,0.0,0.0,0.0,0.0,0.0,0.0,0.0,0.0,0.0,0.0,-4.0489,-4.0489,-4.0489,-4.0489,-4.0489,-4.0489,-4.0489,-4.0489,-4.0489,-4.0489,-4.0489,-4.0489,0.0,-4.0489,-4.0489,-4.0489,-4.0489,-4.0489,-4.0489,-4.0489,-4.0489,-4.0489,-4.0489,-4.0489,-4.0489,-4.0489,-4.0489,-4.0489,-4.0489,-4.0489,-4.0489,-4.0489,-4.0489,-4.0489,-4.0489,-4.0489,-4.0436,-4.0312,-4.0312,-4.0016,-3.9717,-3.9681,-3.9553,-3.9388,0.0,0.0,0.0,0.0,0.0,0.0,0.0,0.0,0.0,0.0,0.0,0.0,0.0,0.0,0.0,0.0,0.0,0.0,0.0,0.0,0.0,0.0,0.0,0.0,0.0,0.0,0.0,0.0,0.0,0.0,0.0,-4.329,-4.3329,-4.3369,-4.3369,-4.3369,-4.3369,-4.3369,-4.3329,-4.329,-4.329,-4.329,-4.329,-4.329,-4.329,-4.329,-4.329,-4.329,-4.329,-4.329,-4.329,-4.329,-4.329,-4.2925,-4.2291,-4.1662,-4.0965,-4.0277,-3.9649,-3.9388,-3.9388,0.0,0.0,0.0,0.0,0.0,0.0,0.0,0.0,0.0,0.0,0.0,0.0,0.0,-4.1601,-4.1863,-4.1863,-4.1863,-4.1678,-4.1247,-4.1217,-4.1001,-4.052,-4.0489,-4.0489,-4.0489,-4.0489,-4.0489,-4.0489,-4.0489,-4.0489,-4.0489,-4.0489,-4.0489,-4.0489,-4.0489,-4.0455,-4.0366,-4.0366,-4.0366,-4.0366,-4.0366,-4.0436,-4.0489,-4.0489,-4.0489,-4.0489,0.0,0.0,0.0,-4.0137,-3.991,0.0,0.0,0.0,0.0,0.0,0.0,0.0,0.0,0.0,0.0,0.0,0.0,0.0,0.0,0.0,0.0,0.0,0.0,0.0,0.0,0.0,0.0,0.0,0.0,0.0,0.0,0.0,0.0,0.0,0.0,0.0,0.0,0.0,0.0,0.0,0.0,-4.329,-4.329,-4.329,-4.329,-4.329,-4.329,-4.329,-4.329,-4.329,-4.329,-4.329,-4.329,-4.329,-4.329,-4.329,-4.329,-4.329,-4.329,-4.329,-4.329,-4.329,-4.294,-4.2381,-4.2141,-4.1354,-4.0367,-4.0127,-3.9783,-3.9388,0.0,0.0,0.0,-4.0858,0.0,-4.1197,-4.1197,-4.1197,-4.1197,-4.1197,0.0,0.0,0.0,0.0,-4.2602,-4.2602,-4.2602,-4.2325,-4.1648,-4.1601,-4.1278,-4.052,-4.0489,-4.0489,-4.0489,-4.0489,-4.0489,-4.0489,-4.0489,-4.0489,-4.0489,-4.0489,-4.047,-4.0436,-4.0436,-4.0366,-4.0312,-4.0242,-4.0207,-4.0207,-4.0277,-4.0296,-4.0331,-4.0401,-4.0401,0.0,0.0,0.0,0.0,0.0,0.0,0.0,0.0,0.0,0.0,0.0,0.0,0.0,-3.9388,0.0,0.0,0.0,0.0,0.0,0.0,0.0,0.0,0.0,0.0,0.0,0.0,0.0,0.0,0.0,0.0,0.0,0.0,0.0,0.0,0.0,0.0,0.0,0.0,0.0,0.0,0.0,0.0,0.0,-4.2671,-4.2895,-4.3105,-4.329,-4.329,-4.329,-4.329,-4.329,-4.329,-4.329,-4.329,-4.329,-4.329,-4.329,-4.329,-4.329,-4.329,-4.329,-4.329,-4.329,-4.3075,-4.2671,-4.2485,-4.1871,-4.101,-4.0561,-4.0127,-3.9709,-4.0551,-4.1155,-4.1632,-4.1632,-4.2171,-4.2602,-4.2602,-4.2602,-4.2602,-4.2602,0.0,0.0,0.0,0.0,0.0,-4.2663,-4.2648,-4.234,-4.1678,-4.1617,-4.1278,-4.052,-4.0489,-4.0489,-4.0489,-4.0489,-4.0489,-4.0489,-4.0489,-4.0489,-4.0489,-4.0505,-4.0436,-4.0312,-4.0312,-4.0277,-4.0277,-4.0066,-3.9996,-4.0011,-4.0207,-4.0172,-4.0031,-4.0207,0.0,0.0,-4.0207,-4.0172,0.0,-3.9996,0.0,0.0,0.0,0.0,0.0,0.0,0.0,0.0,0.0,0.0,0.0,0.0,0.0,0.0,0.0,0.0,0.0,0.0,0.0,0.0,0.0,0.0,0.0,0.0,0.0,0.0,0.0,0.0,0.0,0.0,0.0,0.0,0.0,0.0,0.0,0.0,-4.1422,-4.1422,-4.1422,-4.2021,-4.2626,-4.3245,-4.326,-4.3275,-4.329,-4.329,-4.329,-4.329,-4.329,-4.329,-4.329,-4.329,-4.329,-4.329,-4.329,-4.329,-4.329,-4.329,-4.329,-4.323,-4.2641,-4.2425,-4.2246,-4.0935,-4.0442,-4.0337,-4.2032,-4.2186,-4.2325,-4.2325,-4.2479,-4.2602,-4.2602,-4.2602,-4.2602,0.0,0.0,0.0,-4.331,-4.3778,-4.4033,-4.4033,-4.3587,-4.3033,-4.2371,-4.1878,-4.1278,-4.052,-4.0489,-4.0489,-4.0489,-4.0489,-4.0489,-4.0489,-4.0489,-4.0489,-4.0489,-4.0401,-4.0347,-4.0312,-4.0016,-3.9874,-3.9874,-3.9803,-3.9768,-3.9803,-3.9839,-3.991,-4.0011,0.0,0.0,0.0,0.0,-3.996,-3.9768,0.0,-3.9661,-3.9481,0.0,0.0,0.0,0.0,0.0,0.0,-3.9388,0.0,0.0,0.0,0.0,0.0,-3.9388,-3.9388,0.0,0.0,0.0,0.0,0.0,0.0,0.0,0.0,0.0,0.0,0.0,0.0,0.0,0.0,0.0,0.0,0.0,0.0,0.0,0.0,-4.1422,-4.1422,-4.1422,-4.1587,-4.1991,-4.265,-4.2626,-4.2865,-4.329,-4.329,-4.329,-4.329,-4.329,-4.329,-4.329,-4.329,-4.329,-4.329,-4.329,-4.329,-4.329,-4.329,-4.329,-4.3275,-4.3135,-4.2776,-4.2351,-4.1991,-4.1557,-4.1085,-4.2602,-4.2833,-4.3017,-4.3017,-4.3248,-4.3433,-4.3433,-4.3433,-4.3433,0.0,0.0,0.0,-4.4024,-4.4379,-4.4502,-4.4225,-4.384,-4.3223,-4.2248,-4.1817,-4.1278,-4.052,-4.0489,-4.0489,-4.0489,-4.0489,-4.0489,-4.0489,-4.0489,-4.0455,-4.0401,-4.0347,-4.0191,-4.0051,-3.9788,-3.9646,-3.9604,-3.9875,-3.9845,-3.9589,-3.9661,-3.9732,0.0,-3.9854,-3.9818,0.0,0.0,0.0,-3.9681,-3.9681,-3.9553,0.0,0.0,0.0,0.0,0.0,0.0,0.0,0.0,0.0,0.0,0.0,0.0,0.0,-3.9388,-3.9388,-3.9388,0.0,0.0,0.0,0.0,0.0,0.0,0.0,0.0,0.0,0.0,0.0,0.0,0.0,0.0,0.0,0.0,-4.0337,-4.0561,-4.0561,-4.0561,-4.0681,-4.095,-4.0965,-4.1265,-4.1976,-4.2246,-4.259,-4.2925,-4.3155,-4.329,-4.329,-4.329,-4.329,-4.329,-4.329,-4.329,-4.329,-4.329,-4.329,-4.329,-4.329,-4.329,-4.329,-4.329,-4.3105,-4.2731,-4.25,-4.2156,-4.1796,0.0,-4.3279,-4.3716,-4.3716,-4.4209,-4.461,-4.461,-4.461,-4.461,0.0,-4.461,-4.461,-4.461,-4.461,-4.4348,-4.367,-4.3531,-4.2925,-4.1678,-4.1524,-4.1201,-4.052,-4.0489,-4.0489,-4.0489,-4.0489,-4.0489,-4.0489,-4.0489,-4.0436,-4.0312,-4.0261,-4.0051,-3.9681,-3.9757,-3.9658,-3.9574,-4.0232,-4.0127,-3.9529,-3.9694,-3.9658,0.0,0.0,-3.9658,-3.9529,-3.982,-3.9871,-3.9892,-3.9781,-3.9613,0.0,0.0,0.0,0.0,0.0,-3.9388,0.0,0.0,0.0,0.0,0.0,0.0,0.0,-3.9388,-3.9388,-3.9388,0.0,0.0,0.0,0.0,0.0,0.0,0.0,0.0,0.0,0.0,0.0,0.0,0.0,0.0,0.0,-3.9388,-3.9388,-3.9388,-3.9388,-3.9388,-3.9679,-4.0262,-4.0292,-4.0591,-4.1287,-4.1871,-4.2246,-4.2396,-4.294,-4.3215,-4.329,-4.329,-4.329,-4.329,-4.329,-4.329,-4.329,-4.329,-4.329,-4.329,-4.329,-4.329,-4.329,-4.329,-4.329,-4.323,-4.2686,-4.2515,-4.2425,-4.4202,-4.4332,-4.4409,-4.4409,-4.4533,-4.461,-4.461,-4.461,-4.461,-4.461,-4.461,-4.461,-4.461,-4.461,-4.4348,-4.367,-4.3094,-4.2463,-4.1648,-4.1063,-4.0643,-4.0505,-4.0489,-4.0489,-4.0489,-4.0489,-4.0489,-4.0489,-4.0401,-4.0347,-4.0312,-3.998,-3.9803,-3.9711,-4.0072,-4.0239,-4.0247,-4.0905,-4.0816,-4.0217,-4.0239,-4.0239,-4.0217,-4.0239,-4.0239,-4.0277,-4.0875,-4.107,-4.0995,-4.0456,-3.9895,-3.9388,0.0,0.0,0.0,-3.9388,0.0,0.0,0.0,0.0,0.0,0.0,0.0,0.0,-3.9388,-3.9388,-3.9388,0.0,0.0,0.0,0.0,0.0,0.0,0.0,0.0,0.0,0.0,0.0,0.0,0.0,0.0,0.0,-3.9388,-3.9388,-3.9388,-3.9388,-3.9388,-3.9448,-3.9604,-3.9619,-3.9903,-4.0561,-4.0711,-4.1294,-4.2396,-4.253,-4.2821,-4.329,-4.329,-4.329,-4.329,-4.329,-4.329,-4.329,-4.329,-4.329,-4.329,-4.329,-4.329,-4.329,-4.329,-4.329,-4.329,-4.3155,-4.3135,-4.3135,-4.461,-4.461,-4.461,-4.461,-4.461,-4.461,-4.461,-4.461,-4.461,-4.461,-4.461,-4.461,-4.461,-4.4317,-4.384,-4.314,-4.2494,-4.1801,-4.1109,-4.0689,-4.0489,-4.0489,-4.0489,-4.0489,-4.0489,-4.0489,-4.0489,-4.0489,-4.0366,-4.0242,-4.0137,-3.9839,-3.9661,-3.9583,-4.0149,-4.0397,-4.0472,-4.1444,-4.1707,-4.1392,-4.1025,0.0,-4.0442,-4.0771,-4.0891,-4.0935,-4.1265,-4.1422,-4.1324,-4.0995,-4.0666,0.0,0.0,-4.0172,-3.9903,0.0,-3.9679,-3.9388,0.0,0.0,0.0,-3.9388,0.0,0.0,0.0,-3.9388,-3.9388,0.0,0.0,0.0,0.0,0.0,0.0,0.0,0.0,0.0,0.0,0.0,0.0,0.0,0.0,0.0,-3.9388,-3.9388,-3.9388,-3.9388,-3.9388,-3.9388,-3.9388,-3.9388,-3.9574,-3.9903,-4.0232,-4.0876,-4.1901,-4.2231,-4.2686,-4.329,-4.329,-4.329,-4.329,-4.329,-4.329,-4.329,-4.329,-4.329,-4.329,-4.329,-4.329,-4.329,-4.329,-4.329,-4.329,-4.329,-4.329,-4.329,-4.461,-4.461,-4.461,-4.461,-4.461,-4.461,-4.461,-4.461,-4.461,-4.461,-4.461,-4.461,-4.461,-4.4132,-4.3531,-4.2848,-4.2294,-4.1678,-4.0935,-4.0889,-4.0843,-4.0705,-4.0689,-4.0643,-4.0489,-4.0489,-4.0489,-4.047,-4.0434,-4.0319,-4.0122,-4.0049,-3.9929,-3.9828,-4.0487,-4.0786,-4.0846,-4.2043,0.0,-4.2366,0.0,-4.1369,-4.0831,-4.1407,-4.1602,-4.1632,-4.1713,-4.1669,-4.1602,-4.1602,-4.1527,-4.1422,-4.1422,-4.101,0.0,0.0,0.0,0.0,0.0,0.0,0.0,0.0,0.0,-3.9388,0.0,0.0,0.0,0.0,0.0,0.0,0.0,0.0,0.0,0.0,0.0,0.0,0.0,0.0,0.0,0.0,0.0,0.0,0.0,-3.9388,-3.9388,-3.9388,-3.9388,-3.9388,-3.9388,-3.9388,-3.9388,-3.9388,-3.9933,-4.0591,-4.1407,-4.1946,-4.2566,-4.329,-4.329,-4.329,-4.329,-4.329,-4.329,-4.329,-4.329,-4.329,-4.329,-4.329,-4.329,-4.329,-4.329,-4.329,-4.329,-4.329,-4.329,-4.329,-4.461,-4.461,-4.461,-4.461,-4.461,-4.461,-4.461,-4.461,-4.461,-4.461,-4.461,-4.461,-4.461,-4.4548,-4.424,-4.3547,-4.3424,-4.3079,-4.2417,-4.2371,-4.2109,-4.1509,-4.1478,-4.1186,-4.0505,-4.0489,-4.0436,-4.0312,-4.0731,-4.0804,-4.0622,-4.1025,-4.1197,-4.119,-4.1886,-4.2171,-4.2231,0.0,-4.2895,0.0,-4.291,-4.2716,0.0,-4.2261,-4.2291,-4.2366,-4.2895,-4.2746,-4.2291,0.0,-4.1901,-4.1422,0.0,-4.1324,-4.1265,-4.1265,0.0,0.0,0.0,0.0,0.0,0.0,-3.9388,0.0,0.0,0.0,-3.9388,-3.9388,0.0,0.0,0.0,0.0,0.0,0.0,0.0,0.0,0.0,0.0,0.0,0.0,0.0,0.0,0.0,-3.9388,-3.9388,-3.9388,-3.9388,-3.9388,-3.9388,-3.9388,-3.9388,-3.9388,-3.9448,-4.0127,-4.1407,-4.1497,-4.2102,-4.329,-4.329,-4.329,-4.329,-4.329,-4.329,-4.329,-4.329,-4.329,-4.329,-4.329,-4.329,-4.329,-4.329,-4.329,-4.329,-4.329,-4.329,-4.329,-4.461,-4.461,-4.461,-4.461,-4.461,-4.461,-4.461,-4.461,-4.461,-4.461,-4.461,-4.461,-4.461,-4.4255,0.0,0.0,0.0,-4.2894,0.0,0.0,-4.2479,-4.2186,-4.2063,-4.1873,-4.1546,-4.1408,-4.1285,-4.1228,-4.1364,-4.1353,-4.1279,-4.1363,-4.1422,-4.1452,-4.2111,0.0,-4.244,0.0,-4.3125,0.0,0.0,0.0,0.0,-4.2925,-4.2925,-4.297,-4.32,-4.3125,-4.2925,0.0,-4.2746,0.0,0.0,0.0,0.0,0.0,0.0,0.0,0.0,0.0,0.0,0.0,0.0,0.0,-3.9514,0.0,-3.9388,0.0,0.0,0.0,0.0,0.0,0.0,0.0,-3.923,0.0,0.0,0.0,0.0,0.0,0.0,0.0,0.0,0.0,0.0,0.0,-3.9388,-3.9388,-3.9388,-3.9388,-3.9388,-3.9388,-3.9388,-4.0053,-4.1407,-4.1422,-4.2043,-4.329,-4.329,-4.329,-4.329,-4.329,-4.329,-4.329,-4.329,-4.329,-4.329,-4.329,-4.329,-4.329,-4.329,-4.329,-4.329,-4.329,-4.329,-4.329,-4.461,-4.461,-4.461,-4.461,-4.461,-4.461,-4.461,-4.461,-4.461,-4.461,-4.461,-4.461,-4.461,-4.4178,0.0,0.0,-4.3417,-4.3104,0.0,0.0,-4.3027,-4.2806,-4.2702,0.0,-4.2316,-4.2101,-4.1954,-4.1842,-4.1904,-4.1934,-4.1896,-4.191,-4.1923,-4.1938,-4.2417,-4.2626,-4.2671,0.0,-4.329,-4.329,-4.329,-4.329,-4.329,-4.329,-4.329,-4.329,-4.329,-4.329,-4.329,-4.329,-4.329,0.0,-4.329,0.0,0.0,0.0,0.0,0.0,-4.1692,0.0,0.0,0.0,0.0,0.0,0.0,0.0,0.0,0.0,0.0,0.0,0.0,0.0,0.0,0.0,0.0,-3.9349,0.0,0.0,0.0,0.0,0.0,0.0,0.0,0.0,0.0,0.0,0.0,-3.9388,-3.9388,-3.9388,-3.9388,-3.9388,-3.9388,-4.0053,-4.1407,-4.1422,-4.2043,-4.329,-4.329,-4.329,-4.329,-4.329,-4.329,-4.329,-4.329,-4.329,-4.329,-4.329,-4.329,-4.329,-4.329,-4.329,-4.329,-4.329,-4.329,-4.329,-4.461,-4.461,-4.461,-4.461,-4.461,-4.461,-4.461,-4.461,-4.461,-4.461,-4.461,0.0,0.0,0.0,0.0,0.0,0.0,-4.4434,-4.4259,0.0,-4.4158,0.0,0.0,-4.3159,0.0,-4.2279,-4.211,-4.1716,-4.2281,-4.2505,-4.2381,-4.297,-4.323,-4.323,-4.3245,-4.326,-4.326,-4.329,-4.329,-4.329,-4.329,-4.329,-4.329,0.0,-4.329,-4.329,-4.329,0.0,0.0,-4.329,-4.329,0.0,0.0,0.0,0.0,0.0,0.0,0.0,0.0,0.0,0.0,-4.1354,0.0,0.0,0.0,0.0,-4.0187,0.0,0.0,0.0,0.0,0.0,-3.92,-3.8527,-3.899,0.0,0.0,0.0,0.0,0.0,0.0,0.0,0.0,0.0,0.0,0.0,0.0,0.0,-3.9388,-3.9388,-3.9388,-3.9388,-3.9388,-4.0053,-4.1407,-4.1422,-4.2043,-4.329,-4.329,-4.329,-4.329,-4.329,-4.329,-4.329,-4.329,-4.329,-4.329,-4.329,-4.329,-4.329,-4.329,-4.329,-4.329,-4.329,-4.329,-4.329,-4.461,-4.461,-4.461,-4.461,-4.461,-4.4549,-4.4435,-4.4496,-4.4534,0.0,-4.4511,0.0,0.0,-4.461,-4.461,0.0,0.0,-4.4496,-4.432,-4.4511,0.0,0.0,0.0,-4.3647,0.0,0.0,-4.2904,-4.2764,-4.2974,-4.3039,-4.3015,-4.3185,-4.329,-4.329,-4.329,-4.329,0.0,0.0,0.0,0.0,0.0,-4.329,-4.329,0.0,-4.329,-4.329,-4.329,-4.329,0.0,-4.329,-4.329,-4.329,-4.329,-4.329,-4.329,-4.329,-4.314,0.0,0.0,0.0,-4.2566,-4.2171,0.0,0.0,0.0,0.0,0.0,0.0,0.0,0.0,0.0,0.0,-3.9349,-3.911,-3.9275,-3.9298,0.0,0.0,0.0,0.0,0.0,0.0,0.0,0.0,0.0,0.0,-3.9388,0.0,-3.9388,-3.9388,-3.9388,-3.9388,-3.9388,-4.0053,-4.1407,-4.1422,-4.2043,-4.329,-4.329,-4.329,-4.329,-4.329,-4.329,-4.329,-4.329,-4.329,-4.329,-4.329,-4.329,-4.329,-4.329,-4.329,-4.329,-4.329,-4.329,-4.329,-4.461,-4.461,-4.461,-4.461,-4.461,-4.4549,-4.4435,-4.4511,0.0,0.0,-4.4511,0.0,-4.4496,0.0,-4.4572,0.0,-4.4549,-4.4458,-4.4205,-4.4396,0.0,-4.391,-4.3949,0.0,0.0,0.0,0.0,0.0,-4.329,-4.329,-4.329,-4.329,-4.329,-4.329,-4.329,-4.329,-4.329,-4.329,-4.329,0.0,0.0,-4.329,0.0,0.0,-4.329,-4.329,0.0,-4.329,-4.329,-4.329,-4.329,-4.329,-4.329,-4.329,-4.329,-4.329,-4.329,-4.329,-4.329,-4.329,0.0,-4.2821,-4.2701,0.0,-4.1916,0.0,0.0,0.0,0.0,0.0,0.0,0.0,-3.9694,-3.9454,-3.9388,-3.9388,0.0,-3.9388,0.0,0.0,0.0,0.0,0.0,0.0,0.0,-3.9388,-3.9388,-3.9388,0.0,0.0,-3.9388,-3.9388,-3.9649,-4.0292,-4.1407,-4.1647,-4.2267,-4.329,-4.329,-4.329,-4.329,-4.329,-4.329,-4.329,-4.329,-4.329,-4.329,-4.329,-4.329,-4.329,-4.329,-4.329,-4.329,-4.329,-4.329,-4.329,-4.461,-4.4572,-4.4572,-4.4572,-4.4587,-4.4587,0.0,0.0,-4.4572,0.0,-4.4572,-4.4511,-4.432,-4.4473,-4.4496,-4.4281,-4.4473,-4.4396,-4.4026,-4.4166,0.0,0.0,-4.3871,-4.3871,-4.3675,0.0,0.0,0.0,0.0,-4.329,-4.329,-4.329,-4.329,-4.329,-4.329,0.0,-4.329,-4.329,-4.329,-4.329,-4.329,-4.329,-4.329,-4.329,-4.329,-4.329,-4.329,-4.329,-4.329,-4.329,-4.329,-4.329,-4.329,-4.329,-4.329,-4.329,-4.329,-4.329,-4.329,-4.329,-4.329,-4.329,-4.329,0.0,0.0,0.0,-4.2261,0.0,0.0,0.0,0.0,0.0,0.0,-3.9574,-3.9403,-3.9388,0.0,0.0,0.0,0.0,0.0,0.0,0.0,0.0,-3.9388,-3.9388,-3.9388,-3.9388,0.0,0.0,-3.9388,-3.9388,-4.0053,-4.0711,-4.1407,-4.2066,-4.2686,-4.329,-4.329,-4.329,-4.329,-4.329,-4.329,-4.329,-4.329,-4.329,-4.329,-4.329,-4.329,-4.329,-4.329,-4.329,-4.329,-4.329,-4.329,-4.329,-4.461,-4.4473,-4.432,-4.4166,-4.4281,-4.4281,0.0,0.0,0.0,0.0,-4.4065,-4.4127,-4.4089,-4.4127,-4.4127,-4.4089,-4.4127,0.0,0.0,0.0,0.0,-4.3423,-4.3636,-4.3675,-4.3423,-4.3384,0.0,-4.329,0.0,-4.329,-4.329,-4.329,-4.329,-4.329,-4.329,-4.329,-4.329,-4.329,-4.329,-4.329,-4.329,-4.329,-4.329,0.0,-4.329,-4.329,-4.329,-4.329,-4.329,-4.329,-4.329,-4.329,-4.329,-4.329,-4.329,-4.329,-4.329,-4.329,-4.329,-4.329,-4.329,-4.329,-4.329,-4.3245,0.0,0.0,0.0,0.0,0.0,0.0,0.0,0.0,0.0,0.0,-3.9738,0.0,0.0,0.0,0.0,-3.9388,0.0,0.0,0.0,0.0,-3.9388,-3.9388,-3.9388,-3.9388,0.0,0.0,0.0,-3.9388,-4.0053,-4.0711,-4.1407,-4.2066,-4.2686,-4.329,-4.329,-4.329,-4.329,-4.329,-4.329,-4.329,-4.329,-4.329,-4.329,-4.329,-4.329,-4.329,-4.329,-4.329,-4.329,-4.329,-4.329,-4.329,-4.461,-4.4435,0.0,-4.391,0.0,0.0,-4.3988,-4.3988,0.0,-4.4382,-4.4232,0.0,-4.4249,-4.4194,-4.4065,-4.3871,-4.3949,0.0,-4.3729,0.0,0.0,-4.3329,-4.3423,-4.3463,-4.329,-4.329,0.0,-4.329,0.0,-4.329,-4.329,-4.329,-4.329,-4.329,-4.329,-4.329,-4.329,-4.329,-4.329,-4.329,-4.329,-4.329,0.0,-4.329,-4.329,-4.329,-4.329,-4.329,-4.329,-4.329,-4.329,-4.329,-4.329,-4.329,-4.329,-4.329,-4.329,-4.329,-4.329,-4.329,-4.329,-4.329,-4.329,-4.329,-4.329,-4.329,-4.3185,0.0,-4.2776,-4.2581,0.0,0.0,0.0,0.0,0.0,0.0,0.0,0.0,0.0,0.0,-3.9388,0.0,0.0,-3.9388,-3.9388,-3.9388,-3.9388,-3.9388,0.0,0.0,0.0,-3.9388,-4.0337,-4.101,-4.1422,-4.2312,-4.297,-4.329,-4.329,-4.329,-4.329,-4.329,-4.329,-4.329,-4.329,-4.329,-4.329,-4.329,-4.329,-4.329,-4.329,-4.329,-4.329,-4.329,-4.329,-4.329,-4.4511,-4.4419,0.0,0.0,0.0,0.0,0.0,-4.4248,0.0,-4.5096,0.0,-4.4482,-4.4685,-4.4525,-4.4269,-4.3946,0.0,-4.4089,-4.3907,-4.3907,-4.3767,-4.3424,-4.3424,-4.3379,-4.329,-4.329,0.0,0.0,0.0,-4.329,-4.329,-4.329,-4.329,-4.329,-4.329,0.0,0.0,-4.329,-4.329,-4.329,-4.329,-4.329,-4.329,-4.329,-4.329,-4.329,-4.329,-4.329,-4.329,-4.329,-4.329,-4.329,-4.329,-4.329,-4.329,-4.329,-4.329,-4.329,-4.329,-4.329,-4.329,-4.329,-4.329,-4.329,-4.329,-4.329,-4.329,-4.329,-4.329,-4.3125,0.0,0.0,0.0,0.0,0.0,0.0,0.0,0.0,0.0,0.0,0.0,0.0,0.0,0.0,-3.9388,-3.9388,-3.9388,0.0,0.0,0.0,0.0,-3.9544,-4.0741,-4.1452,-4.1542,-4.2731,-4.329,-4.329,-4.329,-4.329,-4.329,-4.329,-4.329,-4.329,-4.329,-4.329,-4.329,-4.329,-4.329,-4.329,-4.329,-4.329,-4.329,-4.329,-4.329,-4.329,-4.3871,0.0,0.0,0.0,0.0,-4.5343,-4.5394,-4.4725,-4.4303,-4.4464,-4.4839,-4.5154,-4.5192,-4.5143,-4.5124,-4.5042,-4.5042,0.0,0.0,0.0,0.0,-4.4167,-4.4137,-4.3883,-4.3305,-4.329,-4.329,0.0,0.0,-4.329,-4.329,-4.329,-4.329,-4.329,0.0,0.0,-4.329,-4.329,-4.329,-4.329,-4.329,-4.329,-4.329,-4.329,-4.329,-4.329,-4.329,-4.329,-4.329,-4.329,-4.329,-4.329,-4.329,-4.329,-4.329,-4.329,-4.329,-4.329,-4.329,-4.329,-4.329,-4.329,-4.329,-4.329,-4.329,-4.329,-4.329,-4.329,-4.329,-4.326,-4.314,0.0,0.0,0.0,0.0,0.0,0.0,0.0,0.0,0.0,0.0,-3.9388,0.0,0.0,0.0,0.0,0.0,0.0,0.0,0.0,0.0,0.0,-4.098,0.0,0.0,0.0,-4.329,-4.329,-4.329,-4.329,-4.329,-4.329,-4.329,-4.329,-4.329,-4.329,-4.329,-4.329,-4.329,-4.329,-4.329,-4.329,-4.329,-4.329,-4.329,-4.329,0.0,0.0,0.0,0.0,0.0,0.0,0.0,-4.5567,-4.5485,-4.5515,-4.547,-4.5548,-4.5783,-4.5582,-4.5413,-4.5289,-4.5289,-4.5289,-4.5289,-4.5289,-4.5155,-4.484,-4.4825,0.0,-4.3813,-4.3838,-4.3633,-4.329,0.0,-4.329,-4.329,-4.329,-4.329,-4.329,0.0,-4.329,0.0,-4.329,-4.329,-4.329,-4.329,-4.329,-4.329,-4.329,-4.329,-4.329,-4.329,-4.329,-4.329,-4.329,-4.329,-4.329,-4.329,-4.329,-4.329,-4.329,-4.329,-4.329,-4.329,-4.329,-4.329,-4.329,-4.329,-4.329,-4.329,-4.329,-4.329,-4.329,-4.329,-4.329,-4.329,-4.2806,0.0,0.0,0.0,0.0,0.0,0.0,0.0,0.0,0.0,0.0,0.0,0.0,0.0,0.0,0.0,-3.9388,-3.9388,0.0,-4.0068,0.0,0.0,0.0,-4.2396,0.0,-4.329,-4.329,-4.329,-4.329,-4.329,-4.329,-4.329,-4.329,-4.329,-4.329,-4.329,-4.329,-4.329,-4.329,-4.329,-4.329,-4.329,-4.329,-4.329,-4.329,0.0,-4.5684,0.0,0.0,-4.5981,-4.6086,-4.6045,-4.6467,-4.6738,-4.6575,-4.6214,-4.6085,-4.6471,-4.6164,-4.5917,-4.5723,-4.5723,-4.5723,-4.5723,-4.5723,-4.5663,-4.5529,-4.5514,-4.52,-4.4541,-4.4392,-4.4062,0.0,0.0,0.0,-4.329,-4.329,-4.329,-4.329,0.0,0.0,0.0,0.0,-4.329,-4.329,-4.329,-4.329,-4.329,-4.329,-4.329,-4.329,-4.329,-4.329,-4.329,-4.329,-4.329,-4.329,-4.329,-4.329,-4.329,-4.329,-4.329,-4.329,-4.329,-4.329,-4.329,-4.329,-4.329,-4.329,-4.329,-4.329,-4.329,-4.329,-4.329,-4.329,-4.329,-4.291,0.0,0.0,0.0,0.0,0.0,0.0,0.0,0.0,0.0,0.0,-3.9388,0.0,0.0,0.0,0.0,-3.9448,-3.9619,-4.0113,-4.0531,0.0,0.0,-4.247,-4.2605,0.0,-4.329,-4.329,-4.329,-4.329,-4.329,-4.329,-4.329,-4.329,-4.329,-4.329,-4.329,-4.329,-4.329,-4.329,-4.329,-4.329,-4.329,-4.329,-4.329,-4.329,0.0,0.0,0.0,0.0,0.0,-4.7357,-4.7158,-4.7332,-4.7237,-4.6439,-4.6785,-4.7145,-4.7204,-4.716,-4.7115,-4.7115,-4.7115,-4.7115,-4.7115,-4.7115,-4.6845,-4.6204,-4.619,-4.5903,-4.5214,-4.4616,-4.4287,0.0,0.0,-4.329,0.0,-4.329,-4.329,0.0,0.0,0.0,0.0,-4.329,-4.329,-4.329,-4.329,-4.329,-4.329,-4.329,-4.329,-4.329,-4.329,-4.329,-4.329,-4.329,-4.329,-4.329,-4.329,-4.329,-4.329,-4.329,-4.329,-4.329,-4.329,-4.329,-4.329,-4.329,-4.329,-4.329,-4.329,-4.329,-4.329,-4.329,-4.329,-4.329,-4.329,-4.3245,-4.32,0.0,0.0,0.0,0.0,0.0,0.0,0.0,0.0,0.0,0.0,-3.9388,0.0,0.0,-3.9388,-3.9679,-4.0277,-4.0367,-4.095,-4.2171,-4.2336,-4.2641,-4.32,-4.326,-4.329,-4.329,-4.329,-4.329,-4.329,-4.329,-4.329,-4.329,-4.329,-4.329,-4.329,-4.329,-4.329,-4.329,-4.329,-4.329,-4.329,-4.329,-4.329,-4.329,0.0,0.0,0.0,0.0,0.0,0.0,0.0,-4.8726,-4.8636,-4.8161,-4.7982,-4.7893,-4.7893,-4.8252,-4.8327,-4.7938,-4.7893,-4.7728,-4.7339,-4.7309,-4.7189,-4.692,-4.692,-4.6606,-4.5918,-4.5663,-4.5319,0.0,0.0,0.0,0.0,-4.3888,-4.3678,0.0,0.0,-4.329,-4.3319,-4.3708,-4.3888,-4.3958,-4.4347,-4.4511,-4.4511,-4.4511,-4.4511,-4.4511,-4.4511,-4.4511,-4.4451,-4.4062,-4.3618,-4.329,-4.329,-4.329,-4.329,-4.329,-4.329,-4.329,-4.329,-4.329,-4.329,-4.329,-4.329,-4.329,-4.329,-4.329,-4.329,-4.329,-4.329,-4.329,-4.329,-4.329,-4.329,-4.329,0.0,0.0,0.0,0.0,0.0,0.0,0.0,0.0,0.0,-4.0247,-4.0172,-4.0561,0.0,-3.9709,-4.0367,-4.0771,-4.1452,-4.2366,0.0,-4.3075,-4.329,-4.329,-4.329,-4.329,-4.329,-4.329,-4.329,-4.329,-4.329,-4.329,-4.329,-4.329,-4.329,-4.329,-4.329,-4.329,-4.329,-4.329,-4.329,-4.329,-4.329,-4.329,-4.7878,0.0,-4.8071,0.0,-4.8832,-4.8982,-4.9448,-4.9524,-4.9434,-4.9314,-4.903,-4.879,-4.8596,-4.903,-4.912,-4.8626,-4.8581,-4.8297,-4.7638,-4.7593,-4.7504,-4.7309,-4.7309,0.0,-4.6621,-4.6384,-4.6082,-4.5589,-4.5394,0.0,0.0,0.0,0.0,0.0,-4.3873,-4.3873,-4.3902,-4.4407,-4.4601,-4.4646,-4.511,-4.5289,-4.5289,-4.5289,-4.5289,-4.5289,-4.5289,-4.5289,-4.5229,-4.4751,-4.4287,-4.3798,-4.3409,-4.329,-4.329,-4.329,-4.329,-4.329,-4.329,-4.329,-4.329,-4.329,-4.329,-4.329,-4.329,-4.329,-4.329,-4.329,-4.329,-4.329,-4.329,-4.329,-4.329,-4.329,0.0,0.0,0.0,0.0,0.0,0.0,-4.1542,-4.1422,-4.1422,-4.0965,-4.0876,0.0,0.0,-4.0277,-4.0935,-4.1452,0.0,0.0,0.0,0.0,-4.329,-4.329,-4.329,-4.329,-4.329,-4.329,-4.329,-4.329,-4.329,-4.329,-4.329,-4.329,-4.329,-4.329,-4.329,-4.329,-4.329,-4.329,-4.329,-4.329,-4.329,-4.329,-4.9284,-4.9284,-4.9284,-4.9299,-4.9299,-4.9299,-4.9314,-4.9314,-4.9314,-4.9314,-4.9823,-4.9972,-4.9374,-4.9314,-4.9314,-4.9299,-4.9299,-4.9015,-4.8312,-4.8282,-4.7982,0.0,0.0,-4.7309,-4.7294,-4.6651,-4.6279,-4.6264,0.0,0.0,-4.5289,0.0,-4.5274,-4.5274,-4.5274,-4.5274,-4.5274,-4.5274,-4.5289,-4.5289,-4.5289,-4.5289,-4.5289,-4.5289,-4.5289,-4.5289,-4.5289,-4.5289,-4.5289,-4.5289,-4.5274,-4.505,-4.3708,-4.329,-4.329,-4.329,-4.329,-4.329,-4.329,-4.329,-4.329,-4.329,-4.329,-4.329,-4.329,-4.329,-4.329,-4.329,-4.329,-4.329,-4.329,-4.329,-4.329,-4.329,0.0,0.0,0.0,0.0,0.0,0.0,-4.1811,-4.1422,-4.1422,-4.1407,0.0,0.0,0.0,0.0,0.0,0.0,0.0,-4.326,-4.329,0.0,-4.329,-4.329,-4.329,-4.329,-4.329,-4.329,-4.329,-4.329,-4.329,-4.329,-4.329,-4.329,-4.329,-4.329,-4.329,-4.329,-4.329,-4.329,-4.329,-4.329,-4.329,-4.329,-4.9314,-4.9314,-4.9449,-4.9853,-4.9927,-5.0077,-5.0526,-5.0601,-5.0601,-5.0601,-5.078,-5.0825,-5.0616,-5.0601,-5.0421,0.0,-4.9927,-4.9658,0.0,-4.9,-4.8656,-4.7997,-4.7982,-4.7758,-4.7309,-4.71,-4.6995,-4.6995,0.0,0.0,0.0,-4.5514,-4.5289,-4.5289,-4.5289,-4.5289,-4.5334,-4.5798,-4.5992,-4.6037,-4.6486,-4.6666,-4.6666,-4.6666,-4.6666,-4.6666,-4.6666,-4.6666,-4.6591,-4.6157,-4.5992,-4.5843,-4.4945,-4.4362,-4.3962,-4.3962,-4.3648,-4.329,-4.329,-4.329,-4.329,-4.329,-4.329,-4.329,-4.329,-4.329,-4.329,-4.329,-4.329,-4.329,-4.329,-4.329,-4.329,-4.329,-4.329,0.0,0.0,0.0,0.0,0.0,-4.2836,-4.2716,-4.2716,-4.2312,0.0,0.0,0.0,0.0,0.0,0.0,0.0,0.0,-4.329,0.0,-4.329,-4.329,-4.329,-4.329,-4.329,-4.329,-4.329,-4.329,-4.329,-4.329,-4.329,-4.329,-4.329,-4.329,-4.329,-4.329,-4.329,-4.329,-4.329,-4.329,-4.329,-4.329,-5.0002,-5.0002,-5.0122,-5.048,-5.0569,-5.0704,-5.1154,-5.1214,-5.1214,-5.1214,-5.1214,-5.1214,-5.1214,-5.1214,0.0,-5.0599,-5.0569,-5.0331,-4.9673,-4.9628,-4.9344,-4.8686,-4.8416,-4.8087,-4.7683,-4.7429,0.0,-4.7309,-4.7309,-4.71,-4.6681,-4.6247,-4.6052,-4.6052,-4.6052,-4.6052,-4.6082,-4.6516,-4.6696,-4.6726,-4.7145,-4.7309,-4.7309,-4.7309,-4.7309,-4.7309,-4.7309,-4.7309,-4.7249,-4.683,-4.6696,-4.6621,-4.6187,-4.5603,-4.502,-4.4766,-4.4212,-4.3663,-4.3663,-4.3484,-4.329,-4.329,-4.329,-4.329,-4.329,-4.329,-4.329,-4.329,-4.329,-4.329,-4.329,-4.329,-4.329,-4.329,-4.329,-4.329,-4.329,0.0,0.0,0.0,0.0,0.0,0.0,-4.297,-4.2895,0.0,0.0,0.0,0.0,0.0,0.0,-4.329,-4.329,-4.329,-4.329,-4.329,-4.329,-4.329,-4.329,-4.329,-4.329,-4.329,-4.329,-4.329,-4.329,-4.329,-4.329,-4.329,-4.329,-4.329,-4.329,-4.329,-4.329,-4.329,-4.329,-4.329,-5.1214,-5.1214,-5.1214,-5.1214,-5.1214,-5.1214,-5.1214,-5.1214,-5.1214,-5.1214,-5.1214,-5.1214,-5.1214,-5.1214,-5.1214,-5.1214,0.0,0.0,-5.03,-5.0255,-5.0017,-4.9404,-4.8745,-4.8371,-4.8282,-4.7683,-4.7354,-4.7309,-4.7309,-4.7309,-4.7309,-4.7309,-4.7309,-4.7309,-4.7309,-4.7309,-4.7309,-4.7309,-4.7309,-4.7309,-4.7309,-4.7309,-4.7309,-4.7309,-4.7309,-4.7309,-4.7309,-4.7309,-4.7309,-4.7309,-4.7309,-4.7309,-4.7309,-4.689,-4.6262,-4.5574,-4.49,-4.4392,-4.4392,-4.3898,-4.3364,-4.3364,-4.3319,-4.329,-4.329,-4.329,-4.329,-4.329,-4.329,-4.329,-4.329,-4.329,-4.329,-4.329,-4.329,-4.329,-4.329,0.0,0.0,0.0,0.0,0.0,-4.329,-4.329,-4.329,0.0,0.0,0.0,0.0,0.0,-4.329,-4.329,-4.329,-4.329,-4.329,-4.329,-4.329,-4.329,-4.329,-4.329,-4.329,-4.329,-4.329,-4.329,-4.329,-4.329,-4.329,-4.329,-4.329,-4.329,-4.329,-4.329,-4.329,-4.329,-4.329,-4.329,0.0,0.0,-5.1214,-5.1214,-5.1214,-5.1214,-5.1214,-5.1214,-5.1214,-5.1214,-5.1214,-5.1214,-5.1214,-5.1214,-5.1214,-5.1214,-5.1214,-5.1154,-5.0943,-5.0943,-5.069,-5.0032,-4.9807,-4.9314,-4.8312,-4.8132,-4.7803,-4.7309,-4.7309,-4.7309,-4.7309,-4.7309,-4.7309,-4.7309,-4.7309,-4.7309,-4.7309,-4.7309,-4.7309,-4.7309,-4.7309,-4.7309,-4.7309,-4.7309,-4.7309,-4.7309,-4.7309,-4.7309,-4.7309,-4.7309,-4.7309,-4.7309,-4.7309,-4.7189,-4.6935,-4.6277,-4.5603,-4.5065,-4.5065,-4.4586,-4.4077,-4.4077,-4.3663,-4.329,-4.329,-4.329,-4.329,-4.329,-4.329,-4.329,-4.329,-4.329,-4.329,-4.329,-4.329,-4.329,-4.329,-4.329,0.0,0.0,-4.329,-4.329,-4.329,-4.329,-4.329,0.0,0.0,0.0,-4.329,-4.329,-4.329,-4.329,-4.329,-4.329,-4.329,-4.329,-4.329,-4.329,-4.329,-4.329,-4.329,-4.329,-4.329,-4.329,-4.329,-4.329,-4.329,-4.329,-4.329,-4.329,-4.329,-4.329,-4.329,-4.329,-4.329,-4.329,-5.1214,-5.1214,-5.1214,-5.1214,-5.1214,-5.1214,-5.1214,-5.1214,-5.1214,-5.1214,-5.1214,-5.1214,-5.1214,-5.1214,-5.1214,-5.1214,-5.1214,-5.1214,-5.1214,-5.1214,-5.1065,-5.0659,-5.0345,-4.9867,-4.9194,-4.8895,-4.8416,-4.7758,-4.7459,-4.7309,-4.7309,-4.7309,-4.7309,-4.7309,-4.7309,-4.7309,-4.7309,-4.7309,-4.7309,-4.7309,-4.7309,-4.7309,-4.7309,-4.7309,-4.7309,-4.7309,-4.7309,-4.7309,-4.7309,-4.7309,-4.7309,-4.7309,-4.7309,-4.7309,-4.7234,-4.6875,-4.6292,-4.5768,-4.5768,-4.5274,-4.4691,-4.4392,-4.3783,-4.329,-4.329,-4.329,-4.329,-4.329,-4.329,-4.329,-4.329,-4.329,-4.329,-4.329,-4.329,-4.329,-4.329,-4.329,-4.329,-4.329,-4.329,-4.329,-4.329,-4.329,-4.329,-4.329,-4.329,0.0,-4.329,-4.329,-4.329,-4.329,-4.329,-4.329,-4.329,-4.329,-4.329,-4.329,-4.329,-4.329,-4.329,-4.329,-4.329,-4.329,-4.329,-4.329,-4.329,-4.329,-4.329,-4.329,-4.329,-4.329,-4.329,-4.329,-4.329,-4.329,-5.1214,-5.1214,-5.1214,-5.1214,-5.1214,-5.1214,-5.1214,-5.1214,-5.1214,-5.1214,-5.1214,-5.1214,-5.1214,-5.1214,-5.1214,-5.1214,-5.1214,-5.1214,-5.1214,-5.1214,-5.1214,-5.1214,-5.0629,-5.0285,-5.0196,-4.9598,-4.9045,-4.8431,-4.7878,-4.7593,-4.7593,-4.7504,-4.7459,-4.7459,-4.7354,-4.7309,-4.7309,-4.7309,-4.7309,-4.7309,-4.7309,-4.7309,-4.7309,-4.7309,-4.7309,-4.7309,-4.7309,-4.7309,-4.7309,-4.7309,-4.7309,-4.7309,-4.7309,-4.7309,-4.7309,-4.7309,-4.692,-4.6429,-4.6429,-4.5978,-4.5289,-4.4631,-4.3932,-4.3439,-4.3439,-4.3364,-4.329,-4.329,-4.329,-4.329,-4.329,-4.329,-4.329,-4.329,-4.329,-4.329,-4.329,0.0,-4.329,-4.329,-4.329,-4.329,-4.329,-4.329,-4.329,-4.329,-4.329,-4.329,-4.329,-4.329,-4.329,-4.329,-4.329,-4.329,-4.329,-4.329,-4.329,-4.329,-4.329,-4.329,-4.329,-4.329,-4.329,-4.329,-4.329,-4.329,-4.329,-4.329,-4.329,-4.329,-4.325,-4.325,-4.329,-4.325,-4.325,-4.329,-5.1214,-5.1214,-5.1214,-5.1214,-5.1214,-5.1214,-5.1214,-5.1214,-5.1214,-5.1214,-5.1214,-5.1214,-5.1214,-5.1214,-5.1214,-5.1214,-5.1214,-5.1214,-5.1214,-5.1214,-5.1214,-5.1214,-5.1124,-5.0764,-5.0196,-4.9598,-4.9269,-4.9164,-4.906,-4.9,-4.9,-4.8401,-4.8132,-4.8117,-4.7549,-4.7309,-4.7309,-4.7309,-4.7309,-4.7309,-4.7309,-4.7309,-4.7309,-4.7309,-4.7309,-4.7309,-4.7309,-4.7309,-4.7309,-4.7309,-4.7309,-4.7309,-4.7309,-4.7309,-4.7309,-4.7309,-4.7234,-4.716,-4.716,-4.6681,-4.5992,-4.5304,-4.4646,-4.4127,-4.4127,-4.3693,-4.329,-4.329,-4.329,-4.329,-4.329,-4.329,-4.329,-4.329,-4.329,-4.329,-4.329,0.0,-4.329,-4.329,-4.329,-4.329,-4.329,-4.329,-4.329,-4.329,-4.329,-4.329,-4.329,-4.329,-4.329,-4.329,-4.329,-4.329,-4.329,-4.329,-4.329,-4.329,-4.329,-4.329,-4.329,-4.329,-4.329,-4.329,-4.329,-4.329,-4.329,-4.329,-4.329,-4.329,-4.3115,-4.3155,-4.329,-4.3115,-4.3155,-4.329,-5.2276,-5.2276,-5.2276,-5.2276,-5.2276,-5.2276,-5.2276,-5.1977,-5.1753,-5.1753,-5.1439,-5.1214,-5.1214,-5.1214,-5.1214,-5.1214,-5.1214,-5.1214,-5.1214,-5.1214,-5.1214,-5.1214,-5.1214,-5.1079,-5.0734,-5.0122,-4.9778,-4.9778,-4.9434,-4.9314,-4.9299,-4.9,-4.8865,-4.885,-4.8506,-4.8356,-4.8356,-4.8356,-4.8356,-4.8356,-4.8356,-4.8356,-4.8356,-4.8356,-4.8132,-4.7833,-4.7833,-4.7608,-4.7309,-4.7309,-4.7309,-4.7309,-4.7309,-4.7309,-4.7309,-4.7309,-4.7309,-4.7309,-4.7309,-4.683,-4.6247,-4.5933,-4.5334,-4.484,-4.484,-4.4601,-4.4287,-4.3888,-4.3828,-4.3708,-4.3364,-4.329,-4.329,-4.329,-4.329,0.0,-4.329,-4.329,-4.329,-4.329,-4.329,-4.329,-4.329,-4.329,-4.329,-4.329,-4.329,-4.329,-4.329,-4.329,-4.329,-4.329,-4.329,-4.329,-4.329,-4.329,-4.329,-4.329,-4.329,-4.329,-4.329,-4.321,-4.321,-4.329,-4.305,-4.305,-4.3115,-4.301,-4.297,-4.297,-4.2875,-4.289,-4.297,-4.2875,-4.297,-4.3155,-5.3174,-5.3174,-5.3174,-5.3174,-5.3174,-5.3174,-5.3174,-5.2755,-5.2426,-5.2426,-5.1858,-5.1454,-5.1454,-5.1304,-5.1214,-5.1214,-5.1214,-5.1214,-5.1214,-5.1214,-5.1214,-5.1214,-5.1214,-5.1214,-5.1214,-5.0689,-5.042,-5.042,-4.9972,-4.9718,-4.9763,-4.9568,-4.9494,-4.9479,-4.9374,-4.9314,-4.9314,-4.9314,-4.9314,-4.9314,-4.9314,-4.9314,-4.9314,-4.9314,-4.9,-4.8521,-4.8521,-4.8192,-4.7758,-4.7758,-4.7653,-4.7534,-4.7534,-4.7429,-4.7309,-4.7309,-4.7309,-4.7309,-4.7309,-4.6935,-4.6503,-4.6503,-4.6037,-4.5529,-4.5529,-4.5409,-4.5155,-4.4646,-4.4541,-4.4347,-4.3648,-4.3529,-4.3469,-4.3319,0.0,-4.329,-4.329,-4.329,-4.329,-4.329,-4.329,-4.329,-4.329,-4.329,-4.329,-4.329,-4.329,-4.329,-4.329,-4.325,-4.321,-4.317,-4.325,-4.329,-4.329,-4.329,-4.329,-4.329,-4.325,-4.325,-4.321,-4.3036,-4.2996,-4.313,-4.285,-4.2809,-4.2915,-4.2769,-4.2688,-4.2688,-4.2688,-4.2729,-4.2769,-4.2769,-4.289,-4.3076,-5.3174,-5.3174,-5.3174,-5.3174,-5.3174,-5.3174,-5.3174,-5.3144,-5.3114,-5.3114,-5.2531,-5.2127,-5.2127,-5.1588,-5.1214,-5.1214,-5.1214,-5.1214,-5.1214,-5.1214,-5.1214,-5.1214,-5.1214,-5.1214,-5.1214,-5.1169,-5.1154,-5.1154,-5.1094,-5.1079,-5.1065,-5.0405,-5.0121,-5.0091,-4.9538,-4.9314,-4.9314,-4.9314,-4.9314,-4.9314,-4.9314,-4.9314,-4.9314,-4.9314,-4.9284,-4.9239,-4.9239,-4.9209,-4.9164,-4.9164,-4.876,-4.8222,-4.8222,-4.7803,-4.7309,-4.7309,-4.7309,-4.7309,-4.7309,-4.7264,-4.7234,-4.7234,-4.6741,-4.6247,-4.6247,-4.5753,-4.5289,-4.5229,-4.5229,-4.502,-4.4362,-4.4242,-4.4007,-4.3394,0.0,0.0,-4.329,-4.329,-4.329,-4.329,-4.329,-4.329,-4.329,-4.329,-4.329,-4.329,-4.329,-4.329,-4.329,-4.3115,-4.2955,-4.2729,-4.309,-4.329,-4.329,-4.329,-4.329,-4.329,-4.3115,-4.3036,-4.3036,-4.2795,-4.2729,-4.2729,-4.2729,-4.2688,-4.2729,-4.2688,-4.2688,-4.2688,-4.2688,-4.2795,-4.2996,-4.2996,-4.3115,-4.329,-5.4431,-5.4431,-5.4431,-5.4431,-5.4431,-5.4431,-5.4431,-5.4087,-5.3817,-5.3817,-5.3234,-5.265,-5.2247,-5.1977,-5.1663,-5.1259,-5.1214,-5.1214,-5.1214,-5.1214,-5.1214,-5.1214,-5.1214,-5.1214,-5.1214,-5.1214,-5.1214,-5.1214,-5.1214,-5.1214,-5.1214,-5.096,-5.0808,-5.0794,-5.0586,-5.0481,-5.0481,-5.0481,-5.0481,-5.0481,-5.0481,-5.0481,-5.0481,-5.0481,-5.0227,-4.9868,-4.9868,-4.9613,-4.9314,-4.9314,-4.9149,-4.894,-4.894,-4.8775,-4.8446,-4.8027,-4.7623,-4.7309,-4.7309,-4.7309,-4.7309,-4.7309,-4.7115,-4.6935,-4.6935,-4.6726,-4.6426,-4.6022,-4.5933,-4.5723,-4.505,-4.493,-4.484,-4.4586,0.0,-4.3902,-4.3902,-4.3544,-4.329,-4.329,-4.329,-4.329,-4.329,-4.329,-4.329,-4.329,-4.329,-4.329,-4.329,-4.3115,-4.2915,-4.2688,-4.285,-4.293,-4.293,-4.293,-4.293,-4.293,-4.285,-4.2795,-4.2809,-4.2622,-4.2581,-4.2688,-4.2433,-4.2392,-4.25,-4.2392,-4.2325,-4.2366,-4.2474,-4.2541,-4.2622,-4.2622,-4.2769,-4.289,-5.5194,-5.5194,-5.5194,-5.5194,-5.5194,-5.5194,-5.5194,-5.4805,-5.4521,-5.4521,-5.3922,-5.3324,-5.2875,-5.2456,-5.2007,-5.1558,-5.1334,-5.1214,-5.1214,-5.1214,-5.1214,-5.1214,-5.1214,-5.1214,-5.1214,-5.1214,-5.1214,-5.1214,-5.1214,-5.1214,-5.1214,-5.1214,-5.1214,-5.1214,-5.1214,-5.1214,-5.1214,-5.1214,-5.1214,-5.1214,-5.1214,-5.1214,-5.1214,-5.1214,-5.0883,-5.0495,-5.0495,-5.0257,-4.9883,-4.9883,-4.9748,-4.9568,-4.9568,-4.9434,-4.9224,-4.8775,-4.8282,-4.7878,-4.7668,-4.7608,-4.7563,-4.7354,-4.7309,-4.7309,-4.7309,-4.7309,-4.7174,-4.6726,-4.6636,-4.6426,-4.5738,-4.5618,-4.5544,-4.5334,-4.4915,-4.4616,-4.4616,-4.4227,-4.3943,-4.3943,-4.3943,-4.3943,-4.3943,-4.3943,-4.3943,-4.3943,-4.3943,-4.3862,-4.37,-4.3564,-4.3401,-4.3225,-4.3143,-4.3143,-4.3225,-4.2854,-4.2688,-4.2688,-4.2622,-4.2622,-4.2622,-4.2392,-4.2392,-4.2514,-4.2201,-4.2175,-4.2284,-4.2175,-4.2092,-4.2133,-4.231,-4.2392,-4.2392,-4.2474,-4.2581,-4.2688,-5.5194,-5.5194,-5.5194,-5.5194,-5.5194,-5.5194,-5.5194,-5.5194,-5.5194,-5.5194,-5.4625,-5.4221,-5.4206,-5.301,-5.2217,-5.2217,-5.1603,-5.1229,-5.1214,-5.1214,-5.1214,-5.1214,-5.1214,-5.1214,-5.1214,-5.1214,-5.1214,-5.1214,-5.1214,-5.1214,-5.1214,-5.1214,-5.1214,-5.1214,-5.1214,-5.1214,-5.1214,-5.1214,-5.1214,-5.1214,-5.1214,-5.1214,-5.1214,-5.1214,-5.1214,-5.1214,-5.1214,-5.1214,-5.1214,-5.1214,-5.0749,-5.0196,-5.0196,-4.9793,-4.9329,-4.9329,-4.9314,-4.9164,-4.8476,-4.8297,-4.8132,-4.7474,-4.7309,-4.7309,-4.7309,-4.7309,-4.7309,-4.7309,-4.7309,-4.7115,-4.6456,-4.6294,-4.6112,-4.5424,-4.5304,-4.5304,-4.5304,-4.5289,-4.5289,-4.5289,-4.5289,-4.5289,-4.5289,-4.5289,-4.5289,-4.5289,-4.5289,-4.5081,-4.4619,-4.4619,-4.4492,-4.4294,-4.4108,-4.4108,-4.4308,-4.3228,-4.2703,-4.2703,-4.2529,-4.2407,-4.2421,-4.223,-4.2107,-4.2107,-4.2107,-4.2107,-4.2107,-4.2107,-4.2107,-4.2148,-4.2339,-4.2407,-4.2447,-4.2637,-4.2703,-4.2703,-5.5194,-5.5194,-5.5194,-5.5194,-5.5194,-5.5194,-5.5194,-5.5194,-5.5194,-5.5194,-5.5029,-5.4715,-5.4266,-5.3847,-5.3414,-5.2935,-5.2291,-5.1708,-5.1244,-5.1214,-5.1214,-5.1214,-5.1214,-5.1214,-5.1214,-5.1214,-5.1214,-5.1214,-5.1214,-5.1214,-5.1214,-5.1214,-5.1214,-5.1214,-5.1214,-5.1214,-5.1214,-5.1214,-5.1214,-5.1214,-5.1214,-5.1214,-5.1214,-5.1214,-5.1214,-5.1214,-5.1214,-5.1214,-5.1214,-5.1214,-5.1094,-5.0883,-5.0883,-5.0481,-4.9942,-4.9942,-4.9628,-4.9269,-4.9075,-4.9015,-4.8745,-4.7578,-4.7309,-4.7309,-4.7309,-4.7309,-4.7309,-4.7309,-4.7309,-4.7249,-4.7055,-4.701,-4.695,-4.6741,-4.6322,-4.6022,-4.6022,-4.5603,-4.5289,-4.5289,-4.5289,-4.5289,-4.5289,-4.5289,-4.5289,-4.5289,-4.5289,-4.5081,-4.4619,-4.4619,-4.4464,-4.4108,-4.4037,-4.4037,-4.4108,-4.3772,-4.3611,-4.3625,-4.3541,-4.3541,-4.3498,-4.347,-4.3427,-4.3427,-4.3427,-4.3427,-4.3427,-4.3427,-4.3427,-4.347,-4.3653,-4.3723,-4.3738,-4.3807,-4.3807,-4.3807,-5.5194,-5.5194,-5.5194,-5.5194,-5.5194,-5.5194,-5.5194,-5.5194,-5.5194,-5.5194,-5.5194,-5.5044,-5.464,-5.4371,-5.4042,-5.3623,-5.298,-5.2306,-5.1648,-5.1618,-5.1498,-5.1229,-5.1214,-5.1214,-5.1214,-5.1214,-5.1214,-5.1214,-5.1214,-5.1214,-5.1214,-5.1214,-5.1214,-5.1214,-5.1214,-5.1214,-5.1214,-5.1214,-5.1214,-5.1214,-5.1214,-5.1214,-5.1214,-5.1214,-5.1214,-5.1214,-5.1214,-5.1214,-5.1214,-5.1214,-5.1214,-5.1214,-5.1214,-5.0898,-5.0584,-5.0584,-5.0346,-4.9987,-4.9718,-4.9658,-4.9389,-4.8341,-4.7878,-4.7698,-4.7698,-4.7489,-4.7309,-4.7309,-4.7309,-4.7309,-4.7309,-4.7309,-4.7309,-4.7309,-4.698,-4.6711,-4.6711,-4.6352,-4.6082,-4.6082,-4.6082,-4.604,-4.5941,-4.5941,-4.5913,-4.5828,-4.5828,-4.5658,-4.5256,-4.5213,-4.5141,-4.4894,-4.4778,-4.4778,-4.4865,-4.4778,-4.4487,-4.3993,-4.3993,-4.3993,-4.3993,-4.3993,-4.3993,-4.3993,-4.3993,-4.3993,-4.3993,-4.3993,-4.3993,-4.4037,-4.4151,-4.4194,-4.4194,-4.4194,-4.4194,-4.4137,-5.5194,-5.5194,-5.5194,-5.5194,-5.5194,-5.5194,-5.5194,-5.5194,-5.5194,-5.5194,-5.5194,-5.5194,-5.5194,-5.4655,-5.4296,-5.4296,-5.3668,-5.2995,-5.2336,-5.2291,-5.2022,-5.1424,-5.1334,-5.1304,-5.1304,-5.1244,-5.1214,-5.1214,-5.1214,-5.1214,-5.1214,-5.1214,-5.1214,-5.1214,-5.1214,-5.1214,-5.1214,-5.1214,-5.1214,-5.1214,-5.1214,-5.1214,-5.1214,-5.1214,-5.1214,-5.1214,-5.1214,-5.1214,-5.1214,-5.1214,-5.1214,-5.1214,-5.1214,-5.1214,-5.1214,-5.1214,-5.1214,-5.1094,-5.045,-5.0285,-5.0136,-4.9598,-4.8955,-4.8446,-4.8386,-4.7908,-4.7474,-4.7474,-4.7429,-4.7399,-4.7399,-4.7339,-4.7309,-4.7309,-4.7309,-4.7309,-4.7309,-4.7309,-4.7309,-4.7309,-4.7309,-4.7207,-4.6975,-4.6916,-4.68,-4.6639,-4.6594,-4.6491,-4.621,-4.621,-4.621,-4.6165,-4.6015,-4.6015,-4.6165,-4.6015,-4.53,-4.4153,-4.4153,-4.4153,-4.4153,-4.4153,-4.4153,-4.4153,-4.4153,-4.4153,-4.4153,-4.4153,-4.4153,-4.4153,-4.4153,-4.4153,-4.4153,-4.4153,-4.4153,-4.4153,-5.5194,-5.5194,-5.5194,-5.5194,-5.5194,-5.5194,-5.5194,-5.5194,-5.5194,-5.5194,-5.5194,-5.5194,-5.5194,-5.5059,-5.4985,-5.4985,-5.4371,-5.3698,-5.301,-5.2965,-5.2905,-5.2755,-5.2261,-5.1992,-5.1992,-5.1483,-5.1214,-5.1214,-5.1214,-5.1214,-5.1214,-5.1214,-5.1214,-5.1214,-5.1214,-5.1214,-5.1214,-5.1214,-5.1214,-5.1214,-5.1214,-5.1214,-5.1214,-5.1214,-5.1214,-5.1214,-5.1214,-5.1214,-5.1214,-5.1214,-5.1214,-5.1214,-5.1214,-5.1214,-5.1214,-5.1214,-5.1214,-5.1184,-5.1003,-5.0958,-5.0928,-5.0825,-5.0301,-4.9673,-4.9164,-4.8985,-4.888,-4.888,-4.8431,-4.8072,-4.8072,-4.7653,-4.7309,-4.7309,-4.7309,-4.7309,-4.7309,-4.7309,-4.7309,-4.7309,-4.7309,-4.7266,-4.7207,-4.7019,-4.68,-4.6639,-4.6594,-4.6491,-4.621,-4.621,-4.6135,-4.597,-4.5925,-4.5925,-4.597,-4.5925,-4.575,-4.5474,-4.5474,-4.5474,-4.5474,-4.5474,-4.5474,-4.5474,-4.5474,-4.5474,-4.5474,-4.5474,-4.5474,-4.5474,-4.5474,-4.5474,-4.5474,-4.5474,-4.5474,-4.5474,-5.5194,-5.5194,-5.5194,-5.5194,-5.5194,-5.5194,-5.5194,-5.5194,-5.5194,-5.5194,-5.5194,-5.5194,-5.5194,-5.5194,-5.5194,-5.5194,-5.488,-5.4386,-5.3713,-5.3668,-5.3518,-5.3189,-5.2845,-5.2665,-5.2665,-5.2336,-5.1843,-5.1214,-5.1214,-5.1214,-5.1214,-5.1214,-5.1214,-5.1214,-5.1214,-5.1214,-5.1214,-5.1214,-5.1214,-5.1214,-5.1214,-5.1214,-5.1214,-5.1214,-5.1214,-5.1214,-5.1214,-5.1214,-5.1214,-5.1214,-5.1214,-5.1214,-5.1214,-5.1214,-5.1214,-5.1214,-5.1214,-5.1214,-5.1214,-5.1214,-5.1214,-5.1214,-5.096,-5.048,-4.9883,-4.9494,-4.9314,-4.9314,-4.9045,-4.8805,-4.8805,-4.8476,-4.8132,-4.7818,-4.7773,-4.7668,-4.7354,-4.7309,-4.7309,-4.7309,-4.7309,-4.7251,-4.7121,-4.6887,-4.6712,-4.6594,-4.6491,-4.6358,-4.621,-4.609,-4.6015,-4.588,-4.588,-4.588,-4.588,-4.588,-4.588,-4.588,-4.588,-4.588,-4.588,-4.588,-4.588,-4.588,-4.588,-4.588,-4.588,-4.588,-4.588,-4.588,-4.588,-4.588,-4.588,-4.588,-4.588,-4.588,-5.5194,-5.5194,-5.5194,-5.5194,-5.5194,-5.5194,-5.5194,-5.5194,-5.5194,-5.5194,-5.5194,-5.5194,-5.5194,-5.5194,-5.5194,-5.5194,-5.5194,-5.4955,-5.4416,-5.4386,-5.4117,-5.3548,-5.3414,-5.3354,-5.3354,-5.3234,-5.265,-5.1558,-5.1558,-5.1498,-5.1394,-5.1394,-5.1334,-5.1214,-5.1214,-5.1214,-5.1214,-5.1214,-5.1214,-5.1214,-5.1214,-5.1214,-5.1214,-5.1214,-5.1214,-5.1214,-5.1214,-5.1214,-5.1214,-5.1214,-5.1214,-5.1214,-5.1214,-5.1214,-5.1214,-5.1214,-5.1214,-5.1214,-5.1214,-5.1214,-5.1214,-5.1214,-5.1214,-5.1065,-5.048,-4.9987,-4.9644,-4.9644,-4.9508,-4.9434,-4.9434,-4.9389,-4.9134,-4.8536,-4.8461,-4.8267,-4.7713,-4.7638,-4.7593,-4.7489,-4.7369,-4.7207,-4.6931,-4.6756,-4.6639,-4.6594,-4.6403,-4.6254,-4.621,-4.6046,-4.5925,-4.588,-4.588,-4.588,-4.588,-4.588,-4.588,-4.588,-4.588,-4.588,-4.588,-4.588,-4.588,-4.588,-4.588,-4.588,-4.588,-4.588,-4.588,-4.588,-4.588,-4.588,-4.588,-4.588,-4.588,-4.588,-5.5194,-5.5194,-5.5194,-5.5194,-5.5194,-5.5194,-5.5194,-5.5194,-5.5194,-5.5194,-5.5194,-5.5194,-5.5194,-5.5194,-5.5194,-5.5194,-5.5194,-5.5149,-5.5059,-5.5059,-5.5014,-5.4925,-5.4371,-5.4072,-5.4072,-5.3488,-5.3099,-5.292,-5.292,-5.2621,-5.2067,-5.2067,-5.1768,-5.1214,-5.1214,-5.1214,-5.1214,-5.1214,-5.1214,-5.1214,-5.1214,-5.1214,-5.1214,-5.1214,-5.1214,-5.1214,-5.1214,-5.1214,-5.1214,-5.1214,-5.1214,-5.1214,-5.1214,-5.1214,-5.1214,-5.1214,-5.1214,-5.1214,-5.1214,-5.1214,-5.1214,-5.1214,-5.1214,-5.1199,-5.1109,-5.102,-5.096,-5.096,-5.0496,-5.0061,-5.0061,-4.9643,-4.9284,-4.9194,-4.9179,-4.9149,-4.906,-4.9045,-4.8835,-4.8222,-4.7653,-4.7207,-4.6931,-4.6887,-4.68,-4.6594,-4.655,-4.6447,-4.621,-4.6165,-4.609,-4.5925,-4.588,-4.588,-4.588,-4.588,-4.588,-4.588,-4.588,-4.588,-4.588,-4.588,-4.588,-4.588,-4.588,-4.588,-4.588,-4.588,-4.588,-4.588,-4.588,-4.588,-4.588,-4.588,-4.588,-4.588,-5.5194,-5.5194,-5.5194,-5.5194,-5.5194,-5.5194,-5.5194,-5.5194,-5.5194,-5.5194,-5.5194,-5.5194,-5.5194,-5.5194,-5.5194,-5.5194,-5.5194,-5.5194,-5.5194,-5.5194,-5.5194,-5.5194,-5.491,-5.476,-5.476,-5.4461,-5.4311,-5.4311,-5.3548,-5.3039,-5.2755,-5.2755,-5.2591,-5.2321,-5.2321,-5.2321,-5.2321,-5.2321,-5.2321,-5.2321,-5.2321,-5.2321,-5.2321,-5.2321,-5.2321,-5.2321,-5.2321,-5.2321,-5.2321,-5.2321,-5.2321,-5.2321,-5.2321,-5.2321,-5.2321,-5.2321,-5.2052,-5.1768,-5.1768,-5.1498,-5.1214,-5.1214,-5.1214,-5.1214,-5.1214,-5.1214,-5.1214,-5.1214,-5.0943,-5.0749,-5.0749,-5.0556,-5.0242,-4.9868,-4.9808,-4.9688,-4.9359,-4.9314,-4.9209,-4.8865,-4.8581,-4.8313,-4.803,-4.7689,-4.7377,-4.7125,-4.6653,-4.6314,-4.621,-4.609,-4.6015,-4.588,-4.588,-4.588,-4.588,-4.588,-4.588,-4.588,-4.588,-4.588,-4.588,-4.588,-4.588,-4.588,-4.588,-4.588,-4.588,-4.588,-4.588,-4.588,-4.588,-4.588,-4.588,-4.588,-4.588,-4.588]},{"header":{"parameterUnit":"m.s-1","parameterCategory":1,"la1":30.6,"la2":28.766,"lo1":-90.7593,"lo2":-88.6598,"dy":0.0162,"dx":0.0183,"nx":116,"ny":114,"refTime":"2024-04-27T06:00:00:Z","depth":0,"parameterNumber":3,"parameterNumberName":"V-component_of_WINDS"},"data":[0.0,0.0,0.0,0.0,0.0,0.0,0.0,0.0,0.0,0.0,0.0,0.0,0.0,0.0,0.0,0.0,0.0,0.0,0.0,0.0,0.0,0.0,0.0,0.0,0.0,0.0,0.0,0.0,0.0,0.0,0.0,0.0,0.0,0.0,0.0,0.0,0.0,0.0,0.0,0.0,0.0,0.0,0.0,0.0,0.0,0.0,0.0,0.0,0.0,0.0,0.0,0.0,0.0,0.0,0.0,0.0,0.0,0.0,0.0,0.0,0.0,0.0,0.0,0.0,0.0,0.0,0.0,0.0,0.0,0.0,0.0,0.0,0.0,0.0,0.0,0.0,0.0,0.0,0.0,0.0,0.0,0.0,0.0,0.0,0.0,0.0,0.0,0.0,0.0,0.0,0.0,0.0,0.0,0.0,0.0,0.0,0.0,0.0,0.0,0.0,0.0,0.0,0.0,0.0,0.0,0.0,0.0,0.0,0.0,0.0,0.0,0.0,0.0,0.0,0.0,0.0,0.0,0.0,0.0,0.0,0.0,0.0,0.0,0.0,0.0,0.0,0.0,0.0,0.0,0.0,0.0,0.0,0.0,0.0,0.0,0.0,0.0,0.0,0.0,0.0,0.0,0.0,0.0,0.0,0.0,0.0,0.0,0.0,0.0,0.0,0.0,0.0,0.0,0.0,0.0,0.0,0.0,0.0,0.0,0.0,0.0,0.0,0.0,0.0,0.0,0.0,0.0,0.0,0.0,0.0,0.0,0.0,0.0,0.0,0.0,0.0,0.0,0.0,0.0,0.0,0.0,0.0,0.0,0.0,0.0,0.0,0.0,0.0,0.0,0.0,0.0,0.0,0.0,0.0,0.0,0.0,0.0,0.0,0.0,0.0,0.0,0.0,0.0,0.0,0.0,0.0,0.0,0.0,0.0,0.0,0.0,0.0,0.0,0.0,0.0,0.0,0.0,0.0,0.0,0.0,0.0,0.0,0.0,0.0,0.0,0.0,0.0,0.0,0.0,0.0,0.0,0.0,0.0,0.0,0.0,0.0,0.0,0.0,0.0,0.0,0.0,0.0,0.0,0.0,0.0,0.0,0.0,0.0,0.0,0.0,0.0,0.0,0.0,0.0,0.0,0.0,0.0,0.0,0.0,0.0,0.0,0.0,0.0,0.0,0.0,0.0,0.0,0.0,0.0,0.0,0.0,0.0,0.0,0.0,0.0,0.0,0.0,0.0,0.0,0.0,0.0,0.0,0.0,0.0,0.0,0.0,0.0,0.0,0.0,0.0,0.0,0.0,0.0,0.0,0.0,0.0,0.0,0.0,0.0,0.0,0.0,0.0,0.0,0.0,0.0,0.0,0.0,0.0,0.0,0.0,0.0,0.0,0.0,0.0,0.0,0.0,0.0,0.0,0.0,0.0,0.0,0.0,0.0,0.0,0.0,0.0,0.0,0.0,0.0,0.0,0.0,0.0,0.0,0.0,0.0,0.0,0.0,0.0,0.0,0.0,0.0,0.0,0.0,0.0,0.0,0.0,0.0,0.0,0.0,0.0,0.0,0.0,0.0,0.0,0.0,0.0,0.0,0.0,0.0,0.0,0.0,0.0,0.0,0.0,0.0,0.0,0.0,0.0,0.0,0.0,0.0,0.0,0.0,0.0,0.0,0.0,0.0,0.0,0.0,0.0,0.0,0.0,0.0,0.0,0.0,0.0,0.0,0.0,0.0,0.0,0.0,0.0,0.0,0.0,0.0,0.0,0.0,0.0,0.0,0.0,0.0,0.0,0.0,0.0,0.0,0.0,0.0,0.0,0.0,0.0,0.0,0.0,0.0,0.0,0.0,0.0,0.0,0.0,0.0,0.0,0.0,0.0,0.0,0.0,0.0,0.0,0.0,0.0,0.0,0.0,0.0,0.0,0.0,0.0,0.0,0.0,0.0,0.0,0.0,0.0,0.0,0.0,0.0,0.0,0.0,0.0,0.0,0.0,0.0,0.0,0.0,0.0,0.0,0.0,0.0,0.0,0.0,0.0,0.0,0.0,0.0,0.0,0.0,0.0,0.0,0.0,0.0,0.0,0.0,0.0,0.0,0.0,0.0,0.0,0.0,0.0,0.0,0.0,0.0,0.0,0.0,0.0,0.0,0.0,0.0,0.0,0.0,0.0,0.0,0.0,0.0,0.0,0.0,0.0,0.0,0.0,0.0,0.0,0.0,0.0,0.0,0.0,0.0,0.0,0.0,0.0,0.0,0.0,0.0,0.0,0.0,0.0,0.0,0.0,0.0,0.0,0.0,0.0,0.0,0.0,0.0,0.0,0.0,0.0,0.0,0.0,0.0,0.0,0.0,0.0,0.0,0.0,0.0,0.0,0.0,0.0,0.0,0.0,0.0,0.0,0.0,0.0,0.0,0.0,0.0,0.0,0.0,0.0,0.0,0.0,0.0,0.0,0.0,0.0,0.0,0.0,0.0,0.0,0.0,0.0,0.0,0.0,0.0,0.0,0.0,0.0,0.0,0.0,0.0,0.0,0.0,0.0,0.0,0.0,0.0,0.0,0.0,0.0,0.0,0.0,0.0,0.0,0.0,0.0,0.0,0.0,0.0,0.0,0.0,0.0,0.0,0.0,0.0,0.0,0.0,0.0,0.0,0.0,0.0,0.0,0.0,0.0,0.0,0.0,0.0,0.0,0.0,0.0,0.0,0.0,0.0,0.0,0.0,0.0,0.0,0.0,0.0,0.0,0.0,0.0,0.0,0.0,0.0,0.0,0.0,0.0,0.0,0.0,0.0,0.0,0.0,0.0,0.0,0.0,0.0,0.0,0.0,0.0,0.0,0.0,0.0,0.0,0.0,0.0,0.0,0.0,0.0,0.0,0.0,0.0,0.0,0.0,0.0,0.0,0.0,0.0,0.0,0.0,0.0,0.0,0.0,0.0,0.0,0.0,0.0,0.0,0.0,0.0,0.0,0.0,0.0,0.0,0.0,0.0,0.0,0.0,0.0,0.0,0.0,0.0,0.0,0.0,0.0,0.0,0.0,0.0,0.0,0.0,0.0,0.0,0.0,0.0,0.0,0.0,0.0,0.0,0.0,0.0,0.0,0.0,0.0,0.0,0.0,0.0,0.0,0.0,0.0,0.0,0.0,0.0,0.0,0.0,0.0,0.0,0.0,0.0,0.0,0.0,0.0,0.0,0.0,0.0,0.0,0.0,0.0,0.0,0.0,0.0,0.0,0.0,0.0,0.0,0.0,0.0,0.0,0.0,0.0,0.0,0.0,0.0,0.0,0.0,0.0,0.0,0.0,0.0,0.0,0.0,0.0,0.0,0.0,0.0,0.0,0.0,0.0,0.0,0.0,0.0,0.0,0.0,0.0,0.0,0.0,0.0,0.0,0.0,0.0,0.0,0.0,0.0,0.0,0.0,0.0,0.0,0.0,0.0,0.0,0.0,0.0,0.0,0.0,0.0,0.0,0.0,0.0,0.0,0.0,0.0,0.0,0.0,0.0,0.0,0.0,0.0,0.0,0.0,0.0,0.0,0.0,0.0,0.0,0.0,0.0,0.0,0.0,0.0,0.0,0.0,0.0,0.0,0.0,0.0,0.0,0.0,0.0,0.0,0.0,0.0,0.0,0.0,0.0,0.0,0.0,0.0,0.0,0.0,0.0,0.0,0.0,0.0,0.0,0.0,0.0,0.0,0.0,0.0,0.0,0.0,0.0,0.0,0.0,0.0,0.0,0.0,0.0,0.0,0.0,0.0,0.0,0.0,0.0,0.0,0.0,0.0,0.0,0.0,0.0,0.0,0.0,0.0,0.0,0.0,0.0,0.0,0.0,0.0,0.0,0.0,0.0,0.0,0.0,0.0,0.0,0.0,0.0,0.0,0.0,0.0,0.0,0.0,0.0,0.0,0.0,0.0,0.0,0.0,0.0,0.0,0.0,0.0,0.0,0.0,0.0,0.0,0.0,0.0,0.0,0.0,0.0,0.0,0.0,0.0,0.0,0.0,0.0,0.0,0.0,0.0,0.0,0.0,0.0,0.0,0.0,0.0,0.0,0.0,0.0,0.0,0.0,0.0,0.0,0.0,0.0,0.0,0.0,0.0,0.0,0.0,0.0,0.0,0.0,0.0,0.0,0.0,0.0,0.0,0.0,0.0,0.0,0.0,0.0,0.0,0.0,0.0,0.0,0.0,0.0,0.0,0.0,0.0,0.0,0.0,0.0,0.0,0.0,0.0,0.0,0.0,0.0,0.0,0.0,0.0,0.0,0.0,0.0,0.0,0.0,0.0,0.0,0.0,0.0,0.0,0.0,0.0,0.0,0.0,0.0,0.0,0.0,0.0,0.0,0.0,0.0,0.0,0.0,0.0,0.0,0.0,0.0,0.0,0.0,0.0,0.0,0.0,0.0,0.0,0.0,0.0,0.0,0.0,0.0,0.0,0.0,0.0,0.0,0.0,0.0,0.0,0.0,0.0,0.0,0.0,0.0,0.0,0.0,0.0,0.0,0.0,0.0,0.0,0.0,0.0,0.0,0.0,0.0,0.0,0.0,0.0,0.0,0.0,0.0,0.0,0.0,0.0,0.0,0.0,0.0,0.0,0.0,0.0,0.0,0.0,0.0,0.0,0.0,0.0,0.0,0.0,0.0,0.0,0.0,0.0,0.0,0.0,0.0,0.0,0.0,0.0,0.0,0.0,0.0,0.0,0.0,0.0,0.0,0.0,0.0,0.0,0.0,0.0,0.0,0.0,0.0,0.0,0.0,0.0,0.0,0.0,0.0,0.0,0.0,0.0,0.0,0.0,0.0,0.0,0.0,0.0,0.0,0.0,0.0,0.0,0.0,0.0,0.0,0.0,0.0,0.0,0.0,0.0,0.0,0.0,0.0,0.0,0.0,0.0,0.0,0.0,0.0,0.0,0.0,0.0,0.0,0.0,0.0,0.0,0.0,0.0,0.0,0.0,0.0,0.0,0.0,0.0,0.0,0.0,0.0,0.0,0.0,0.0,0.0,0.0,0.0,0.0,0.0,0.0,0.0,0.0,0.0,0.0,0.0,0.0,0.0,0.0,0.0,0.0,0.0,0.0,0.0,0.0,0.0,0.0,0.0,0.0,0.0,0.0,0.0,0.0,0.0,0.0,0.0,0.0,0.0,0.0,0.0,0.0,0.0,0.0,0.0,0.0,0.0,0.0,0.0,0.0,0.0,0.0,0.0,0.0,0.0,0.0,0.0,0.0,0.0,0.0,0.0,0.0,0.0,0.0,0.0,0.0,0.0,0.0,0.0,0.0,0.0,0.0,0.0,0.0,0.0,0.0,0.0,0.0,0.0,0.0,0.0,0.0,0.0,0.0,0.0,0.0,0.0,0.0,0.0,0.0,0.0,0.0,0.0,0.0,0.0,0.0,0.0,0.0,0.0,0.0,0.0,0.0,0.0,0.0,0.0,0.0,0.0,0.0,0.0,0.0,0.0,0.0,0.0,0.0,0.0,0.0,0.0,0.0,0.0,0.0,0.0,0.0,0.0,0.0,0.0,0.0,0.0,0.0,0.0,0.0,0.0,0.0,0.0,0.0,0.0,0.0,0.0,0.0,0.0,0.0,0.0,0.0,0.0,0.0,0.0,0.0,0.0,0.0,0.0,0.0,0.0,0.0,0.0,0.0,0.0,0.0,0.0,0.0,0.0,0.0,0.0,0.0,0.0,0.0,0.0,0.0,0.0,0.0,0.0,0.0,0.0,0.0,0.0,0.0,0.0,0.0,0.0,0.0,0.0,0.0,0.0,0.0,0.0,0.0,0.0,0.0,0.0,0.0,0.0,0.0,0.0,0.0,0.0,0.0,0.0,0.0,0.0,0.0,0.0,0.0,0.0,0.0,0.0,0.0,0.0,0.0,0.0,0.0,0.0,0.0,0.0,0.0,0.0,0.0,0.0,0.0,0.0,0.0,0.0,0.0,0.0,0.0,0.0,0.0,0.0,0.0,0.0,0.0,0.0,0.0,0.0,0.0,0.0,0.0,0.0,0.0,0.0,0.0,0.0,0.0,0.0,0.0,0.0,0.0,0.0,0.0,0.0,0.0,0.0,0.0,0.0,0.0,0.0,0.0,0.0,0.0,1.8836,0.0,0.0,0.0,0.0,0.0,0.0,0.0,0.0,0.0,0.0,0.0,0.0,0.0,0.0,0.0,0.0,0.0,0.0,0.0,0.0,0.0,0.0,0.0,0.0,2.5312,2.5312,2.5312,2.5312,2.5312,2.5312,0.0,0.0,0.0,0.0,0.0,2.5312,2.5312,2.5312,2.5312,2.5312,2.5312,2.5312,2.5111,2.4945,2.4743,0.0,0.0,0.0,0.0,0.0,0.0,0.0,0.0,0.0,0.0,0.0,0.0,0.0,0.0,0.0,0.0,0.0,0.0,0.0,0.0,0.0,0.0,0.0,0.0,0.0,0.0,0.0,0.0,0.0,0.0,0.0,0.0,0.0,0.0,0.0,0.0,0.0,0.0,0.0,0.0,0.0,0.0,0.0,0.0,0.0,0.0,0.0,0.0,0.0,0.0,0.0,0.0,0.0,0.0,0.0,0.0,0.0,0.0,0.0,0.0,0.0,0.0,0.0,0.0,0.0,0.0,0.0,0.0,0.0,0.0,0.0,1.9288,0.0,0.0,0.0,0.0,0.0,0.0,0.0,0.0,0.0,0.0,0.0,0.0,0.0,0.0,0.0,0.0,0.0,0.0,0.0,0.0,0.0,2.5312,2.5312,2.5312,2.5312,2.5312,2.5158,2.5158,2.5276,2.5158,0.0,0.0,2.5312,2.5312,2.5312,2.5312,2.5312,2.5312,2.5312,2.5312,2.5312,2.5312,2.5312,2.5312,2.5312,0.0,0.0,0.0,0.0,0.0,0.0,0.0,0.0,0.0,0.0,0.0,0.0,0.0,0.0,0.0,0.0,0.0,0.0,0.0,0.0,0.0,0.0,0.0,0.0,0.0,0.0,0.0,0.0,0.0,0.0,0.0,0.0,0.0,0.0,0.0,0.0,0.0,0.0,0.0,0.0,0.0,0.0,0.0,0.0,0.0,0.0,0.0,0.0,0.0,0.0,0.0,0.0,0.0,0.0,0.0,0.0,0.0,0.0,0.0,0.0,0.0,0.0,0.0,2.0367,2.0248,2.0248,2.0248,2.0367,2.0564,2.0327,2.0163,1.9981,2.002,0.0,0.0,0.0,0.0,0.0,0.0,0.0,0.0,0.0,0.0,0.0,0.0,0.0,0.0,0.0,0.0,0.0,0.0,0.0,2.5312,2.5312,2.5312,2.5312,2.5312,2.4671,2.4564,2.5229,2.4636,2.4564,2.5276,2.5312,2.5312,2.5312,2.5312,2.5312,2.5312,2.5312,2.5312,2.5312,2.5312,2.5312,2.5312,2.5312,2.5312,2.5312,0.0,0.0,0.0,0.0,0.0,0.0,0.0,0.0,0.0,0.0,0.0,0.0,0.0,0.0,0.0,0.0,0.0,0.0,0.0,0.0,0.0,0.0,0.0,0.0,0.0,0.0,0.0,0.0,0.0,0.0,0.0,0.0,0.0,0.0,0.0,0.0,0.0,0.0,0.0,0.0,0.0,2.0329,1.9999,0.0,0.0,0.0,0.0,0.0,0.0,0.0,0.0,0.0,0.0,0.0,0.0,0.0,2.0673,2.1063,2.1072,2.1257,2.1668,2.1668,2.1627,2.1627,2.1627,2.1668,2.1668,2.1668,0.0,2.0264,2.045,0.0,0.0,0.0,0.0,0.0,0.0,0.0,0.0,0.0,0.0,0.0,0.0,0.0,0.0,0.0,0.0,0.0,0.0,0.0,0.0,0.0,2.5052,2.5123,2.4671,2.4707,2.4933,2.5276,2.4969,2.4933,2.5264,2.5312,2.5087,2.4636,2.5087,2.5312,2.5312,2.5312,2.5312,2.5312,2.5312,2.5312,2.5312,2.5312,2.5312,2.5312,2.5312,0.0,0.0,0.0,0.0,0.0,0.0,0.0,0.0,0.0,0.0,0.0,0.0,0.0,0.0,0.0,0.0,0.0,0.0,0.0,0.0,0.0,0.0,0.0,0.0,0.0,0.0,0.0,0.0,0.0,0.0,0.0,0.0,0.0,0.0,0.0,0.0,0.0,0.0,0.0,2.0869,2.0436,2.0302,2.0283,2.0352,0.0,0.0,0.0,0.0,0.0,0.0,0.0,0.0,0.0,2.1349,2.1349,2.1406,2.1592,2.1602,2.1699,2.1885,2.1885,2.1885,2.1885,2.1885,2.1885,2.1885,2.1885,2.1629,2.1168,2.1005,2.0908,2.076,0.0,0.0,0.0,0.0,1.9623,1.9238,0.0,0.0,0.0,0.0,0.0,0.0,0.0,0.0,0.0,0.0,0.0,0.0,2.448,2.4933,2.4981,2.4192,2.4636,2.5004,2.5004,2.4826,2.4791,2.4969,2.5004,2.4707,2.4108,2.4898,2.5266,2.5171,2.5397,2.5469,2.5384,2.5613,2.5721,2.5721,2.5721,2.5576,2.5312,2.5312,2.5312,2.5312,0.0,0.0,0.0,0.0,0.0,0.0,0.0,0.0,0.0,0.0,0.0,0.0,0.0,0.0,0.0,0.0,0.0,0.0,0.0,0.0,0.0,0.0,0.0,0.0,0.0,0.0,0.0,0.0,0.0,0.0,0.0,0.0,0.0,0.0,0.0,0.0,0.0,2.0605,2.0644,2.0723,2.0732,2.082,0.0,0.0,0.0,0.0,0.0,0.0,2.1356,2.1709,2.1885,2.1885,2.1885,2.1885,2.1885,2.1885,2.1885,2.1885,2.1885,2.1885,2.1885,2.1885,2.1885,2.1885,2.1885,2.1953,2.2012,2.1582,2.1356,2.1367,2.1035,2.0938,2.0928,2.082,2.0302,1.958,0.0,0.0,0.0,0.0,0.0,0.0,0.0,0.0,0.0,0.0,0.0,2.5264,2.5229,2.5276,2.4981,2.4192,2.4156,2.4156,2.4156,2.35,2.3427,2.412,2.4156,2.4145,2.4108,2.4898,2.5146,2.4843,2.5643,2.5904,2.5601,2.6425,2.6813,2.6813,2.6813,2.6237,2.5312,2.5312,2.5312,2.5312,2.5312,0.0,0.0,0.0,0.0,0.0,0.0,0.0,0.0,0.0,0.0,0.0,0.0,0.0,0.0,0.0,0.0,0.0,0.0,0.0,0.0,0.0,0.0,0.0,0.0,0.0,0.0,0.0,0.0,0.0,0.0,0.0,0.0,0.0,0.0,0.0,0.0,0.0,0.0,2.1112,2.1161,0.0,0.0,0.0,0.0,2.1816,2.1836,2.1846,2.1846,2.1875,2.1885,2.1885,2.1885,2.1885,2.1885,2.1885,2.1885,2.1885,2.1885,2.1885,2.1885,2.1885,2.1885,2.1885,2.1885,2.2119,2.2451,2.2031,2.1846,2.1846,2.1826,2.1816,2.1768,2.1317,2.0908,2.0429,0.0,0.0,0.0,0.0,0.0,2.5312,2.5312,2.5312,2.5312,2.5312,2.5312,2.4933,2.395,2.4228,2.4011,2.2713,2.3084,2.339,2.339,2.361,2.3829,2.4084,2.4393,2.4416,2.4172,2.4538,2.4907,2.5318,2.5622,2.5993,2.6432,2.6735,2.6898,2.6898,2.6898,2.6681,2.6297,2.5961,2.5817,2.5781,2.5444,2.5312,0.0,0.0,0.0,0.0,0.0,0.0,0.0,0.0,0.0,0.0,0.0,0.0,0.0,0.0,0.0,0.0,0.0,0.0,0.0,0.0,0.0,0.0,0.0,0.0,0.0,0.0,0.0,0.0,0.0,0.0,0.0,0.0,0.0,0.0,0.0,0.0,0.0,2.1631,2.165,0.0,2.1865,2.1885,2.1885,2.1885,2.2139,2.2168,2.1904,2.2139,2.2168,2.1894,2.1885,2.1885,2.1885,2.1885,2.1885,2.1885,2.1885,2.1885,2.1885,2.1885,2.1885,2.1885,2.1885,2.1973,2.21,2.1953,2.2041,2.2266,2.1992,2.1885,2.1865,2.1709,2.1377,2.0957,0.0,0.0,0.0,2.5382,2.5312,2.5312,2.5312,2.5312,2.5312,2.5312,2.5312,2.4791,2.35,2.3829,2.3489,2.1945,2.2761,2.3169,2.2622,2.3435,2.3831,2.3523,2.4,2.4227,2.4191,2.4607,2.501,2.5402,2.6011,2.6543,2.7029,2.7311,2.7426,2.7426,2.7426,2.7426,2.739,2.6875,2.655,2.6334,2.5793,2.5576,2.5552,0.0,0.0,0.0,0.0,0.0,0.0,0.0,0.0,0.0,0.0,0.0,0.0,0.0,0.0,0.0,0.0,0.0,0.0,0.0,0.0,0.0,0.0,0.0,0.0,0.0,0.0,0.0,0.0,0.0,0.0,0.0,0.0,0.0,0.0,0.0,2.1934,2.208,2.21,2.2158,2.2295,2.2178,2.21,2.21,2.2217,2.2178,2.1904,2.2285,2.2383,2.2109,2.2236,2.2236,2.21,2.21,2.2031,2.1885,2.1885,2.1885,2.1885,2.1885,2.1885,2.1885,2.1885,2.1963,2.21,2.21,2.2266,2.2471,2.2051,2.1973,2.21,2.21,2.1914,2.158,0.0,2.5734,2.5312,2.5312,2.5312,2.5312,2.5312,2.5312,2.5312,2.5312,2.5312,2.4969,2.4156,2.4072,2.3452,2.1907,2.3121,2.3353,2.189,2.2894,2.321,2.2472,2.2946,2.3537,2.4205,2.5122,2.5436,2.505,2.6806,2.751,2.7244,2.8075,2.8474,2.8462,2.8474,2.8486,2.845,2.7957,2.7414,2.6898,2.6358,2.6117,2.6069,0.0,0.0,0.0,0.0,0.0,0.0,0.0,0.0,0.0,0.0,0.0,0.0,0.0,0.0,0.0,0.0,0.0,0.0,0.0,0.0,0.0,0.0,0.0,0.0,0.0,0.0,0.0,0.0,0.0,0.0,0.0,0.0,0.0,2.1963,2.1914,2.207,2.2471,2.251,2.2666,2.3013,2.2701,2.2519,2.2529,2.2168,2.1934,2.1924,2.2314,2.2519,2.249,2.2847,2.2867,2.25,2.249,2.2295,2.1885,2.1885,2.1885,2.1885,2.1885,2.1885,2.1885,2.1885,2.2119,2.249,2.249,2.249,2.2451,2.206,2.2148,2.249,2.249,2.249,2.2373,2.6393,2.6082,2.5804,2.5382,2.5312,2.5312,2.5312,2.5312,2.5312,2.5312,2.5312,2.4791,2.3463,2.3316,2.2649,2.1049,2.1308,2.1527,2.1372,2.2201,2.2918,2.334,2.4737,2.5179,2.4441,2.5272,2.6036,2.6601,2.6427,2.676,2.7569,2.7816,2.7702,2.7342,2.7726,2.7933,2.7957,2.8198,2.821,2.7993,2.703,2.6669,2.6645,0.0,0.0,0.0,0.0,0.0,0.0,0.0,0.0,0.0,0.0,0.0,0.0,0.0,0.0,0.0,0.0,0.0,0.0,0.0,0.0,0.0,0.0,0.0,0.0,0.0,0.0,0.0,0.0,0.0,0.0,0.0,0.0,2.2779,2.2402,2.2607,2.2682,2.2539,2.251,2.2441,2.2246,2.2402,2.2637,2.2896,2.3154,2.3125,2.2812,2.2857,2.2685,2.208,2.2168,2.2178,2.206,2.206,2.2002,2.1885,2.1885,2.1885,2.1885,2.1885,2.1885,2.1885,2.1885,2.1953,2.206,2.206,2.206,2.208,2.2266,2.2217,2.206,2.206,2.206,2.207,2.6358,2.5978,2.5699,2.5382,2.5312,2.5312,2.5312,2.5312,2.5312,2.5312,2.5312,2.4719,2.318,2.2995,2.251,2.1203,2.1268,2.145,2.168,2.2161,2.291,2.399,2.4681,2.485,2.4488,2.5368,2.5872,2.6091,2.6415,2.6783,2.716,2.7296,2.7186,2.691,2.7222,2.7354,2.739,2.7957,2.8174,2.815,2.7714,2.7426,2.7198,2.6982,2.6898,2.6898,2.6898,2.6898,2.6898,2.6898,0.0,0.0,0.0,0.0,0.0,0.0,0.0,0.0,0.0,0.0,0.0,0.0,0.0,0.0,0.0,0.0,0.0,0.0,0.0,0.0,0.0,0.0,0.0,0.0,2.2945,2.275,2.2549,2.2682,2.2682,2.2305,2.2402,2.249,2.2464,2.248,2.2685,2.3062,2.3047,2.2881,2.2627,2.2783,2.2734,2.2432,2.2588,2.2773,2.2949,2.2949,2.2949,2.2949,2.2949,2.2949,2.2949,2.2949,2.2852,2.2685,2.2685,2.2578,2.2412,2.2412,2.2305,0.0,0.0,0.0,0.0,0.0,2.2148,2.2158,2.6327,2.5769,2.5382,2.5312,2.5312,2.5312,2.5312,2.5312,2.5312,2.5312,2.5312,2.4755,2.3279,2.3058,2.2708,2.2056,2.2183,2.2314,2.2417,2.2619,2.3248,2.4435,2.382,2.3767,2.4616,2.5326,2.5305,2.4586,2.6474,2.7011,2.6244,2.6626,2.6777,2.6717,2.6777,2.6801,2.6837,2.7366,2.763,2.7726,2.8234,2.8174,2.7726,2.7246,2.7078,2.7078,2.7078,2.7078,2.7078,2.7078,0.0,0.0,0.0,0.0,0.0,0.0,0.0,0.0,0.0,0.0,0.0,0.0,0.0,0.0,0.0,0.0,0.0,0.0,0.0,0.0,0.0,0.0,0.0,0.0,2.2711,2.251,2.251,2.251,2.2373,2.2002,2.2285,2.2666,2.309,2.2734,2.2705,2.313,2.2568,2.2197,2.2246,0.0,0.0,0.0,0.0,2.4043,2.4414,2.4414,2.4414,2.4414,2.4414,2.4414,2.4414,2.4414,2.4209,2.3857,2.3857,2.3643,2.3237,2.3237,2.2994,2.2607,2.209,2.2119,2.2441,2.2441,2.2441,2.2393,2.6477,2.6117,2.5873,2.537,2.5312,2.5312,2.5312,2.5312,2.5312,2.5312,2.5312,2.4933,2.4,2.3353,2.3099,2.3319,2.2162,2.1726,2.2416,2.3493,2.4235,2.4498,2.4988,2.5358,2.5537,2.5031,2.4851,2.5057,2.5367,2.5419,2.5202,2.5917,2.6033,2.5636,2.6069,2.625,2.6298,2.6813,2.7294,2.769,2.7798,2.8065,2.8342,2.8246,2.821,2.821,2.821,2.821,2.821,2.821,2.821,2.821,2.821,2.821,0.0,0.0,0.0,0.0,0.0,0.0,0.0,0.0,0.0,0.0,0.0,0.0,0.0,0.0,0.0,0.0,0.0,0.0,0.0,2.2637,2.2568,2.251,2.251,2.251,2.248,2.2402,2.2461,2.2549,2.2627,2.2559,2.2832,2.3603,2.3828,2.4082,2.448,2.4531,2.4453,2.418,2.4248,2.4336,2.4414,2.4414,2.4414,2.4414,0.0,0.0,2.4414,2.4414,2.4375,2.4297,2.4297,2.4248,2.417,2.417,2.3926,2.3428,2.2314,2.1934,2.2012,2.2012,2.2012,2.2041,2.7632,2.6748,2.5981,2.5395,2.5312,2.5312,2.5312,2.5312,2.5312,2.5312,2.5312,2.5111,2.4574,2.3757,2.3514,2.4023,2.3467,2.3022,2.2826,2.3872,2.4701,2.5115,2.4691,2.4861,2.5777,2.4956,2.4482,2.4436,2.5,2.5132,2.4866,2.5443,2.5564,2.5312,2.5588,2.5709,2.5733,2.6286,2.6789,2.7318,2.757,2.8041,2.851,2.851,2.851,2.851,2.851,2.851,2.851,2.851,2.851,2.851,2.851,2.851,2.851,0.0,0.0,0.0,0.0,0.0,0.0,0.0,0.0,0.0,0.0,0.0,0.0,0.0,0.0,2.3577,2.2904,0.0,2.251,2.251,2.251,2.251,2.251,2.2652,2.2744,2.2539,2.251,2.2676,2.3115,2.3154,2.3506,2.4411,2.4424,2.4512,2.4727,2.4746,2.4746,2.4746,2.4746,2.4853,2.5031,2.5031,2.5031,2.5031,2.5031,2.5031,2.5031,2.5031,2.4951,2.4746,2.4746,2.4619,2.4414,2.4414,2.4287,2.4014,2.3174,2.2705,2.249,2.2275,2.2197,2.2197,2.8884,2.7507,2.6214,2.5576,2.5384,2.5312,2.5312,2.5312,2.5312,2.5312,2.5396,2.5361,2.5166,2.4453,2.4144,2.4508,2.4938,2.4712,2.3704,2.4327,2.5084,2.5777,2.4392,2.4317,2.5777,2.5115,2.4398,2.3732,2.4968,2.5253,2.4566,2.5074,2.5312,2.5312,2.5312,2.5312,2.5348,2.5877,2.6418,2.6946,2.7474,2.8041,2.851,2.851,2.851,2.851,2.851,2.851,2.851,2.851,2.851,2.851,2.851,2.851,2.851,2.851,2.8379,0.0,0.0,0.0,0.0,0.0,0.0,0.0,0.0,0.0,2.3071,2.2994,2.2974,2.2867,2.2578,2.2441,2.2412,2.25,2.251,2.2539,2.2627,2.2955,2.313,2.291,2.2812,2.3096,2.3955,2.3965,2.4238,2.5057,2.4746,2.458,2.4668,2.4631,2.4834,2.5185,2.5195,2.5371,2.5684,2.5693,2.5693,2.5693,2.5693,2.5693,2.5693,2.5693,2.5537,2.5195,2.5195,2.5,2.4631,2.4631,2.4619,2.4502,2.417,2.3769,2.3276,2.2822,2.2637,2.2588,2.9497,2.8387,2.7212,2.619,2.5624,2.5312,2.5312,2.5312,2.5312,2.5312,2.5721,2.5997,2.5972,2.5692,2.5384,2.5121,2.5469,2.5639,2.5526,2.5621,2.5704,2.5777,2.561,2.5568,2.5777,2.5704,2.5049,2.3805,2.5008,2.4957,2.3755,2.4821,2.5312,2.5312,2.5312,2.5312,2.5348,2.5877,2.6418,2.6946,2.7474,2.8041,2.851,2.851,2.851,2.851,2.851,2.851,2.851,2.851,2.851,2.851,2.851,2.851,2.851,2.851,2.7966,2.7348,2.7348,2.6091,2.4787,2.4659,2.394,2.3266,0.0,0.0,2.2984,2.2656,2.2578,2.2568,2.2519,2.2207,2.208,2.2451,2.251,2.2604,2.2974,2.3437,2.3838,2.416,2.3877,2.3984,2.4891,2.457,2.4551,2.5077,2.5067,2.5166,2.5518,2.5538,2.5567,2.5615,2.5615,2.5635,2.5693,2.5693,2.5693,2.5693,2.5693,2.5693,2.5693,2.5693,2.5664,2.5615,2.5615,2.5586,2.5538,2.5538,2.5352,2.5037,2.4988,2.4658,2.418,2.3325,2.3023,2.3023,3.0098,2.905,2.7982,2.7153,2.6334,2.5769,2.5769,2.5504,2.542,2.5721,2.5961,2.6334,2.6971,2.6765,2.6302,2.5596,2.6218,2.6381,2.583,2.6287,2.6629,2.6629,2.5621,2.5537,2.6588,2.5579,2.5143,2.5323,2.5814,2.5892,2.5512,2.6014,2.6213,2.6213,2.6213,2.6213,2.6237,2.6453,2.6899,2.7378,2.7594,2.8041,2.851,2.851,2.851,2.851,2.851,2.851,0.0,2.851,2.851,2.851,2.851,2.8139,2.7846,2.8339,2.7886,2.7092,2.6547,2.583,2.4988,0.0,2.3387,2.3033,2.2789,2.273,2.2656,2.2236,2.2344,2.2441,2.2197,2.2207,2.2305,0.0,2.2725,2.3037,2.3457,2.3887,2.4316,2.4746,2.4639,2.4724,2.5077,2.4902,2.498,2.543,2.5459,2.5537,2.5674,2.5693,2.581,2.6113,2.6113,2.624,2.6425,2.6484,2.6357,2.6113,2.6113,2.5986,2.5693,2.5693,2.5693,2.5693,2.5693,2.5693,2.5693,2.5693,2.5577,2.543,2.5166,2.4998,2.4687,2.3828,2.3516,2.3486,3.062,2.9618,2.8682,2.8232,2.7277,2.6502,2.6346,2.5997,2.5889,2.6274,2.6454,2.6899,2.7837,2.7502,2.701,2.6577,2.6969,2.701,2.6577,2.6969,2.7185,2.7185,2.5924,2.5757,2.6794,2.6008,2.5832,2.6221,2.6576,2.6765,2.6759,2.6844,2.6898,2.6898,2.6898,2.6898,2.691,2.7054,2.733,2.7702,2.7846,2.8174,2.851,2.851,2.851,2.851,2.851,2.855,2.8578,2.8578,2.8618,2.8669,2.859,2.8167,2.7753,2.8339,2.7725,2.6547,2.5368,2.5073,2.4702,2.3292,2.2925,2.2808,2.2432,2.2432,2.2393,2.1973,2.2217,2.2422,2.2119,2.2305,2.2549,2.2666,2.3047,2.3491,2.375,2.4258,2.4717,2.5077,2.5176,2.5254,2.5254,2.5254,2.5439,2.5879,2.5869,2.5918,2.6035,2.6044,2.623,2.6553,2.6562,2.6709,2.7012,2.7012,2.6865,2.6562,2.6562,2.6396,2.6035,2.5918,2.5801,2.5693,2.5693,2.5693,2.5693,2.5693,2.5693,2.5654,2.5381,2.5254,2.5166,2.4414,2.4072,2.3906,3.1196,3.019,2.9355,2.9355,2.8407,2.7462,2.6958,2.6861,2.6849,2.6861,2.7318,2.7846,2.8426,2.7713,2.751,2.8339,2.7672,2.7551,2.8339,2.7644,2.7185,2.7185,2.7144,2.6712,2.5861,2.7499,2.7539,2.5797,2.7067,2.7226,2.6444,2.6744,2.6898,2.6898,2.6898,2.6898,2.6922,2.7438,2.7705,2.7726,2.8282,2.8498,2.851,2.851,2.851,2.851,2.851,2.8618,2.8803,2.8803,2.8922,2.9052,2.8843,2.8752,2.8724,2.855,2.7244,2.5442,2.3681,2.3178,2.3081,2.2627,2.2529,2.2422,2.2002,2.2217,2.2393,2.1973,2.2217,2.251,2.249,2.25,2.2646,2.3013,2.3486,2.3779,2.3789,2.4558,2.5096,2.5116,2.5449,2.5664,0.0,2.5664,2.5898,2.6338,2.6367,2.6543,2.6953,2.6973,2.6982,2.6992,2.6992,2.7002,2.7012,2.7012,2.7012,2.6992,2.6992,2.6982,2.6963,2.6553,2.6143,2.5693,2.5693,2.5693,2.5693,2.5693,2.5693,2.5693,2.5674,2.5664,2.5615,2.5195,2.4756,2.4336,3.1307,3.0545,2.9871,2.9457,2.8736,2.8186,2.8005,2.7342,2.7018,2.7378,2.7921,0.0,0.0,0.0,0.0,0.0,2.8219,2.8179,2.8471,2.8219,2.8047,2.8047,2.751,2.7307,2.7592,2.7632,2.7632,2.7592,2.804,2.8088,2.7786,2.7896,2.7942,2.7942,2.7942,2.7942,2.7993,2.8174,2.8246,2.8258,2.8438,2.851,2.851,2.851,2.851,2.851,0.0,2.855,2.8618,2.8764,2.8843,2.8882,2.8843,2.8502,2.79,2.6829,2.6277,2.5616,2.368,2.3356,2.3309,2.2365,2.21,2.206,2.1924,2.1992,2.206,2.1914,2.2217,2.251,2.251,2.2744,2.3023,2.3496,2.3691,2.3984,2.4607,2.494,2.5176,2.5478,2.5596,0.0,0.0,0.0,0.0,2.6377,2.665,2.6865,2.7012,2.7012,2.7148,2.7432,2.7441,2.7578,2.7861,2.7861,2.7725,2.7441,2.7148,2.7012,2.7012,2.6865,2.6572,2.6172,2.6172,2.6006,2.5693,2.5693,2.5693,2.5693,2.5693,2.5693,2.5674,2.5566,2.542,2.5138,0.0,3.1046,3.0431,2.9832,2.9223,0.0,0.0,0.0,0.0,0.0,0.0,0.0,0.0,0.0,0.0,0.0,0.0,2.851,2.851,2.851,2.851,2.851,2.7966,2.7765,2.8018,2.7805,2.7805,2.8059,2.8351,2.851,2.851,2.851,2.851,2.851,2.851,2.851,2.851,2.851,2.851,2.851,2.851,2.851,2.851,2.851,2.851,0.0,2.851,2.851,2.855,2.8803,2.8922,2.8922,2.8988,2.829,2.7202,2.6064,2.5461,2.4789,2.334,2.3031,2.2906,2.2109,2.1885,2.1885,2.1885,2.2002,2.2109,2.2109,2.2441,2.2691,2.2691,2.2916,2.3237,2.3721,2.3916,2.4268,2.5018,2.5205,2.541,2.5654,2.5693,2.5859,0.0,0.0,0.0,2.6836,2.71,2.7314,2.7461,2.7471,2.7598,2.7881,2.7891,2.8018,2.8291,2.8291,2.8154,2.7891,2.7607,2.7393,2.7246,2.7246,2.7012,2.6602,2.6455,2.623,2.5957,2.5752,2.5693,2.5693,2.5693,2.5693,2.5693,2.5693,2.5693,2.5586,0.0,0.0,3.0996,0.0,0.0,0.0,0.0,0.0,0.0,0.0,0.0,0.0,0.0,0.0,0.0,0.0,0.0,0.0,2.8474,2.8498,2.851,2.851,2.851,2.8099,2.7267,2.8099,2.8099,2.7267,2.8099,2.851,2.851,2.851,2.851,2.851,2.851,2.851,2.851,2.851,2.851,2.851,2.851,2.851,2.851,2.851,2.851,2.851,2.851,2.851,2.855,2.8934,2.9091,2.9131,2.9263,2.8141,0.0,2.6125,2.4661,2.3063,2.2567,2.2158,2.1875,2.1855,2.1865,2.1894,2.1914,2.2227,2.2519,2.2539,2.2818,2.3091,0.0,0.0,2.3247,2.375,2.415,2.458,2.5086,2.5469,2.5693,0.0,0.0,0.0,0.0,0.0,0.0,2.7718,0.0,2.7924,2.8271,2.8291,2.8291,2.8291,2.8291,2.8291,2.8291,2.8291,2.8291,2.8291,2.8291,2.8086,2.7748,2.7748,2.7461,2.7021,2.6631,2.6426,2.6357,2.5937,2.5703,2.5693,2.5693,2.5693,2.5693,2.5693,2.5693,2.5625,0.0,0.0,0.0,0.0,0.0,0.0,0.0,0.0,0.0,0.0,0.0,0.0,0.0,0.0,0.0,0.0,0.0,0.0,2.7921,2.8294,2.851,2.851,2.851,2.8391,2.8179,2.8391,2.8391,2.8179,2.8391,2.851,2.851,2.851,2.851,2.851,2.851,2.851,2.851,2.851,2.851,2.851,2.851,2.851,2.851,2.851,2.851,2.851,2.851,2.851,2.855,2.8803,2.8882,0.0,0.0,2.7342,2.6069,0.0,0.0,2.27,2.1419,2.1465,2.1807,2.1484,2.1641,2.1963,2.2275,2.2441,2.2607,2.2877,2.3023,2.3091,0.0,0.0,0.0,2.4131,2.4346,0.0,2.5459,2.5615,0.0,2.5693,0.0,2.6387,2.6816,2.7246,0.0,0.0,2.8135,2.8174,2.8281,2.8291,2.8291,2.8291,2.8291,2.8291,2.8291,2.8291,2.8291,2.8291,2.8291,2.8232,2.8135,2.8135,2.79,2.75,2.7383,2.6982,2.6387,2.6269,2.6035,2.5693,2.5693,2.5693,2.5693,2.5693,2.5693,2.5674,0.0,0.0,0.0,0.0,0.0,0.0,0.0,0.0,0.0,0.0,0.0,0.0,0.0,0.0,0.0,0.0,0.0,0.0,0.0,2.7993,2.827,2.8498,2.851,2.851,2.851,2.851,2.851,2.851,2.851,2.851,2.851,2.851,2.851,2.851,2.851,2.851,2.851,2.851,2.851,0.0,0.0,2.851,2.851,2.851,2.851,2.851,2.851,2.851,2.851,0.0,0.0,2.8791,2.7931,2.6827,2.5609,2.42,0.0,2.2001,2.1339,2.1367,2.1631,2.1726,2.1982,2.2275,2.2685,2.274,2.2808,2.3042,2.3091,0.0,2.3091,0.0,0.0,0.0,0.0,0.0,2.5567,2.5693,2.5693,0.0,2.6123,0.0,2.6973,2.7412,2.7894,0.0,2.8291,2.8291,2.8291,2.8291,2.8291,2.8291,2.8291,2.8291,2.8291,2.8291,2.8291,2.8291,2.8291,2.8291,2.8291,2.8291,2.8164,2.793,0.0,2.7444,2.6924,2.6543,2.624,2.6006,2.5762,2.5781,2.5868,2.5732,2.583,2.6024,0.0,0.0,0.0,0.0,0.0,0.0,0.0,0.0,0.0,0.0,2.851,2.851,0.0,0.0,0.0,0.0,0.0,0.0,0.0,0.0,2.781,2.8378,2.8402,2.8438,2.851,2.851,2.851,2.851,2.851,2.851,2.851,2.851,2.851,2.851,2.851,2.851,2.851,2.851,2.851,2.851,2.851,2.851,2.851,0.0,2.851,2.851,2.851,2.851,2.851,2.851,2.8749,2.8803,2.7637,2.6465,2.5315,2.4228,2.2645,2.1387,2.1709,2.1562,2.1473,2.2314,2.2549,2.2685,2.3013,2.3091,2.3091,2.3091,0.0,2.3091,2.3091,2.3091,2.3374,2.4277,0.0,2.468,2.5567,2.5693,2.5713,2.5771,2.6211,2.6641,2.706,2.749,2.79,2.8262,2.8291,2.8291,2.8291,2.8291,2.8291,2.8291,2.8291,2.8291,2.8291,2.8291,2.8291,2.8291,2.8291,2.8291,2.8291,2.8291,2.8291,2.8271,2.791,2.7767,2.766,2.6797,2.6435,2.6348,2.5859,2.5868,2.6052,2.583,2.6062,2.6448,0.0,0.0,0.0,0.0,0.0,0.0,0.0,0.0,0.0,2.851,2.851,2.851,0.0,0.0,0.0,0.0,0.0,0.0,0.0,0.0,0.0,2.7837,2.7861,2.8065,2.8498,2.851,2.851,2.851,2.851,2.851,2.851,2.851,2.851,2.851,2.851,2.851,2.851,2.851,2.851,2.851,2.851,2.851,2.851,2.851,0.0,0.0,2.851,2.851,2.851,2.851,2.855,2.8287,2.6618,2.5931,2.5287,2.2959,2.205,2.1709,2.1385,2.1553,2.1894,2.2383,2.273,2.3003,2.3081,2.3091,0.0,0.0,2.3091,2.3091,2.3091,2.3091,2.3374,2.4277,0.0,0.0,0.0,0.0,2.582,0.0,0.0,0.0,0.0,0.0,0.0,0.0,0.0,2.8291,2.8291,2.8291,2.8291,2.8291,2.8291,2.8291,2.8291,2.8291,2.8291,2.8291,2.8291,2.8291,2.8291,2.8291,2.8291,2.8291,2.8213,0.0,2.7679,2.7119,2.6699,2.6348,2.5859,2.5868,2.6091,2.6052,2.6255,2.6496,0.0,0.0,0.0,0.0,0.0,0.0,2.7475,2.7215,2.7175,2.7331,2.737,2.7555,2.8026,2.7366,2.6777,0.0,0.0,0.0,0.0,0.0,0.0,2.7246,2.727,2.7522,2.8089,2.8102,2.8234,2.851,0.0,2.851,2.851,2.851,2.851,2.851,2.851,2.851,2.851,2.851,2.851,2.851,2.851,2.851,2.851,2.851,0.0,0.0,0.0,2.851,2.851,2.851,2.851,2.8167,2.637,2.5777,2.5384,2.3176,2.2246,2.196,2.214,2.2046,2.2041,2.2676,2.2945,2.3091,2.3091,0.0,0.0,0.0,2.3091,2.3091,2.3091,0.0,0.0,0.0,0.0,0.0,0.0,0.0,0.0,0.0,0.0,0.0,0.0,0.0,0.0,0.0,0.0,2.8291,2.8291,2.8291,2.8291,2.8291,2.8291,2.8291,2.8291,2.8291,2.8291,2.8291,2.8291,2.8291,2.8291,2.8291,2.8291,2.8291,2.8291,0.0,2.7959,2.7529,2.71,2.667,2.624,2.6172,2.6294,2.6149,2.6438,2.688,0.0,0.0,0.0,0.0,0.0,0.0,2.6598,2.6191,2.6115,2.6382,2.642,2.669,2.7306,2.697,2.6574,0.0,0.0,0.0,0.0,0.0,0.0,0.0,0.0,0.0,2.7498,0.0,0.0,2.8342,2.8342,0.0,0.0,0.0,0.0,0.0,2.851,2.851,2.851,2.851,2.851,0.0,0.0,2.851,0.0,0.0,0.0,0.0,0.0,2.851,2.851,2.851,2.851,2.8219,2.6629,2.5955,2.5447,2.373,2.2654,2.2178,2.2777,2.2499,2.2197,2.2906,2.3091,2.3091,2.3091,2.3091,0.0,2.3091,2.3091,2.3091,2.3091,0.0,2.3374,0.0,0.0,0.0,0.0,0.0,0.0,0.0,0.0,0.0,0.0,0.0,0.0,0.0,0.0,0.0,2.8291,2.8291,2.8291,2.8291,2.8291,2.8291,2.8291,2.8291,2.8291,2.8291,2.8291,2.8291,2.8291,2.8291,2.8291,2.8291,2.8291,0.0,0.0,2.7894,2.7412,2.6973,2.6553,2.6458,2.6448,2.6245,2.6678,2.7262,0.0,0.0,0.0,0.0,0.0,0.0,2.7036,2.6822,2.681,2.686,2.686,2.668,2.6298,2.6202,2.6154,0.0,0.0,0.0,0.0,0.0,0.0,0.0,0.0,0.0,0.0,0.0,0.0,2.775,0.0,0.0,0.0,0.0,0.0,0.0,0.0,2.851,2.851,2.851,0.0,0.0,0.0,0.0,0.0,0.0,0.0,0.0,0.0,2.851,2.851,0.0,0.0,2.8351,2.7389,2.6505,2.5512,2.4137,0.0,0.0,2.2536,2.2494,2.2568,2.2984,2.3091,2.3091,2.3091,0.0,2.3091,2.3091,2.3091,2.3091,2.3091,2.3091,2.3374,2.4277,2.4414,2.468,0.0,0.0,0.0,0.0,0.0,0.0,0.0,0.0,0.0,0.0,0.0,0.0,2.8291,2.8291,2.8291,2.8291,2.8291,2.8291,2.8291,2.8291,2.8291,2.8291,2.8291,2.8291,2.8291,2.8291,2.8291,2.8291,2.8291,0.0,0.0,2.7894,2.7412,2.6973,2.6553,2.6458,2.6496,2.6448,2.6832,2.7309,0.0,0.0,0.0,0.0,0.0,0.0,2.573,2.5426,2.5352,2.5584,2.5633,2.5538,2.5361,2.5493,2.5624,2.5624,2.5432,0.0,0.0,0.0,0.0,0.0,0.0,0.0,0.0,0.0,2.6657,2.721,2.721,0.0,0.0,0.0,0.0,0.0,0.0,0.0,2.851,2.851,0.0,0.0,0.0,0.0,0.0,0.0,0.0,0.0,0.0,0.0,2.851,2.851,0.0,0.0,2.8099,2.7389,0.0,0.0,2.3565,2.2595,2.3082,2.2881,2.2617,2.2994,2.3091,2.3144,2.3319,0.0,2.3319,2.3319,2.345,2.3484,2.3363,2.3319,2.3649,2.4516,2.4516,2.468,0.0,0.0,0.0,0.0,0.0,0.0,0.0,0.0,0.0,0.0,0.0,0.0,2.8291,2.8291,2.8291,2.8291,2.8291,2.8291,2.8291,2.8291,2.8291,2.8291,2.8291,2.8291,2.8291,2.8291,2.8291,2.8291,2.8291,0.0,0.0,2.8115,2.7731,2.7237,2.7069,2.6873,2.6747,2.6747,2.6986,2.7309,0.0,0.0,0.0,0.0,0.0,2.5931,2.5517,2.4932,2.4622,2.4921,2.4957,2.4957,2.4957,2.5147,2.5312,2.5312,2.5312,0.0,0.0,0.0,0.0,0.0,0.0,0.0,0.0,0.0,2.6142,2.6645,2.6645,2.6922,0.0,0.0,0.0,0.0,0.0,0.0,0.0,0.0,0.0,0.0,0.0,0.0,0.0,0.0,0.0,0.0,0.0,0.0,0.0,0.0,0.0,0.0,2.851,2.7886,2.6982,0.0,2.4627,2.3517,2.3854,2.3527,2.3107,2.311,2.3144,2.3276,0.0,2.3547,2.359,2.359,2.3711,2.3754,2.3624,2.359,2.3825,2.4653,2.4654,2.482,2.5702,0.0,0.0,0.0,0.0,0.0,0.0,0.0,0.0,0.0,0.0,0.0,2.8291,2.8291,2.8291,2.8291,2.8291,2.8291,2.8291,2.8291,2.8291,2.8291,2.8291,2.8291,2.8291,2.8291,2.8291,2.8291,2.8291,0.0,0.0,2.8408,2.8045,2.7399,2.75,2.7271,2.69,2.69,2.7081,2.7309,0.0,0.0,0.0,0.0,0.0,2.7675,2.7064,2.6016,2.5276,2.5276,2.5276,2.5276,2.5276,2.5312,2.5312,2.5312,2.5312,0.0,0.0,0.0,0.0,0.0,0.0,0.0,2.5312,2.5312,2.5576,2.6105,2.6105,2.6394,2.691,2.691,2.7186,2.769,0.0,0.0,0.0,0.0,2.851,0.0,0.0,0.0,2.851,0.0,0.0,0.0,0.0,0.0,0.0,0.0,0.0,0.0,0.0,2.7886,2.7185,2.7174,2.6494,2.5568,2.4734,2.4488,2.4274,2.3353,2.3319,2.3503,2.3503,2.3667,2.3797,2.3797,2.3797,2.3797,2.3797,2.3797,2.4001,2.4699,2.4802,2.5099,2.5972,0.0,0.0,0.0,0.0,0.0,0.0,0.0,0.0,0.0,0.0,0.0,2.8291,2.8291,2.8291,2.8291,2.8291,2.8291,2.8291,2.8291,2.8291,2.8291,2.8291,2.8291,2.8291,2.8291,2.8291,2.8291,0.0,0.0,0.0,2.8568,2.8202,2.745,2.7703,2.7429,2.69,2.69,2.7081,2.7309,0.0,0.0,0.0,0.0,0.0,0.0,2.6955,2.6637,2.6381,2.6381,2.6381,2.6381,2.6381,2.6081,2.5841,2.5841,2.5516,0.0,0.0,0.0,0.0,2.5312,2.5312,2.5312,2.5312,2.5312,2.5384,2.5564,2.5564,2.5829,2.6358,2.6358,2.6659,2.7162,2.7522,2.7774,0.0,2.8354,2.851,0.0,0.0,2.851,2.851,0.0,0.0,0.0,0.0,0.0,0.0,0.0,0.0,0.0,0.0,0.0,0.0,2.8275,2.7221,2.5839,2.5094,2.4925,2.4681,2.3777,2.3624,2.3754,2.3937,2.4024,2.4067,2.4067,2.4196,2.4239,2.411,2.4067,2.4361,2.5164,2.5168,2.5295,0.0,0.0,0.0,0.0,0.0,0.0,0.0,0.0,0.0,0.0,0.0,0.0,2.8291,2.8291,2.8291,2.8291,2.8291,2.8291,2.8291,2.8291,2.8291,2.8291,2.8291,2.8291,2.8291,2.8291,2.8291,0.0,0.0,0.0,0.0,2.8568,2.8316,2.7713,2.7975,2.7676,2.7167,2.7167,2.7214,2.7309,0.0,0.0,0.0,0.0,0.0,0.0,2.7552,2.7169,2.6898,2.6898,2.6898,2.6898,2.6898,2.6585,2.6418,2.6418,2.6105,0.0,0.0,0.0,0.0,2.5312,2.5312,2.5312,2.5312,2.5312,2.5408,2.5612,2.5612,2.5877,2.6418,2.6418,2.6561,2.691,2.7246,2.7498,0.0,2.8282,2.851,2.851,2.851,2.851,2.851,0.0,0.0,0.0,0.0,0.0,0.0,0.0,0.0,0.0,0.0,0.0,0.0,0.0,2.8159,2.7186,2.6326,2.588,2.5431,2.452,2.4122,2.398,2.4163,2.4249,2.4325,2.4325,2.4411,2.4454,2.4335,2.4325,2.4579,2.539,2.5407,0.0,0.0,0.0,0.0,0.0,0.0,0.0,0.0,0.0,0.0,0.0,0.0,0.0,2.8601,2.8504,2.8504,2.8601,2.8398,2.8291,2.8291,2.8408,2.8408,2.8291,2.8408,2.8408,2.8291,2.8291,2.8291,0.0,0.0,0.0,0.0,2.8717,2.8563,2.8106,2.8299,2.8025,2.7489,2.7372,2.7309,2.7309,0.0,0.0,0.0,0.0,0.0,0.0,2.8585,2.7686,2.7006,2.7006,2.7006,2.7006,2.7006,2.697,2.6958,2.6958,2.6922,0.0,0.0,2.542,2.542,2.542,2.542,2.542,2.542,2.542,2.5661,2.6154,2.6154,2.6418,2.6898,2.6898,2.6898,2.6898,2.6934,2.7246,2.7774,2.8306,2.851,2.851,2.851,2.851,0.0,0.0,0.0,0.0,0.0,0.0,0.0,0.0,0.0,0.0,0.0,0.0,0.0,0.0,0.0,0.0,0.0,2.7302,2.6431,2.5462,2.4829,2.4411,2.4411,2.4529,0.0,2.4625,2.4583,2.4572,2.4497,2.4497,2.471,2.5435,2.5543,0.0,0.0,0.0,0.0,0.0,0.0,0.0,0.0,0.0,0.0,0.0,0.0,0.0,2.9079,2.8887,2.8824,2.9079,2.8611,2.8344,2.8344,2.8621,2.8621,2.8344,2.8568,2.8568,2.8344,2.8291,2.8291,0.0,0.0,0.0,0.0,2.892,2.887,2.8489,2.8592,2.8328,2.7862,2.7513,2.7404,2.7394,0.0,0.0,0.0,0.0,0.0,0.0,0.0,0.0,0.0,0.0,2.8138,2.8138,2.8138,2.7777,2.7498,0.0,0.0,0.0,0.0,2.6513,2.6513,2.6513,2.6513,2.6513,2.6513,2.6513,2.6573,2.6693,2.6693,2.6765,2.6898,2.6898,2.6898,2.691,2.7318,2.7798,2.833,2.8462,2.851,2.851,2.851,2.851,0.0,0.0,0.0,0.0,2.851,2.851,0.0,0.0,0.0,0.0,0.0,0.0,0.0,0.0,2.9378,2.9663,2.9417,0.0,2.7799,2.6842,2.6524,2.6412,0.0,2.6453,2.6287,0.0,0.0,0.0,0.0,0.0,0.0,0.0,0.0,0.0,0.0,0.0,0.0,0.0,0.0,0.0,0.0,0.0,0.0,0.0,0.0,2.9079,2.9079,2.9026,2.9026,2.9079,2.8973,2.892,2.892,2.8973,2.8973,2.892,2.8781,2.8781,2.892,2.8504,2.8504,0.0,0.0,0.0,2.8674,2.9248,2.909,2.8489,2.8592,2.8328,2.7959,2.8252,2.8362,2.8491,0.0,0.0,0.0,0.0,0.0,0.0,0.0,0.0,0.0,0.0,2.851,2.851,2.851,2.8258,2.8089,0.0,0.0,0.0,2.7618,2.7618,2.7402,2.6922,2.6898,2.6898,2.6898,2.6898,2.7018,2.7258,2.7258,2.7378,2.7618,2.7618,2.7486,2.727,2.7558,2.7846,2.8162,2.8414,2.851,2.851,2.851,0.0,0.0,0.0,0.0,0.0,2.851,2.851,0.0,2.851,2.851,2.851,0.0,0.0,0.0,0.0,2.9495,2.9792,2.9792,2.917,2.8383,2.7891,2.7435,2.711,2.711,2.711,0.0,0.0,0.0,0.0,0.0,0.0,0.0,0.0,0.0,0.0,0.0,0.0,0.0,0.0,0.0,0.0,0.0,0.0,0.0,0.0,0.0,2.9511,2.9511,2.9396,2.9396,2.9511,2.9396,2.9237,2.9079,2.9237,2.9237,2.9079,2.9089,2.9089,2.9079,2.8814,2.8814,0.0,0.0,2.8877,2.893,2.9396,2.9359,2.898,2.8725,2.8462,2.825,2.8563,2.8678,2.8852,0.0,0.0,0.0,0.0,0.0,0.0,0.0,0.0,0.0,0.0,0.0,0.0,0.0,0.0,0.0,0.0,0.0,2.851,2.851,2.851,2.8114,2.7174,2.7138,2.7138,2.7138,2.7138,2.7354,2.7798,2.7798,2.8065,2.851,2.851,2.827,2.7798,2.7798,2.7798,2.7834,2.8318,2.8558,2.8631,2.8631,0.0,0.0,0.0,0.0,0.0,0.0,0.0,0.0,2.851,2.851,2.855,2.8724,0.0,0.0,0.0,0.0,0.0,2.9792,2.9248,2.8712,2.8712,2.8091,2.7516,2.7516,0.0,0.0,0.0,0.0,0.0,0.0,0.0,0.0,0.0,0.0,0.0,0.0,0.0,0.0,0.0,0.0,0.0,0.0,0.0,0.0,0.0,0.0,2.9994,2.9994,2.9774,2.9774,2.9994,2.9774,2.9501,2.9237,2.9501,2.9511,2.9237,2.9501,2.9448,2.9237,2.9132,2.9132,2.9237,0.0,0.0,2.9185,2.9501,2.9711,2.9776,2.9111,2.8956,2.9077,2.9121,2.913,2.9268,0.0,0.0,0.0,0.0,0.0,0.0,0.0,0.0,0.0,0.0,0.0,0.0,0.0,0.0,0.0,0.0,0.0,0.0,2.851,2.851,2.8438,2.827,2.827,2.827,2.827,2.827,2.8306,2.839,2.839,2.8426,2.851,2.851,2.8474,2.839,2.839,2.839,2.839,2.8474,2.8775,2.9184,2.9184,0.0,0.0,0.0,0.0,0.0,0.0,0.0,0.0,2.851,2.851,2.855,2.8724,0.0,0.0,0.0,0.0,0.0,2.9792,2.9714,2.9585,2.9585,2.9507,2.9378,2.9378,2.9378,0.0,0.0,0.0,0.0,0.0,0.0,0.0,0.0,0.0,0.0,0.0,0.0,0.0,0.0,0.0,0.0,0.0,0.0,0.0,0.0,0.0,2.9994,2.9994,2.9942,2.9942,2.9994,2.9942,2.9889,2.9837,2.9889,2.9889,2.9837,2.9659,2.9669,2.9837,2.9343,2.9406,2.9837,0.0,2.9501,2.9554,2.9827,3.0339,3.0884,3.0152,3.0409,3.1226,3.1187,3.1169,3.1181,0.0,0.0,0.0,0.0,0.0,0.0,0.0,0.0,0.0,0.0,0.0,0.0,0.0,0.0,0.0,0.0,2.851,2.851,2.851,2.851,2.851,2.851,2.851,2.851,2.851,2.851,2.851,2.851,2.851,2.851,2.851,2.851,2.851,2.8522,2.8811,2.8931,2.8955,2.9244,2.9508,2.9725,0.0,0.0,0.0,0.0,0.0,0.0,0.0,0.0,0.0,0.0,2.8578,2.8697,2.8882,0.0,0.0,0.0,0.0,0.0,2.9792,2.9792,2.9792,2.9792,2.9792,2.9792,2.9792,2.9792,0.0,0.0,0.0,0.0,0.0,0.0,0.0,0.0,0.0,0.0,0.0,0.0,0.0,0.0,0.0,0.0,0.0,0.0,0.0,0.0,0.0,0.0,2.9994,2.9994,2.9994,2.9994,2.9994,2.9994,2.9994,2.9994,2.9994,2.9994,2.9879,2.9879,2.9994,2.9722,2.9732,2.9994,0.0,2.9827,2.9827,2.9942,3.0536,3.1345,3.0449,3.0749,3.1701,3.1606,3.1945,3.2394,0.0,0.0,0.0,0.0,0.0,0.0,0.0,0.0,0.0,0.0,0.0,0.0,0.0,0.0,0.0,0.0,2.851,2.851,2.851,2.851,2.851,2.851,2.851,2.851,2.851,2.851,2.851,2.851,2.851,2.857,2.8691,2.8691,2.8763,2.8895,2.9304,2.9484,2.9508,2.9917,3.0158,3.0266,0.0,0.0,0.0,0.0,0.0,0.0,0.0,0.0,0.0,0.0,0.0,0.0,0.0,0.0,0.0,2.9702,2.9792,2.9792,2.9792,2.9792,2.9792,2.9792,2.9792,2.9792,2.9792,2.9792,2.979,0.0,0.0,0.0,0.0,0.0,0.0,0.0,0.0,0.0,0.0,0.0,0.0,0.0,0.0,0.0,0.0,0.0,0.0,0.0,0.0,0.0,2.9994,2.9994,2.9994,2.9994,2.9994,2.9994,2.9994,2.9994,2.9994,2.9994,2.9994,2.9994,2.9994,2.9994,2.9994,2.9994,2.9994,2.9994,2.9994,2.9994,3.0795,3.1893,3.0833,3.1072,3.2029,3.197,3.2438,3.3124,0.0,0.0,0.0,0.0,0.0,0.0,0.0,0.0,0.0,0.0,0.0,0.0,0.0,0.0,0.0,0.0,2.851,2.851,2.851,2.851,2.851,2.851,2.851,2.851,2.851,2.851,2.851,2.851,2.851,2.8763,2.9244,2.9244,2.9508,2.9977,3.0013,3.0025,3.0025,3.0074,3.0374,3.0819,3.0819,0.0,0.0,0.0,0.0,0.0,0.0,0.0,0.0,0.0,0.0,0.0,0.0,0.0,2.9457,2.9702,2.9792,2.9792,2.9792,2.9792,2.9792,2.9792,2.9792,2.9792,2.9792,2.9792,0.0,2.925,0.0,0.0,0.0,0.0,0.0,0.0,0.0,0.0,0.0,0.0,0.0,0.0,0.0,0.0,0.0,0.0,0.0,0.0,0.0,0.0,2.9994,2.9994,2.9994,2.9994,2.9994,2.9994,2.9994,2.9994,2.9994,2.9994,2.9994,2.9994,2.9994,2.9994,2.9994,2.9994,2.9994,2.9994,2.9994,2.9994,3.1197,3.2948,3.1823,3.2026,3.2996,3.3007,3.3038,3.3124,0.0,0.0,0.0,0.0,0.0,0.0,0.0,0.0,0.0,0.0,0.0,2.851,2.851,0.0,0.0,0.0,2.851,2.851,2.851,2.851,2.851,2.851,2.851,2.8667,2.8991,2.8679,2.851,2.851,2.8835,2.9268,2.9785,2.9785,2.9893,3.0098,3.0434,3.0621,3.0603,3.0927,3.1223,3.1404,3.1404,3.1404,0.0,0.0,0.0,0.0,0.0,0.0,0.0,0.0,2.8975,2.9013,2.9091,2.9365,2.9663,2.9792,2.9792,2.9792,2.9792,2.9792,2.9792,2.9792,2.9792,0.0,0.0,3.0055,3.0238,3.0053,2.9344,0.0,0.0,0.0,0.0,0.0,0.0,0.0,0.0,0.0,0.0,0.0,0.0,0.0,0.0,0.0,0.0,0.0,0.0,0.0,2.9994,2.9994,2.9994,2.9994,2.9994,2.9994,2.9994,2.9994,2.9994,2.9994,2.9994,2.9994,2.9994,2.9994,2.9994,3.0047,3.0692,3.0981,3.0981,3.0981,3.2235,3.4132,3.3656,3.3342,3.3124,3.3124,3.3124,3.3124,0.0,0.0,0.0,0.0,0.0,0.0,0.0,0.0,2.851,0.0,0.0,0.0,0.0,2.851,0.0,0.0,2.851,2.851,2.851,2.8667,2.8763,2.8763,2.8919,2.9184,2.9544,2.9196,2.9015,2.9015,2.9364,2.9821,3.0338,3.0338,3.0422,3.0603,3.1007,3.1163,3.1199,3.156,3.1705,3.1705,3.1705,3.1705,0.0,0.0,0.0,0.0,0.0,0.0,0.0,0.0,2.9375,2.9312,2.9219,2.9456,2.9792,2.9792,2.9792,2.9792,2.9792,2.9792,2.9792,2.9792,0.0,0.0,3.0018,3.0344,3.0578,3.0459,2.9986,0.0,0.0,0.0,0.0,0.0,0.0,0.0,0.0,0.0,0.0,0.0,0.0,0.0,0.0,0.0,0.0,0.0,0.0,0.0,0.0,2.9994,2.9994,2.9994,2.9994,2.9994,2.9994,2.9994,2.9994,2.9994,2.9994,2.9994,2.9994,2.9994,2.9994,3.0047,3.1135,3.1575,3.1626,3.1982,3.2944,3.4293,3.4591,3.4048,3.3124,3.3124,3.3124,3.3124,0.0,0.0,0.0,0.0,0.0,0.0,0.0,0.0,2.851,2.851,2.851,0.0,0.0,0.0,0.0,0.0,2.8522,2.8522,2.8522,2.9015,2.9304,2.9304,2.9809,3.0086,3.0098,3.0098,3.0098,3.0098,3.0098,3.0362,3.0922,3.0922,3.1199,3.1705,3.1705,3.1705,3.1705,3.1705,3.1705,3.1705,3.1705,3.1705,3.1705,0.0,0.0,0.0,0.0,0.0,0.0,0.0,2.974,2.9843,2.9526,2.9573,2.9804,2.9792,2.9792,2.9792,2.9792,2.9792,2.9792,2.9792,0.0,0.0,3.0495,3.062,3.0478,3.0091,0.0,2.9897,2.8899,0.0,0.0,0.0,0.0,0.0,0.0,0.0,0.0,0.0,0.0,0.0,0.0,0.0,0.0,0.0,0.0,0.0,0.0,2.9994,2.9994,2.9994,2.9994,2.9994,2.9994,2.9994,2.9994,2.9994,2.9994,2.9994,2.9994,2.9994,2.9994,3.0047,3.1135,3.1626,3.1677,3.2789,3.3177,3.3222,3.428,3.4048,3.3124,3.3124,3.3124,3.3124,0.0,0.0,0.0,0.0,0.0,0.0,0.0,0.0,2.851,2.851,2.851,0.0,0.0,0.0,0.0,0.0,0.0,2.9629,2.9629,2.9761,2.9845,2.9845,3.0001,3.0266,3.0627,3.1055,3.1055,3.0639,3.0639,3.0958,3.1476,3.1476,3.156,3.1705,3.1705,3.1705,3.1705,3.1705,3.1705,3.1705,3.1705,3.1705,3.1705,0.0,0.0,0.0,0.0,0.0,0.0,0.0,0.0,0.0,3.0161,3.0186,3.0294,2.9905,2.9792,2.9792,2.9792,2.9792,0.0,2.9792,0.0,0.0,0.0,3.0896,0.0,0.0,3.1133,3.0678,2.9002,0.0,0.0,0.0,0.0,0.0,0.0,0.0,0.0,0.0,0.0,0.0,0.0,0.0,0.0,0.0,0.0,0.0,0.0,2.9994,2.9994,2.9994,2.9994,2.9994,2.9994,2.9994,2.9994,2.9994,3.0733,3.0733,2.9994,2.9994,2.9994,3.0099,3.1942,3.275,3.2889,3.4678,3.453,3.3222,3.428,3.4048,3.3124,3.3124,3.3124,3.3124,0.0,0.0,0.0,0.0,0.0,0.0,2.851,2.8691,2.8823,2.8823,2.9003,2.9136,0.0,0.0,0.0,2.9617,2.9905,3.0086,3.0086,3.029,3.0398,3.0398,3.0603,3.091,3.1223,3.1536,3.1548,3.1235,3.1235,3.1392,3.1705,3.1705,3.1705,3.1705,3.1705,3.1705,3.1705,3.1705,3.1705,3.1705,3.1705,3.1705,3.1705,0.0,0.0,0.0,0.0,0.0,0.0,0.0,0.0,0.0,3.0732,3.076,3.0821,3.0281,3.0118,3.0068,2.9854,2.9792,0.0,2.9792,2.9955,3.0319,3.1072,0.0,0.0,0.0,0.0,0.0,0.0,0.0,0.0,0.0,0.0,0.0,0.0,0.0,0.0,0.0,0.0,0.0,0.0,0.0,0.0,0.0,0.0,0.0,0.0,2.9994,2.9994,2.9994,2.9994,2.9994,2.9994,2.9994,2.9994,2.9994,3.1084,3.1278,3.064,3.1094,3.0795,3.0141,3.2246,3.3697,3.4581,3.587,3.5366,3.3799,3.4429,3.4048,3.3124,3.3124,3.3124,3.3124,0.0,0.0,2.8655,2.8655,0.0,0.0,2.8655,2.9063,2.9364,2.9364,2.9785,3.0086,0.0,0.0,0.0,3.0158,3.0206,3.023,3.023,3.0718,3.0995,3.0995,3.1452,3.1705,3.1705,3.1705,3.1705,3.1705,3.1705,3.1705,3.1705,3.1705,3.1705,3.1705,3.1705,3.1705,3.1705,3.1705,3.1705,3.1705,3.1705,3.1705,3.1705,3.1705,0.0,0.0,0.0,0.0,0.0,0.0,0.0,0.0,3.129,3.131,3.1361,3.0834,3.0683,3.057,3.0018,0.0,0.0,2.9804,3.0244,0.0,0.0,0.0,0.0,0.0,0.0,0.0,0.0,0.0,0.0,0.0,0.0,0.0,0.0,0.0,0.0,0.0,0.0,0.0,0.0,0.0,0.0,0.0,0.0,0.0,0.0,2.9994,2.9994,2.9994,3.0099,3.0141,3.0141,3.0245,3.0297,3.0297,3.1381,3.183,3.1779,3.275,3.2196,3.0547,3.2499,3.4532,3.6405,3.6405,3.5717,3.468,3.468,3.4048,3.3124,3.3124,3.3124,3.3124,0.0,0.0,2.9749,2.9749,0.0,0.0,2.9749,2.9845,2.9917,2.9917,3.0013,3.0086,3.0086,3.0458,0.0,3.0742,3.1127,3.1368,3.1368,3.1476,3.1536,3.1536,3.1645,3.1705,3.1705,3.1705,3.1705,3.1705,3.1705,3.1705,3.1705,3.1705,3.1705,3.1705,3.1705,3.1705,3.1705,3.1705,3.1705,3.1705,3.1705,3.1705,3.1705,3.1705,3.1705,0.0,0.0,0.0,0.0,0.0,0.0,0.0,3.2005,3.1997,3.1926,3.1386,3.1223,3.111,3.0583,3.0432,0.0,0.0,3.052,0.0,0.0,0.0,0.0,0.0,0.0,0.0,0.0,0.0,0.0,0.0,0.0,0.0,0.0,0.0,0.0,0.0,0.0,0.0,0.0,0.0,0.0,0.0,0.0,0.0,2.9994,2.9994,2.9994,2.9994,3.0836,3.1289,3.1289,3.2095,3.2499,3.2499,3.3586,3.3685,3.2839,3.3101,3.34,3.3784,3.4288,3.5223,3.6405,3.6405,3.5717,3.468,3.468,3.4048,3.3124,3.3124,3.3124,3.3124,0.0,0.0,0.0,0.0,0.0,0.0,0.0,0.0,3.0182,3.0434,3.073,3.0886,3.0886,3.1139,0.0,0.0,3.1548,3.1705,3.1705,3.1705,3.1705,3.1705,3.1705,3.1705,3.1705,3.1705,3.1705,3.1705,3.1705,3.1705,3.1705,3.1705,3.1705,3.1705,3.1705,3.1705,3.1705,3.1705,3.1705,3.1705,3.1705,3.1705,3.1705,3.1705,3.1705,3.1705,3.1705,0.0,0.0,0.0,0.0,0.0,0.0,0.0,3.2516,3.1951,3.1788,3.1675,3.1135,0.0,0.0,3.057,0.0,0.0,0.0,0.0,0.0,0.0,0.0,0.0,0.0,0.0,0.0,0.0,0.0,0.0,0.0,0.0,0.0,0.0,0.0,0.0,0.0,0.0,0.0,0.0,0.0,3.13,3.0785,3.0795,3.0795,3.0795,3.133,3.183,3.2336,3.2901,3.3201,3.3201,3.4288,3.4787,3.4678,3.3648,3.4091,3.5523,3.5017,3.5415,3.6405,3.6405,3.5717,3.468,3.468,3.4048,3.3124,3.3124,3.3124,3.3124,0.0,0.0,0.0,0.0,0.0,0.0,0.0,0.0,0.0,3.0995,3.144,3.1705,3.1705,3.1705,3.1705,0.0,0.0,0.0,3.1705,3.1705,3.1705,3.1705,3.1705,3.1705,3.1705,3.1705,3.1705,3.1705,3.1705,3.1705,3.1705,3.1705,3.1705,3.1705,3.1705,3.1705,3.1705,3.1705,3.1705,3.1705,3.1705,3.1705,3.1705,3.1705,3.1705,3.1705,3.1705,3.1705,3.1705,3.195,0.0,0.0,0.0,0.0,3.298,3.2503,3.2365,3.224,3.1687,0.0,3.0871,3.1399,0.0,0.0,0.0,0.0,0.0,0.0,0.0,0.0,0.0,0.0,0.0,0.0,0.0,0.0,0.0,0.0,0.0,0.0,0.0,0.0,0.0,0.0,0.0,0.0,0.0,3.2801,3.1931,3.188,3.188,3.188,3.2083,3.2588,3.3449,3.3648,3.3747,3.3747,3.4629,3.5523,3.6358,3.4581,3.4727,3.6358,3.5463,3.5571,3.6405,3.6405,3.5717,3.468,3.468,3.4048,3.3124,3.3124,3.3124,3.3124,0.0,0.0,0.0,0.0,0.0,0.0,0.0,0.0,0.0,0.0,3.1669,3.1705,3.1705,3.1705,3.1705,3.1705,3.1705,3.1705,3.1705,0.0,0.0,3.1705,3.1705,3.1705,3.1705,3.1705,3.1705,3.1705,3.1705,3.1705,3.1705,3.1705,3.1705,3.1705,3.1705,3.1705,3.1705,3.1705,3.1705,3.1705,3.1705,3.1705,3.1705,3.1705,3.1705,3.1705,3.1705,3.1705,3.1705,3.195,3.2169,0.0,0.0,0.0,3.3056,3.298,3.2968,3.283,0.0,0.0,3.1424,0.0,0.0,0.0,0.0,0.0,0.0,0.0,0.0,0.0,0.0,0.0,0.0,0.0,0.0,0.0,0.0,0.0,0.0,0.0,0.0,0.0,0.0,0.0,0.0,0.0,3.3201,3.3151,3.3001,3.3001,3.3001,3.3001,3.3883,3.4434,3.4581,3.5523,3.5966,3.5966,3.6108,3.6263,3.6405,3.6108,3.6108,3.6405,3.6263,3.6263,3.6405,3.6405,3.5717,3.468,3.468,3.4048,3.3124,3.3124,3.3124,3.3124,0.0,0.0,0.0,0.0,0.0,0.0,0.0,0.0,0.0,0.0,0.0,3.1705,3.1705,3.1705,3.1705,3.1705,3.1705,3.1705,3.1705,3.1705,3.1705,3.1705,3.1705,3.1705,3.1705,3.1705,3.1705,3.1705,3.1705,3.1705,3.1705,3.1705,3.1705,3.1705,3.1705,3.1705,3.1705,3.1705,3.1705,3.1705,3.1705,3.1705,3.1705,3.1705,3.1705,3.1705,3.1705,3.1705,3.1749,3.2125,3.23,3.2487,3.281,0.0,0.0,0.0,3.3124,0.0,3.2365,3.2265,0.0,0.0,0.0,0.0,0.0,0.0,0.0,0.0,0.0,0.0,0.0,0.0,0.0,0.0,0.0,0.0,0.0,0.0,0.0,0.0,0.0,0.0,0.0,0.0,0.0,0.0,3.4981,3.4727,3.4141,3.4091,3.4091,3.4091,3.4532,3.5078,3.5667,3.6156,3.6405,3.6405,3.6405,3.6405,3.6405,3.6405,3.6405,3.6405,3.6405,3.6405,3.6405,3.6405,3.5717,3.468,3.468,3.4048,3.3124,3.3124,3.3124,3.3124,0.0,0.0,0.0,0.0,0.0,0.0,0.0,0.0,0.0,0.0,0.0,3.1705,3.1705,0.0,0.0,0.0,3.1705,3.1705,3.1705,3.1705,3.1705,3.1705,3.1705,3.1705,3.1705,3.1705,3.1705,3.1705,3.1705,3.1705,3.1705,3.1705,3.1705,3.1705,3.1705,3.1705,3.1705,3.1705,3.1705,3.1705,3.1705,3.1705,3.1705,3.1705,3.1705,3.1705,3.1705,3.1705,3.1849,3.2169,3.2388,3.2562,3.2896,3.3038,0.0,0.0,0.0,0.0,0.0,0.0,0.0,0.0,0.0,0.0,0.0,0.0,0.0,0.0,0.0,0.0,0.0,0.0,0.0,0.0,0.0,0.0,0.0,0.0,0.0,0.0,0.0,0.0,0.0,0.0,0.0,0.0,3.6405,3.6061,3.5271,3.5223,3.5223,3.5223,3.5223,3.5571,3.6405,3.6405,3.6405,3.6405,3.6405,3.6405,3.6405,3.6405,3.6405,3.6405,3.6405,3.6405,3.6405,3.6405,3.5793,3.4868,3.4731,3.4135,3.3269,3.3174,3.3124,3.3124,0.0,0.0,0.0,0.0,0.0,0.0,0.0,0.0,0.0,0.0,0.0,3.1705,3.1705,3.1705,3.1705,3.1705,3.1705,3.1705,3.1705,3.1705,3.1705,3.1705,3.1705,0.0,3.1705,3.1705,3.1705,3.1705,3.1705,3.1705,3.1705,3.1705,3.1705,3.1705,3.1705,3.1705,3.1705,3.1705,3.1705,3.1705,3.1705,3.1705,3.1705,3.1705,3.1705,3.1705,3.1705,3.1805,3.1994,3.1994,3.2332,3.2667,3.2711,3.2896,3.3124,0.0,0.0,0.0,0.0,0.0,0.0,0.0,0.0,0.0,0.0,0.0,0.0,0.0,0.0,0.0,0.0,0.0,0.0,0.0,0.0,0.0,0.0,0.0,0.0,0.0,0.0,0.0,0.0,0.0,0.0,0.0,3.6405,3.6358,3.631,3.631,3.631,3.631,3.631,3.6358,3.6405,3.6405,3.6405,3.6405,3.6405,3.6405,3.6405,3.6405,3.6405,3.6405,3.6405,3.6405,3.6405,3.6405,3.6019,3.5408,3.4881,3.4374,3.3796,3.3269,3.3124,3.3124,0.0,0.0,0.0,0.0,0.0,0.0,0.0,0.0,0.0,0.0,0.0,0.0,0.0,3.2503,3.2707,3.2707,3.2707,3.2563,3.2226,3.2202,3.2034,3.1729,3.1705,3.1705,3.1705,3.1705,3.1705,3.1705,3.1705,3.1705,3.1705,3.1705,3.1705,3.1705,3.1705,3.1749,3.1893,3.1893,3.1893,3.1893,3.1893,3.1805,3.1705,3.1705,3.1705,3.1705,0.0,0.0,0.0,3.2213,3.2463,0.0,0.0,0.0,0.0,0.0,0.0,0.0,0.0,0.0,0.0,0.0,0.0,0.0,0.0,0.0,0.0,0.0,0.0,0.0,0.0,0.0,0.0,0.0,0.0,0.0,0.0,0.0,0.0,0.0,0.0,0.0,0.0,0.0,0.0,0.0,0.0,3.6405,3.6405,3.6405,3.6405,3.6405,3.6405,3.6405,3.6405,3.6405,3.6405,3.6405,3.6405,3.6405,3.6405,3.6405,3.6405,3.6405,3.6405,3.6405,3.6405,3.6405,3.6031,3.5483,3.5282,3.47,3.3872,3.3671,3.3382,3.3124,0.0,0.0,0.0,3.1994,0.0,3.2259,3.2259,3.2259,3.2259,3.2259,0.0,0.0,0.0,0.0,3.3284,3.3284,3.3284,3.3068,3.2539,3.2503,3.225,3.1729,3.1705,3.1705,3.1705,3.1705,3.1705,3.1705,3.1705,3.1705,3.1705,3.1705,3.1761,3.1805,3.1805,3.1893,3.1994,3.2081,3.2125,3.2125,3.2038,3.1981,3.1937,3.1849,3.1849,0.0,0.0,0.0,0.0,0.0,0.0,0.0,0.0,0.0,0.0,0.0,0.0,0.0,3.3124,0.0,0.0,0.0,0.0,0.0,0.0,0.0,0.0,0.0,0.0,0.0,0.0,0.0,0.0,0.0,0.0,0.0,0.0,0.0,0.0,0.0,0.0,0.0,0.0,0.0,0.0,0.0,0.0,0.0,3.5805,3.5994,3.6169,3.6405,3.6405,3.6405,3.6405,3.6405,3.6405,3.6405,3.6405,3.6405,3.6405,3.6405,3.6405,3.6405,3.6405,3.6405,3.6405,3.6405,3.6144,3.5805,3.5571,3.5056,3.4412,3.4035,3.3671,3.3319,3.1753,3.2154,3.2527,3.2527,3.2947,3.3284,3.3284,3.3284,3.3284,3.3284,0.0,0.0,0.0,0.0,0.0,3.3332,3.332,3.308,3.2563,3.2515,3.225,3.1729,3.1705,3.1705,3.1705,3.1705,3.1705,3.1705,3.1705,3.1705,3.1705,3.1717,3.1805,3.1994,3.1994,3.2038,3.2038,3.23,3.2388,3.24,3.2125,3.2169,3.2344,3.2125,0.0,0.0,3.2125,3.2169,0.0,3.2388,0.0,0.0,0.0,0.0,0.0,0.0,0.0,0.0,0.0,0.0,0.0,0.0,0.0,0.0,0.0,0.0,0.0,0.0,0.0,0.0,0.0,0.0,0.0,0.0,0.0,0.0,0.0,0.0,0.0,0.0,0.0,0.0,0.0,0.0,0.0,0.0,3.468,3.468,3.468,3.5182,3.5768,3.6367,3.638,3.6392,3.6405,3.6405,3.6405,3.6405,3.6405,3.6405,3.6405,3.6405,3.6405,3.6405,3.6405,3.6405,3.6405,3.6405,3.6405,3.6355,3.578,3.552,3.537,3.4349,3.3935,3.3847,3.2839,3.2959,3.3068,3.3068,3.3188,3.3284,3.3284,3.3284,3.3284,0.0,0.0,0.0,3.3837,3.4126,3.4402,3.4402,3.4054,3.3621,3.3104,3.2719,3.225,3.1729,3.1705,3.1705,3.1705,3.1705,3.1705,3.1705,3.1705,3.1705,3.1705,3.1849,3.195,3.1994,3.2332,3.2506,3.2506,3.2593,3.2636,3.2593,3.255,3.2463,3.24,0.0,0.0,0.0,0.0,3.2431,3.2636,0.0,3.2766,3.2982,0.0,0.0,0.0,0.0,0.0,0.0,3.3124,0.0,0.0,0.0,0.0,0.0,3.3124,3.3124,0.0,0.0,0.0,0.0,0.0,0.0,0.0,0.0,0.0,0.0,0.0,0.0,0.0,0.0,0.0,0.0,0.0,0.0,0.0,0.0,3.468,3.468,3.468,3.4818,3.5157,3.5708,3.5768,3.5968,3.6405,3.6405,3.6405,3.6405,3.6405,3.6405,3.6405,3.6405,3.6405,3.6405,3.6405,3.6405,3.6405,3.6405,3.6405,3.6392,3.6194,3.5893,3.5458,3.5157,3.4793,3.4474,3.3284,3.3464,3.3609,3.3609,3.3789,3.3933,3.3933,3.3933,3.3933,0.0,0.0,0.0,3.4318,3.4595,3.4691,3.4474,3.4174,3.3694,3.3008,3.2671,3.225,3.1729,3.1705,3.1705,3.1705,3.1705,3.1705,3.1705,3.1705,3.1749,3.1849,3.195,3.2113,3.2288,3.2581,3.2754,3.2865,3.309,3.3065,3.2853,3.2766,3.268,0.0,3.2562,3.2605,0.0,0.0,0.0,3.2711,3.2711,3.2896,0.0,0.0,0.0,0.0,0.0,0.0,0.0,0.0,0.0,0.0,0.0,0.0,0.0,3.3124,3.3124,3.3124,0.0,0.0,0.0,0.0,0.0,0.0,0.0,0.0,0.0,0.0,0.0,0.0,0.0,0.0,0.0,0.0,3.3847,3.4035,3.4035,3.4035,3.4135,3.4361,3.4374,3.4625,3.5144,3.537,3.5658,3.6019,3.6292,3.6405,3.6405,3.6405,3.6405,3.6405,3.6405,3.6405,3.6405,3.6405,3.6405,3.6405,3.6405,3.6405,3.6405,3.6405,3.6169,3.5855,3.5583,3.5295,3.4994,0.0,3.3813,3.4078,3.4078,3.4462,3.4775,3.4775,3.4775,3.4775,0.0,3.4775,3.4775,3.4775,3.4775,3.457,3.4042,3.3934,3.3537,3.2563,3.2442,3.219,3.1729,3.1705,3.1705,3.1705,3.1705,3.1705,3.1705,3.1705,3.1805,3.1994,3.2025,3.2288,3.2711,3.2773,3.2983,3.3206,3.3759,3.3671,3.3169,3.294,3.2983,0.0,0.0,3.2983,3.3169,3.2972,3.2941,3.2885,3.2866,3.2946,0.0,0.0,0.0,0.0,0.0,3.3124,0.0,0.0,0.0,0.0,0.0,0.0,0.0,3.3124,3.3124,3.3124,0.0,0.0,0.0,0.0,0.0,0.0,0.0,0.0,0.0,0.0,0.0,0.0,0.0,0.0,0.0,3.3124,3.3124,3.3124,3.3124,3.3124,3.3294,3.3784,3.3809,3.406,3.4568,3.5056,3.537,3.5495,3.6031,3.6342,3.6405,3.6405,3.6405,3.6405,3.6405,3.6405,3.6405,3.6405,3.6405,3.6405,3.6405,3.6405,3.6405,3.6405,3.6405,3.6355,3.5818,3.5596,3.552,3.4535,3.4558,3.4619,3.4619,3.4715,3.4775,3.4775,3.4775,3.4775,3.4775,3.4775,3.4775,3.4775,3.4775,3.457,3.4042,3.3669,3.3176,3.2539,3.2082,3.1825,3.1717,3.1705,3.1705,3.1705,3.1705,3.1705,3.1705,3.1849,3.195,3.1994,3.2376,3.2593,3.2736,3.3402,3.369,3.3771,3.4324,3.4248,3.3746,3.369,3.369,3.3746,3.369,3.369,3.3796,3.4147,3.431,3.4247,3.3796,3.3401,3.3124,0.0,0.0,0.0,3.3124,0.0,0.0,0.0,0.0,0.0,0.0,0.0,0.0,3.3124,3.3124,3.3124,0.0,0.0,0.0,0.0,0.0,0.0,0.0,0.0,0.0,0.0,0.0,0.0,0.0,0.0,0.0,3.3124,3.3124,3.3124,3.3124,3.3124,3.3174,3.3232,3.3244,3.3483,3.4035,3.4161,3.465,3.5495,3.5608,3.5931,3.6405,3.6405,3.6405,3.6405,3.6405,3.6405,3.6405,3.6405,3.6405,3.6405,3.6405,3.6405,3.6405,3.6405,3.6405,3.6405,3.6292,3.6194,3.6194,3.4775,3.4775,3.4775,3.4775,3.4775,3.4775,3.4775,3.4775,3.4775,3.4775,3.4775,3.4775,3.4775,3.4546,3.4174,3.3705,3.32,3.2659,3.2118,3.1862,3.1705,3.1705,3.1705,3.1705,3.1705,3.1705,3.1705,3.1705,3.1893,3.2081,3.2213,3.255,3.2766,3.2921,3.3615,3.3897,3.396,3.4776,3.4919,3.4655,3.4424,0.0,3.3935,3.4211,3.4311,3.4349,3.4625,3.468,3.4675,3.4399,3.4123,0.0,0.0,3.3709,3.3483,0.0,3.3294,3.3124,0.0,0.0,0.0,3.3124,0.0,0.0,0.0,3.3124,3.3124,0.0,0.0,0.0,0.0,0.0,0.0,0.0,0.0,0.0,0.0,0.0,0.0,0.0,0.0,0.0,3.3124,3.3124,3.3124,3.3124,3.3124,3.3124,3.3124,3.3124,3.3206,3.3483,3.3759,3.4299,3.5082,3.5357,3.5818,3.6405,3.6405,3.6405,3.6405,3.6405,3.6405,3.6405,3.6405,3.6405,3.6405,3.6405,3.6405,3.6405,3.6405,3.6405,3.6405,3.6405,3.6405,3.6405,3.4775,3.4775,3.4775,3.4775,3.4775,3.4775,3.4775,3.4775,3.4775,3.4775,3.4775,3.4775,3.4775,3.4402,3.3934,3.3477,3.3044,3.2563,3.2054,3.2018,3.1982,3.1874,3.1862,3.1825,3.1705,3.1705,3.1705,3.1761,3.2091,3.236,3.2635,3.294,3.3208,3.342,3.3972,3.4223,3.4274,3.5278,0.0,3.547,0.0,3.4713,3.4261,3.4668,3.4831,3.4856,3.5002,3.4964,3.4831,3.4831,3.4768,3.468,3.468,3.4412,0.0,0.0,0.0,0.0,0.0,0.0,0.0,0.0,0.0,3.3124,0.0,0.0,0.0,0.0,0.0,0.0,0.0,0.0,0.0,0.0,0.0,0.0,0.0,0.0,0.0,0.0,0.0,0.0,0.0,3.3124,3.3124,3.3124,3.3124,3.3124,3.3124,3.3124,3.3124,3.3124,3.3508,3.406,3.4668,3.5119,3.5717,3.6405,3.6405,3.6405,3.6405,3.6405,3.6405,3.6405,3.6405,3.6405,3.6405,3.6405,3.6405,3.6405,3.6405,3.6405,3.6405,3.6405,3.6405,3.6405,3.4775,3.4775,3.4775,3.4775,3.4775,3.4775,3.4775,3.4775,3.4775,3.4775,3.4775,3.4775,3.4775,3.4727,3.4486,3.3946,3.385,3.3657,3.314,3.3104,3.2899,3.243,3.2406,3.2178,3.1717,3.1705,3.1805,3.1994,3.269,3.319,3.3412,3.412,3.4492,3.4562,3.5069,3.5307,3.5357,0.0,3.5994,0.0,3.6006,3.5843,0.0,3.5382,3.5408,3.547,3.5994,3.5868,3.5408,0.0,3.5082,3.468,0.0,3.4675,3.4625,3.4625,0.0,0.0,0.0,0.0,0.0,0.0,3.3124,0.0,0.0,0.0,3.3124,3.3124,0.0,0.0,0.0,0.0,0.0,0.0,0.0,0.0,0.0,0.0,0.0,0.0,0.0,0.0,0.0,3.3124,3.3124,3.3124,3.3124,3.3124,3.3124,3.3124,3.3124,3.3124,3.3174,3.3671,3.4668,3.4743,3.5328,3.6405,3.6405,3.6405,3.6405,3.6405,3.6405,3.6405,3.6405,3.6405,3.6405,3.6405,3.6405,3.6405,3.6405,3.6405,3.6405,3.6405,3.6405,3.6405,3.4775,3.4775,3.4775,3.4775,3.4775,3.4775,3.4775,3.4775,3.4775,3.4775,3.4775,3.4775,3.4775,3.4498,0.0,0.0,0.0,3.3513,0.0,0.0,3.3188,3.2959,3.3085,3.301,3.2826,3.2937,3.306,3.3163,3.3646,3.3937,3.4028,3.4477,3.468,3.4705,3.5257,0.0,3.5533,0.0,3.6267,0.0,0.0,0.0,0.0,3.6019,3.6019,3.6056,3.6329,3.6267,3.6019,0.0,3.5868,0.0,0.0,0.0,0.0,0.0,0.0,0.0,0.0,0.0,0.0,0.0,0.0,0.0,3.3156,0.0,3.3124,0.0,0.0,0.0,0.0,0.0,0.0,0.0,3.2918,0.0,0.0,0.0,0.0,0.0,0.0,0.0,0.0,0.0,0.0,0.0,3.3124,3.3124,3.3124,3.3124,3.3124,3.3124,3.3124,3.3608,3.4668,3.468,3.5278,3.6405,3.6405,3.6405,3.6405,3.6405,3.6405,3.6405,3.6405,3.6405,3.6405,3.6405,3.6405,3.6405,3.6405,3.6405,3.6405,3.6405,3.6405,3.6405,3.4775,3.4775,3.4775,3.4775,3.4775,3.4775,3.4775,3.4775,3.4775,3.4775,3.4775,3.4775,3.4775,3.4438,0.0,0.0,3.3921,3.3752,0.0,0.0,3.3692,3.3594,3.3663,0.0,3.3584,3.379,3.3973,3.4111,3.4466,3.4645,3.4691,3.5011,3.5177,3.519,3.5592,3.5768,3.5805,0.0,3.6405,3.6405,3.6405,3.6405,3.6405,3.6405,3.6405,3.6405,3.6405,3.6405,3.6405,3.6405,3.6405,0.0,3.6405,0.0,0.0,0.0,0.0,0.0,3.4906,0.0,0.0,0.0,0.0,0.0,0.0,0.0,0.0,0.0,0.0,0.0,0.0,0.0,0.0,0.0,0.0,3.3018,0.0,0.0,0.0,0.0,0.0,0.0,0.0,0.0,0.0,0.0,0.0,3.3124,3.3124,3.3124,3.3124,3.3124,3.3124,3.3608,3.4668,3.468,3.5278,3.6405,3.6405,3.6405,3.6405,3.6405,3.6405,3.6405,3.6405,3.6405,3.6405,3.6405,3.6405,3.6405,3.6405,3.6405,3.6405,3.6405,3.6405,3.6405,3.4775,3.4775,3.4775,3.4775,3.4775,3.4775,3.4775,3.4775,3.4775,3.4775,3.4775,0.0,0.0,0.0,0.0,0.0,0.0,3.4872,3.5126,0.0,3.4655,0.0,0.0,3.3871,0.0,3.363,3.3873,3.4388,3.4931,3.5273,3.5483,3.6056,3.6355,3.6355,3.6367,3.638,3.638,3.6405,3.6405,3.6405,3.6405,3.6405,3.6405,0.0,3.6405,3.6405,3.6405,0.0,0.0,3.6405,3.6405,0.0,0.0,0.0,0.0,0.0,0.0,0.0,0.0,0.0,0.0,3.47,0.0,0.0,0.0,0.0,3.3721,0.0,0.0,0.0,0.0,0.0,3.2893,3.2328,3.2717,0.0,0.0,0.0,0.0,0.0,0.0,0.0,0.0,0.0,0.0,0.0,0.0,0.0,3.3124,3.3124,3.3124,3.3124,3.3124,3.3608,3.4668,3.468,3.5278,3.6405,3.6405,3.6405,3.6405,3.6405,3.6405,3.6405,3.6405,3.6405,3.6405,3.6405,3.6405,3.6405,3.6405,3.6405,3.6405,3.6405,3.6405,3.6405,3.4775,3.4775,3.4775,3.4775,3.4775,3.4884,3.503,3.492,3.4872,0.0,3.4932,0.0,0.0,3.4775,3.4775,0.0,0.0,3.492,3.5175,3.4932,0.0,0.0,0.0,3.5109,0.0,0.0,3.5525,3.5725,3.59,3.6034,3.6094,3.6317,3.6405,3.6405,3.6405,3.6405,0.0,0.0,0.0,0.0,0.0,3.6405,3.6405,0.0,3.6405,3.6405,3.6405,3.6405,0.0,3.6405,3.6405,3.6405,3.6405,3.6405,3.6405,3.6405,3.6279,0.0,0.0,0.0,3.5717,3.5307,0.0,0.0,0.0,0.0,0.0,0.0,0.0,0.0,0.0,0.0,3.3018,3.2817,3.2955,3.3048,0.0,0.0,0.0,0.0,0.0,0.0,0.0,0.0,0.0,0.0,3.3124,0.0,3.3124,3.3124,3.3124,3.3124,3.3124,3.3608,3.4668,3.468,3.5278,3.6405,3.6405,3.6405,3.6405,3.6405,3.6405,3.6405,3.6405,3.6405,3.6405,3.6405,3.6405,3.6405,3.6405,3.6405,3.6405,3.6405,3.6405,3.6405,3.4775,3.4775,3.4775,3.4775,3.4775,3.4884,3.503,3.4932,0.0,0.0,3.4932,0.0,3.492,0.0,3.4823,0.0,3.4884,3.4969,3.532,3.5078,0.0,3.5716,3.5668,0.0,0.0,0.0,0.0,0.0,3.6405,3.6405,3.6405,3.6405,3.6405,3.6405,3.6405,3.6405,3.6405,3.6405,3.6405,0.0,0.0,3.6405,0.0,0.0,3.6405,3.6405,0.0,3.6405,3.6405,3.6405,3.6405,3.6405,3.6405,3.6405,3.6405,3.6405,3.6405,3.6405,3.6405,3.6405,0.0,3.5931,3.583,0.0,3.5094,0.0,0.0,0.0,0.0,0.0,0.0,0.0,3.3307,3.3106,3.3124,3.3124,0.0,3.3124,0.0,0.0,0.0,0.0,0.0,0.0,0.0,3.3124,3.3124,3.3124,0.0,0.0,3.3124,3.3124,3.3269,3.3809,3.4668,3.4868,3.5466,3.6405,3.6405,3.6405,3.6405,3.6405,3.6405,3.6405,3.6405,3.6405,3.6405,3.6405,3.6405,3.6405,3.6405,3.6405,3.6405,3.6405,3.6405,3.6405,3.4775,3.4823,3.4823,3.4823,3.4835,3.4835,0.0,0.0,3.4823,0.0,3.4823,3.4932,3.5175,3.4981,3.492,3.5223,3.4981,3.5078,3.5572,3.5368,0.0,0.0,3.5764,3.5764,3.6003,0.0,0.0,0.0,0.0,3.6405,3.6405,3.6405,3.6405,3.6405,3.6405,0.0,3.6405,3.6405,3.6405,3.6405,3.6405,3.6405,3.6405,3.6405,3.6405,3.6405,3.6405,3.6405,3.6405,3.6405,3.6405,3.6405,3.6405,3.6405,3.6405,3.6405,3.6405,3.6405,3.6405,3.6405,3.6405,3.6405,3.6405,0.0,0.0,0.0,3.5382,0.0,0.0,0.0,0.0,0.0,0.0,3.3206,3.3136,3.3124,0.0,0.0,0.0,0.0,0.0,0.0,0.0,0.0,3.3124,3.3124,3.3124,3.3124,0.0,0.0,3.3124,3.3124,3.3608,3.4161,3.4668,3.5219,3.5818,3.6405,3.6405,3.6405,3.6405,3.6405,3.6405,3.6405,3.6405,3.6405,3.6405,3.6405,3.6405,3.6405,3.6405,3.6405,3.6405,3.6405,3.6405,3.6405,3.4775,3.4981,3.5175,3.5368,3.5223,3.5223,0.0,0.0,0.0,0.0,3.5524,3.5416,3.5464,3.5416,3.5416,3.5464,3.5416,0.0,0.0,0.0,0.0,3.6275,3.6051,3.6003,3.6275,3.6323,0.0,3.6405,0.0,3.6405,3.6405,3.6405,3.6405,3.6405,3.6405,3.6405,3.6405,3.6405,3.6405,3.6405,3.6405,3.6405,3.6405,0.0,3.6405,3.6405,3.6405,3.6405,3.6405,3.6405,3.6405,3.6405,3.6405,3.6405,3.6405,3.6405,3.6405,3.6405,3.6405,3.6405,3.6405,3.6405,3.6405,3.6367,0.0,0.0,0.0,0.0,0.0,0.0,0.0,0.0,0.0,0.0,3.3345,0.0,0.0,0.0,0.0,3.3124,0.0,0.0,0.0,0.0,3.3124,3.3124,3.3124,3.3124,0.0,0.0,0.0,3.3124,3.3608,3.4161,3.4668,3.5219,3.5818,3.6405,3.6405,3.6405,3.6405,3.6405,3.6405,3.6405,3.6405,3.6405,3.6405,3.6405,3.6405,3.6405,3.6405,3.6405,3.6405,3.6405,3.6405,3.6405,3.4775,3.503,0.0,3.5716,0.0,0.0,3.562,3.562,0.0,3.594,3.5659,0.0,3.6073,3.5707,3.5524,3.5764,3.5668,0.0,3.5968,0.0,0.0,3.6358,3.6275,3.6228,3.6405,3.6405,0.0,3.6405,0.0,3.6405,3.6405,3.6405,3.6405,3.6405,3.6405,3.6405,3.6405,3.6405,3.6405,3.6405,3.6405,3.6405,0.0,3.6405,3.6405,3.6405,3.6405,3.6405,3.6405,3.6405,3.6405,3.6405,3.6405,3.6405,3.6405,3.6405,3.6405,3.6405,3.6405,3.6405,3.6405,3.6405,3.6405,3.6405,3.6405,3.6405,3.6317,0.0,3.5893,3.573,0.0,0.0,0.0,0.0,0.0,0.0,0.0,0.0,0.0,0.0,3.3124,0.0,0.0,3.3124,3.3124,3.3124,3.3124,3.3124,0.0,0.0,0.0,3.3124,3.3847,3.4412,3.468,3.5504,3.6056,3.6405,3.6405,3.6405,3.6405,3.6405,3.6405,3.6405,3.6405,3.6405,3.6405,3.6405,3.6405,3.6405,3.6405,3.6405,3.6405,3.6405,3.6405,3.6405,3.4932,3.5175,0.0,0.0,0.0,0.0,0.0,3.5671,0.0,3.6112,0.0,3.5941,3.6835,3.6136,3.5769,3.6227,0.0,3.6022,3.6274,3.6274,3.632,3.6518,3.6518,3.648,3.6405,3.6405,0.0,0.0,0.0,3.6405,3.6405,3.6405,3.6405,3.6405,3.6405,0.0,0.0,3.6405,3.6405,3.6405,3.6405,3.6405,3.6405,3.6405,3.6405,3.6405,3.6405,3.6405,3.6405,3.6405,3.6405,3.6405,3.6405,3.6405,3.6405,3.6405,3.6405,3.6405,3.6405,3.6405,3.6405,3.6405,3.6405,3.6405,3.6405,3.6405,3.6405,3.6405,3.6405,3.6267,0.0,0.0,0.0,0.0,0.0,0.0,0.0,0.0,0.0,0.0,0.0,0.0,0.0,0.0,3.3124,3.3124,3.3124,0.0,0.0,0.0,0.0,3.3181,3.4186,3.4705,3.4781,3.5855,3.6405,3.6405,3.6405,3.6405,3.6405,3.6405,3.6405,3.6405,3.6405,3.6405,3.6405,3.6405,3.6405,3.6405,3.6405,3.6405,3.6405,3.6405,3.6405,3.6405,3.5764,0.0,0.0,0.0,0.0,3.7295,3.7171,3.7032,3.6928,3.698,3.7292,3.7554,3.7753,3.7629,3.7529,3.7628,3.7628,0.0,0.0,0.0,0.0,3.7061,3.7036,3.6822,3.6417,3.6405,3.6405,0.0,0.0,3.6405,3.6405,3.6405,3.6405,3.6405,0.0,0.0,3.6405,3.6405,3.6405,3.6405,3.6405,3.6405,3.6405,3.6405,3.6405,3.6405,3.6405,3.6405,3.6405,3.6405,3.6405,3.6405,3.6405,3.6405,3.6405,3.6405,3.6405,3.6405,3.6405,3.6405,3.6405,3.6405,3.6405,3.6405,3.6405,3.6405,3.6405,3.6405,3.6405,3.638,3.6279,0.0,0.0,0.0,0.0,0.0,0.0,0.0,0.0,0.0,0.0,3.3124,0.0,0.0,0.0,0.0,0.0,0.0,0.0,0.0,0.0,0.0,3.4387,0.0,0.0,0.0,3.6405,3.6405,3.6405,3.6405,3.6405,3.6405,3.6405,3.6405,3.6405,3.6405,3.6405,3.6405,3.6405,3.6405,3.6405,3.6405,3.6405,3.6405,3.6405,3.6405,0.0,0.0,0.0,0.0,0.0,0.0,0.0,3.773,3.7829,3.7854,3.7817,3.7966,3.8417,3.8079,3.7854,3.8002,3.8002,3.8002,3.8002,3.8002,3.7889,3.7626,3.7613,0.0,3.6845,3.6784,3.6694,3.6405,0.0,3.6405,3.6405,3.6405,3.6405,3.6405,0.0,3.6405,0.0,3.6405,3.6405,3.6405,3.6405,3.6405,3.6405,3.6405,3.6405,3.6405,3.6405,3.6405,3.6405,3.6405,3.6405,3.6405,3.6405,3.6405,3.6405,3.6405,3.6405,3.6405,3.6405,3.6405,3.6405,3.6405,3.6405,3.6405,3.6405,3.6405,3.6405,3.6405,3.6405,3.6405,3.6405,3.5918,0.0,0.0,0.0,0.0,0.0,0.0,0.0,0.0,0.0,0.0,0.0,0.0,0.0,0.0,0.0,3.3124,3.3124,0.0,3.3621,0.0,0.0,0.0,3.5495,0.0,3.6405,3.6405,3.6405,3.6405,3.6405,3.6405,3.6405,3.6405,3.6405,3.6405,3.6405,3.6405,3.6405,3.6405,3.6405,3.6405,3.6405,3.6405,3.6405,3.6405,0.0,3.7742,0.0,0.0,3.7904,3.7991,3.8041,3.8389,3.8613,3.8564,3.8266,3.8329,3.8994,3.8479,3.8104,3.8366,3.8366,3.8366,3.8366,3.8366,3.8316,3.8203,3.8191,3.7927,3.7374,3.7249,3.6973,0.0,0.0,0.0,3.6405,3.6405,3.6405,3.6405,0.0,0.0,0.0,0.0,3.6405,3.6405,3.6405,3.6405,3.6405,3.6405,3.6405,3.6405,3.6405,3.6405,3.6405,3.6405,3.6405,3.6405,3.6405,3.6405,3.6405,3.6405,3.6405,3.6405,3.6405,3.6405,3.6405,3.6405,3.6405,3.6405,3.6405,3.6405,3.6405,3.6405,3.6405,3.6405,3.6405,3.6006,0.0,0.0,0.0,0.0,0.0,0.0,0.0,0.0,0.0,0.0,3.3124,0.0,0.0,0.0,0.0,3.3174,3.3244,3.3658,3.401,0.0,0.0,3.5558,3.5671,0.0,3.6405,3.6405,3.6405,3.6405,3.6405,3.6405,3.6405,3.6405,3.6405,3.6405,3.6405,3.6405,3.6405,3.6405,3.6405,3.6405,3.6405,3.6405,3.6405,3.6405,0.0,0.0,0.0,0.0,0.0,3.9212,3.9482,3.9365,3.9113,3.8881,3.9258,3.9559,3.9609,3.9572,3.9534,3.9534,3.9534,3.9534,3.9534,3.9534,3.9308,3.8856,3.8844,3.8517,3.7939,3.7437,3.7161,0.0,0.0,3.6405,0.0,3.6405,3.6405,0.0,0.0,0.0,0.0,3.6405,3.6405,3.6405,3.6405,3.6405,3.6405,3.6405,3.6405,3.6405,3.6405,3.6405,3.6405,3.6405,3.6405,3.6405,3.6405,3.6405,3.6405,3.6405,3.6405,3.6405,3.6405,3.6405,3.6405,3.6405,3.6405,3.6405,3.6405,3.6405,3.6405,3.6405,3.6405,3.6405,3.6405,3.6367,3.6329,0.0,0.0,0.0,0.0,0.0,0.0,0.0,0.0,0.0,0.0,3.3124,0.0,0.0,3.3124,3.3294,3.3796,3.3872,3.4361,3.5307,3.5445,3.578,3.6329,3.638,3.6405,3.6405,3.6405,3.6405,3.6405,3.6405,3.6405,3.6405,3.6405,3.6405,3.6405,3.6405,3.6405,3.6405,3.6405,3.6405,3.6405,3.6405,3.6405,3.6405,0.0,0.0,0.0,0.0,0.0,0.0,0.0,4.0346,4.0271,4.0322,4.0262,4.0187,4.0187,4.0488,4.0551,4.0224,4.0187,4.0049,3.9722,3.9697,3.9597,3.9371,3.9371,3.9107,3.853,3.8316,3.8027,0.0,0.0,0.0,0.0,3.6908,3.6732,0.0,0.0,3.6405,3.643,3.6757,3.6908,3.6885,3.7211,3.7349,3.7349,3.7349,3.7349,3.7349,3.7349,3.7349,3.7299,3.6973,3.6681,3.6405,3.6405,3.6405,3.6405,3.6405,3.6405,3.6405,3.6405,3.6405,3.6405,3.6405,3.6405,3.6405,3.6405,3.6405,3.6405,3.6405,3.6405,3.6405,3.6405,3.6405,3.6405,3.6405,0.0,0.0,0.0,0.0,0.0,0.0,0.0,0.0,0.0,3.3771,3.3709,3.4035,0.0,3.3319,3.3872,3.4211,3.4705,3.547,0.0,3.6144,3.6405,3.6405,3.6405,3.6405,3.6405,3.6405,3.6405,3.6405,3.6405,3.6405,3.6405,3.6405,3.6405,3.6405,3.6405,3.6405,3.6405,3.6405,3.6405,3.6405,3.6405,3.6405,4.0174,0.0,4.0247,0.0,4.0433,4.0557,4.0944,4.1006,4.1114,4.1288,4.1141,4.094,4.0777,4.105,4.1125,4.0802,4.0764,4.0526,3.9973,3.9936,3.986,3.9697,3.9697,0.0,3.912,3.9007,3.8668,3.8253,3.809,0.0,0.0,0.0,0.0,0.0,3.6895,3.6895,3.692,3.7262,3.7425,3.7462,3.7852,3.8002,3.8002,3.8002,3.8002,3.8002,3.8002,3.8002,3.7952,3.755,3.7161,3.6832,3.6505,3.6405,3.6405,3.6405,3.6405,3.6405,3.6405,3.6405,3.6405,3.6405,3.6405,3.6405,3.6405,3.6405,3.6405,3.6405,3.6405,3.6405,3.6405,3.6405,3.6405,3.6405,0.0,0.0,0.0,0.0,0.0,0.0,3.4781,3.468,3.468,3.4374,3.4299,0.0,0.0,3.3796,3.4349,3.4705,0.0,0.0,0.0,0.0,3.6405,3.6405,3.6405,3.6405,3.6405,3.6405,3.6405,3.6405,3.6405,3.6405,3.6405,3.6405,3.6405,3.6405,3.6405,3.6405,3.6405,3.6405,3.6405,3.6405,3.6405,3.6405,4.1263,4.1263,4.1263,4.1275,4.1275,4.1275,4.1288,4.1288,4.1288,4.1288,4.1806,4.1932,4.1338,4.1288,4.1288,4.1275,4.1275,4.1037,4.0538,4.0513,4.0262,0.0,0.0,3.9697,3.9685,3.9145,3.8919,3.8906,0.0,0.0,3.8002,0.0,3.799,3.799,3.799,3.799,3.799,3.799,3.8002,3.8002,3.8002,3.8002,3.8002,3.8002,3.8002,3.8002,3.8002,3.8002,3.8002,3.8002,3.799,3.7801,3.6757,3.6405,3.6405,3.6405,3.6405,3.6405,3.6405,3.6405,3.6405,3.6405,3.6405,3.6405,3.6405,3.6405,3.6405,3.6405,3.6405,3.6405,3.6405,3.6405,3.6405,3.6405,0.0,0.0,0.0,0.0,0.0,0.0,3.5006,3.468,3.468,3.4668,0.0,0.0,0.0,0.0,0.0,0.0,0.0,3.638,3.6405,0.0,3.6405,3.6405,3.6405,3.6405,3.6405,3.6405,3.6405,3.6405,3.6405,3.6405,3.6405,3.6405,3.6405,3.6405,3.6405,3.6405,3.6405,3.6405,3.6405,3.6405,3.6405,3.6405,4.1288,4.1288,4.1401,4.1831,4.1894,4.202,4.2396,4.2459,4.2459,4.2459,4.261,4.2647,4.2472,4.2459,4.2308,0.0,4.1894,4.1668,0.0,4.1025,4.0827,4.0275,4.0262,4.0074,3.9697,3.9521,3.9433,3.9433,0.0,0.0,0.0,3.8191,3.8002,3.8002,3.8002,3.8002,3.804,3.8429,3.8592,3.863,3.9007,3.9157,3.9157,3.9157,3.9157,3.9157,3.9157,3.9157,3.9094,3.873,3.8592,3.8467,3.7713,3.7224,3.6971,3.6971,3.6707,3.6405,3.6405,3.6405,3.6405,3.6405,3.6405,3.6405,3.6405,3.6405,3.6405,3.6405,3.6405,3.6405,3.6405,3.6405,3.6405,3.6405,3.6405,0.0,0.0,0.0,0.0,0.0,3.5943,3.5843,3.5843,3.5504,0.0,0.0,0.0,0.0,0.0,0.0,0.0,0.0,3.6405,0.0,3.6405,3.6405,3.6405,3.6405,3.6405,3.6405,3.6405,3.6405,3.6405,3.6405,3.6405,3.6405,3.6405,3.6405,3.6405,3.6405,3.6405,3.6405,3.6405,3.6405,3.6405,3.6405,4.1957,4.1957,4.2057,4.2451,4.2527,4.264,4.2924,4.2974,4.2974,4.2974,4.2974,4.2974,4.2974,4.2974,0.0,4.2552,4.2527,4.2233,4.1681,4.1643,4.1404,4.0852,4.0626,4.035,4.0011,3.9798,0.0,3.9697,3.9697,3.9521,3.917,3.8806,3.8642,3.8642,3.8642,3.8642,3.8668,3.9032,3.9182,3.9207,3.9559,3.9697,3.9697,3.9697,3.9697,3.9697,3.9697,3.9697,3.9647,3.9295,3.9182,3.912,3.8755,3.8266,3.7776,3.7563,3.7098,3.6719,3.6719,3.6568,3.6405,3.6405,3.6405,3.6405,3.6405,3.6405,3.6405,3.6405,3.6405,3.6405,3.6405,3.6405,3.6405,3.6405,3.6405,3.6405,3.6405,0.0,0.0,0.0,0.0,0.0,0.0,3.6056,3.5994,0.0,0.0,0.0,0.0,0.0,0.0,3.6405,3.6405,3.6405,3.6405,3.6405,3.6405,3.6405,3.6405,3.6405,3.6405,3.6405,3.6405,3.6405,3.6405,3.6405,3.6405,3.6405,3.6405,3.6405,3.6405,3.6405,3.6405,3.6405,3.6405,3.6405,4.2974,4.2974,4.2974,4.2974,4.2974,4.2974,4.2974,4.2974,4.2974,4.2974,4.2974,4.2974,4.2974,4.2974,4.2974,4.2974,0.0,0.0,4.2301,4.2263,4.1969,4.1363,4.0902,4.0588,4.0513,4.0011,3.9735,3.9697,3.9697,3.9697,3.9697,3.9697,3.9697,3.9697,3.9697,3.9697,3.9697,3.9697,3.9697,3.9697,3.9697,3.9697,3.9697,3.9697,3.9697,3.9697,3.9697,3.9697,3.9697,3.9697,3.9697,3.9697,3.9697,3.9346,3.8818,3.8241,3.7676,3.7249,3.7249,3.6835,3.6468,3.6468,3.643,3.6405,3.6405,3.6405,3.6405,3.6405,3.6405,3.6405,3.6405,3.6405,3.6405,3.6405,3.6405,3.6405,3.6405,0.0,0.0,0.0,0.0,0.0,3.6405,3.6405,3.6405,0.0,0.0,0.0,0.0,0.0,3.6405,3.6405,3.6405,3.6405,3.6405,3.6405,3.6405,3.6405,3.6405,3.6405,3.6405,3.6405,3.6405,3.6405,3.6405,3.6405,3.6405,3.6405,3.6405,3.6405,3.6405,3.6405,3.6405,3.6405,3.6405,3.6405,0.0,0.0,4.2974,4.2974,4.2974,4.2974,4.2974,4.2974,4.2974,4.2974,4.2974,4.2974,4.2974,4.2974,4.2974,4.2974,4.2974,4.2924,4.2841,4.2841,4.2534,4.1982,4.1886,4.1379,4.0538,4.0388,4.0111,3.9697,3.9697,3.9697,3.9697,3.9697,3.9697,3.9697,3.9697,3.9697,3.9697,3.9697,3.9697,3.9697,3.9697,3.9697,3.9697,3.9697,3.9697,3.9697,3.9697,3.9697,3.9697,3.9697,3.9697,3.9697,3.9697,3.9597,3.9383,3.8831,3.8266,3.7814,3.7814,3.7412,3.6985,3.6985,3.6719,3.6405,3.6405,3.6405,3.6405,3.6405,3.6405,3.6405,3.6405,3.6405,3.6405,3.6405,3.6405,3.6405,3.6405,3.6405,0.0,0.0,3.6405,3.6405,3.6405,3.6405,3.6405,0.0,0.0,0.0,3.6405,3.6405,3.6405,3.6405,3.6405,3.6405,3.6405,3.6405,3.6405,3.6405,3.6405,3.6405,3.6405,3.6405,3.6405,3.6405,3.6405,3.6405,3.6405,3.6405,3.6405,3.6405,3.6405,3.6405,3.6405,3.6405,3.6405,3.6405,4.2974,4.2974,4.2974,4.2974,4.2974,4.2974,4.2974,4.2974,4.2974,4.2974,4.2974,4.2974,4.2974,4.2974,4.2974,4.2974,4.2974,4.2974,4.2974,4.2974,4.2848,4.2602,4.2338,4.1936,4.1279,4.1028,4.0626,4.0074,3.9823,3.9697,3.9697,3.9697,3.9697,3.9697,3.9697,3.9697,3.9697,3.9697,3.9697,3.9697,3.9697,3.9697,3.9697,3.9697,3.9697,3.9697,3.9697,3.9697,3.9697,3.9697,3.9697,3.9697,3.9697,3.9697,3.9634,3.9333,3.8843,3.8404,3.8404,3.799,3.75,3.7249,3.682,3.6405,3.6405,3.6405,3.6405,3.6405,3.6405,3.6405,3.6405,3.6405,3.6405,3.6405,3.6405,3.6405,3.6405,3.6405,3.6405,3.6405,3.6405,3.6405,3.6405,3.6405,3.6405,3.6405,3.6405,0.0,3.6405,3.6405,3.6405,3.6405,3.6405,3.6405,3.6405,3.6405,3.6405,3.6405,3.6405,3.6405,3.6405,3.6405,3.6405,3.6405,3.6405,3.6405,3.6405,3.6405,3.6405,3.6405,3.6405,3.6405,3.6405,3.6405,3.6405,3.6405,4.2974,4.2974,4.2974,4.2974,4.2974,4.2974,4.2974,4.2974,4.2974,4.2974,4.2974,4.2974,4.2974,4.2974,4.2974,4.2974,4.2974,4.2974,4.2974,4.2974,4.2974,4.2974,4.2577,4.2288,4.2213,4.1618,4.1062,4.0639,4.0174,3.9936,3.9936,3.986,3.9823,3.9823,3.9735,3.9697,3.9697,3.9697,3.9697,3.9697,3.9697,3.9697,3.9697,3.9697,3.9697,3.9697,3.9697,3.9697,3.9697,3.9697,3.9697,3.9697,3.9697,3.9697,3.9697,3.9697,3.9371,3.9045,3.9045,3.858,3.8002,3.745,3.6945,3.6531,3.6531,3.6468,3.6405,3.6405,3.6405,3.6405,3.6405,3.6405,3.6405,3.6405,3.6405,3.6405,3.6405,0.0,3.6405,3.6405,3.6405,3.6405,3.6405,3.6405,3.6405,3.6405,3.6405,3.6405,3.6405,3.6405,3.6405,3.6405,3.6405,3.6405,3.6405,3.6405,3.6405,3.6405,3.6405,3.6405,3.6405,3.6405,3.6405,3.6405,3.6405,3.6405,3.6405,3.6405,3.6405,3.6405,3.6452,3.6452,3.6405,3.6452,3.6452,3.6405,4.2974,4.2974,4.2974,4.2974,4.2974,4.2974,4.2974,4.2974,4.2974,4.2974,4.2974,4.2974,4.2974,4.2974,4.2974,4.2974,4.2974,4.2974,4.2974,4.2974,4.2974,4.2974,4.2898,4.269,4.2213,4.1618,4.125,4.1163,4.1075,4.1025,4.1025,4.0614,4.0388,4.0375,3.9898,3.9697,3.9697,3.9697,3.9697,3.9697,3.9697,3.9697,3.9697,3.9697,3.9697,3.9697,3.9697,3.9697,3.9697,3.9697,3.9697,3.9697,3.9697,3.9697,3.9697,3.9697,3.9634,3.9572,3.9572,3.917,3.8592,3.8015,3.7462,3.7109,3.7109,3.6744,3.6405,3.6405,3.6405,3.6405,3.6405,3.6405,3.6405,3.6405,3.6405,3.6405,3.6405,0.0,3.6405,3.6405,3.6405,3.6405,3.6405,3.6405,3.6405,3.6405,3.6405,3.6405,3.6405,3.6405,3.6405,3.6405,3.6405,3.6405,3.6405,3.6405,3.6405,3.6405,3.6405,3.6405,3.6405,3.6405,3.6405,3.6405,3.6405,3.6405,3.6405,3.6405,3.6405,3.6405,3.6581,3.6534,3.6405,3.6581,3.6534,3.6405,4.3865,4.3865,4.3865,4.3865,4.3865,4.3865,4.3865,4.3614,4.3426,4.3426,4.3162,4.2974,4.2974,4.2974,4.2974,4.2974,4.2974,4.2974,4.2974,4.2974,4.2974,4.2974,4.2974,4.2861,4.2665,4.2057,4.1769,4.1769,4.148,4.1288,4.1275,4.1025,4.0912,4.0899,4.0701,4.0576,4.0576,4.0576,4.0576,4.0576,4.0576,4.0576,4.0576,4.0576,4.0388,4.0136,4.0136,3.9948,3.9697,3.9697,3.9697,3.9697,3.9697,3.9697,3.9697,3.9697,3.9697,3.9697,3.9697,3.9295,3.8806,3.8542,3.804,3.7626,3.7626,3.7425,3.7161,3.6908,3.6857,3.6757,3.6468,3.6405,3.6405,3.6405,3.6405,0.0,3.6405,3.6405,3.6405,3.6405,3.6405,3.6405,3.6405,3.6405,3.6405,3.6405,3.6405,3.6405,3.6405,3.6405,3.6405,3.6405,3.6405,3.6405,3.6405,3.6405,3.6405,3.6405,3.6405,3.6405,3.6405,3.6499,3.6499,3.6405,3.6687,3.6687,3.6581,3.6734,3.6781,3.6781,3.6862,3.6875,3.6781,3.6862,3.6781,3.6534,4.4618,4.4618,4.4618,4.4618,4.4618,4.4618,4.4618,4.4267,4.3991,4.3991,4.3514,4.3175,4.3175,4.3049,4.2974,4.2974,4.2974,4.2974,4.2974,4.2974,4.2974,4.2974,4.2974,4.2974,4.2974,4.2627,4.2401,4.2401,4.1932,4.1718,4.1664,4.1593,4.153,4.1517,4.1338,4.1288,4.1288,4.1288,4.1288,4.1288,4.1288,4.1288,4.1288,4.1288,4.1025,4.0714,4.0714,4.0438,4.0074,4.0074,3.9986,3.9885,3.9885,3.9798,3.9697,3.9697,3.9697,3.9697,3.9697,3.9383,3.9108,3.9108,3.863,3.8203,3.8203,3.8103,3.7889,3.7462,3.7374,3.7211,3.6707,3.6606,3.6556,3.643,0.0,3.6405,3.6405,3.6405,3.6405,3.6405,3.6405,3.6405,3.6405,3.6405,3.6405,3.6405,3.6405,3.6405,3.6405,3.6452,3.6499,3.6546,3.6452,3.6405,3.6405,3.6405,3.6405,3.6405,3.6452,3.6452,3.6499,3.6675,3.6722,3.6593,3.6922,3.6968,3.6815,3.7015,3.7108,3.7108,3.7108,3.7062,3.7015,3.7015,3.6875,3.6628,4.4618,4.4618,4.4618,4.4618,4.4618,4.4618,4.4618,4.4593,4.4568,4.4568,4.4079,4.374,4.374,4.3288,4.2974,4.2974,4.2974,4.2974,4.2974,4.2974,4.2974,4.2974,4.2974,4.2974,4.2974,4.2936,4.2924,4.2924,4.2873,4.2861,4.2848,4.2389,4.215,4.2125,4.1568,4.1288,4.1288,4.1288,4.1288,4.1288,4.1288,4.1288,4.1288,4.1288,4.1263,4.1225,4.1225,4.12,4.1163,4.1163,4.0824,4.0463,4.0463,4.0111,3.9697,3.9697,3.9697,3.9697,3.9697,3.9659,3.9634,3.9634,3.922,3.8806,3.8806,3.8391,3.8002,3.7952,3.7952,3.7776,3.7224,3.7123,3.7008,3.6493,0.0,0.0,3.6405,3.6405,3.6405,3.6405,3.6405,3.6405,3.6405,3.6405,3.6405,3.6405,3.6405,3.6405,3.6405,3.6581,3.6769,3.7062,3.664,3.6405,3.6405,3.6405,3.6405,3.6405,3.6581,3.6675,3.6675,3.6956,3.7062,3.7062,3.7062,3.7108,3.7062,3.7108,3.7108,3.7108,3.7108,3.6956,3.6722,3.6722,3.6581,3.6405,4.5673,4.5673,4.5673,4.5673,4.5673,4.5673,4.5673,4.5384,4.5158,4.5158,4.4669,4.4179,4.384,4.3614,4.335,4.3011,4.2974,4.2974,4.2974,4.2974,4.2974,4.2974,4.2974,4.2974,4.2974,4.2974,4.2974,4.2974,4.2974,4.2974,4.2974,4.276,4.2728,4.2715,4.2446,4.2359,4.2359,4.2359,4.2359,4.2359,4.2359,4.2359,4.2359,4.2359,4.2145,4.1844,4.1844,4.163,4.1288,4.1288,4.115,4.0974,4.0974,4.0837,4.0651,4.03,3.9961,3.9697,3.9697,3.9697,3.9697,3.9697,3.9534,3.9383,3.9383,3.9207,3.8956,3.8617,3.8542,3.8366,3.7801,3.7701,3.7626,3.7412,0.0,3.692,3.692,3.6619,3.6405,3.6405,3.6405,3.6405,3.6405,3.6405,3.6405,3.6405,3.6405,3.6405,3.6405,3.6581,3.6815,3.7108,3.6922,3.6828,3.6828,3.6828,3.6828,3.6828,3.6922,3.6956,3.6968,3.7214,3.7261,3.7108,3.7459,3.7505,3.7353,3.7505,3.7611,3.7564,3.7413,3.7307,3.7214,3.7214,3.7015,3.6875,4.6313,4.6313,4.6313,4.6313,4.6313,4.6313,4.6313,4.5987,4.5748,4.5748,4.5246,4.4744,4.4367,4.4016,4.3639,4.3263,4.3074,4.2974,4.2974,4.2974,4.2974,4.2974,4.2974,4.2974,4.2974,4.2974,4.2974,4.2974,4.2974,4.2974,4.2974,4.2974,4.2974,4.2974,4.2974,4.2974,4.2974,4.2974,4.2974,4.2974,4.2974,4.2974,4.2974,4.2974,4.2791,4.2464,4.2464,4.217,4.1856,4.1856,4.1743,4.1593,4.1593,4.148,4.1213,4.0837,4.0513,4.0174,3.9998,3.9948,3.991,3.9735,3.9697,3.9697,3.9697,3.9697,3.9584,3.9207,3.9132,3.8956,3.8379,3.8278,3.8216,3.804,3.7688,3.7437,3.7437,3.7111,3.6872,3.6872,3.6872,3.6872,3.6872,3.6872,3.6872,3.6872,3.6872,3.6968,3.7159,3.7289,3.7479,3.7741,3.7835,3.7835,3.7741,3.7334,3.7108,3.7108,3.7214,3.7214,3.7214,3.7505,3.7505,3.7366,3.7749,3.7808,3.7657,3.7808,3.79,3.7854,3.7598,3.7505,3.7505,3.7413,3.7261,3.7108,4.6313,4.6313,4.6313,4.6313,4.6313,4.6313,4.6313,4.6313,4.6313,4.6313,4.5836,4.5497,4.5485,4.448,4.3815,4.3815,4.33,4.2986,4.2974,4.2974,4.2974,4.2974,4.2974,4.2974,4.2974,4.2974,4.2974,4.2974,4.2974,4.2974,4.2974,4.2974,4.2974,4.2974,4.2974,4.2974,4.2974,4.2974,4.2974,4.2974,4.2974,4.2974,4.2974,4.2974,4.2974,4.2974,4.2974,4.2974,4.2974,4.2974,4.2678,4.2213,4.2213,4.1781,4.13,4.13,4.1288,4.1163,4.0676,4.0526,4.0388,3.9835,3.9697,3.9697,3.9697,3.9697,3.9697,3.9697,3.9697,3.9534,3.8981,3.8932,3.8693,3.8115,3.8015,3.8015,3.8015,3.8002,3.8002,3.8002,3.8002,3.8002,3.8002,3.8002,3.8002,3.8002,3.8002,3.8249,3.8787,3.8787,3.8933,3.9188,3.9455,3.9455,3.9201,3.7827,3.7121,3.7121,3.7379,3.7518,3.7531,3.7775,3.7913,3.7913,3.7913,3.7913,3.7913,3.7913,3.7913,3.7867,3.7624,3.7518,3.7472,3.7227,3.7121,3.7121,4.6313,4.6313,4.6313,4.6313,4.6313,4.6313,4.6313,4.6313,4.6313,4.6313,4.6175,4.5912,4.5535,4.5183,4.4819,4.4418,4.3878,4.3388,4.2999,4.2974,4.2974,4.2974,4.2974,4.2974,4.2974,4.2974,4.2974,4.2974,4.2974,4.2974,4.2974,4.2974,4.2974,4.2974,4.2974,4.2974,4.2974,4.2974,4.2974,4.2974,4.2974,4.2974,4.2974,4.2974,4.2974,4.2974,4.2974,4.2974,4.2974,4.2974,4.2873,4.2791,4.2791,4.2359,4.1907,4.1907,4.1643,4.125,4.1087,4.1037,4.0811,3.9923,3.9697,3.9697,3.9697,3.9697,3.9697,3.9697,3.9697,3.9647,3.9484,3.9446,3.9396,3.922,3.8868,3.8617,3.8617,3.8266,3.8002,3.8002,3.8002,3.8002,3.8002,3.8002,3.8002,3.8002,3.8002,3.8249,3.8787,3.8787,3.8994,3.9455,3.9564,3.9564,3.9455,3.9068,3.8839,3.8852,3.8947,3.8947,3.8994,3.9055,3.9102,3.9102,3.9102,3.9102,3.9102,3.9102,3.9102,3.9055,3.8791,3.8683,3.8696,3.8587,3.8587,3.8587,4.6313,4.6313,4.6313,4.6313,4.6313,4.6313,4.6313,4.6313,4.6313,4.6313,4.6313,4.6188,4.5849,4.5623,4.5347,4.4995,4.4455,4.389,4.3338,4.3313,4.3212,4.2986,4.2974,4.2974,4.2974,4.2974,4.2974,4.2974,4.2974,4.2974,4.2974,4.2974,4.2974,4.2974,4.2974,4.2974,4.2974,4.2974,4.2974,4.2974,4.2974,4.2974,4.2974,4.2974,4.2974,4.2974,4.2974,4.2974,4.2974,4.2974,4.2974,4.2974,4.2974,4.2803,4.2539,4.2539,4.2246,4.1944,4.1718,4.1668,4.1442,4.0563,4.0174,4.0023,4.0023,3.9848,3.9697,3.9697,3.9697,3.9697,3.9697,3.9697,3.9697,3.9697,3.9421,3.9195,3.9195,3.8894,3.8668,3.8668,3.8668,3.8718,3.8806,3.8806,3.8868,3.8968,3.8968,3.9168,3.9601,3.9651,3.9762,4.007,4.023,4.023,4.0132,4.023,4.0056,3.9612,3.9612,3.9612,3.9612,3.9612,3.9612,3.9612,3.9612,3.9612,3.9612,3.9612,3.9612,3.9564,3.9407,3.9358,3.9358,3.9358,3.9358,3.9394,4.6313,4.6313,4.6313,4.6313,4.6313,4.6313,4.6313,4.6313,4.6313,4.6313,4.6313,4.6313,4.6313,4.5861,4.556,4.556,4.5033,4.4468,4.3915,4.3878,4.3652,4.315,4.3074,4.3049,4.3049,4.2999,4.2974,4.2974,4.2974,4.2974,4.2974,4.2974,4.2974,4.2974,4.2974,4.2974,4.2974,4.2974,4.2974,4.2974,4.2974,4.2974,4.2974,4.2974,4.2974,4.2974,4.2974,4.2974,4.2974,4.2974,4.2974,4.2974,4.2974,4.2974,4.2974,4.2974,4.2974,4.2873,4.2426,4.2288,4.2162,4.1618,4.1078,4.0651,4.0601,4.0199,3.9835,3.9835,3.9798,3.9772,3.9772,3.9722,3.9697,3.9697,3.9697,3.9697,3.9697,3.9697,3.9697,3.9697,3.9697,3.9788,4.0032,4.007,4.0236,4.0453,4.0504,4.0593,4.0883,4.0883,4.0883,4.0933,4.1161,4.1161,4.0933,4.1161,4.0788,3.9756,3.9756,3.9756,3.9756,3.9756,3.9756,3.9756,3.9756,3.9756,3.9756,3.9756,3.9756,3.9756,3.9756,3.9756,3.9756,3.9756,3.9756,3.9756,4.6313,4.6313,4.6313,4.6313,4.6313,4.6313,4.6313,4.6313,4.6313,4.6313,4.6313,4.6313,4.6313,4.62,4.6137,4.6137,4.5623,4.5058,4.448,4.4443,4.4392,4.4267,4.3853,4.3627,4.3627,4.32,4.2974,4.2974,4.2974,4.2974,4.2974,4.2974,4.2974,4.2974,4.2974,4.2974,4.2974,4.2974,4.2974,4.2974,4.2974,4.2974,4.2974,4.2974,4.2974,4.2974,4.2974,4.2974,4.2974,4.2974,4.2974,4.2974,4.2974,4.2974,4.2974,4.2974,4.2974,4.2949,4.2891,4.2854,4.2828,4.2647,4.2208,4.1681,4.1254,4.1012,4.0924,4.0924,4.0639,4.0337,4.0337,3.9986,3.9697,3.9697,3.9697,3.9697,3.9697,3.9697,3.9697,3.9697,3.9697,3.9749,3.9788,3.9981,4.0236,4.0453,4.0504,4.0593,4.0883,4.0883,4.0997,4.1211,4.1261,4.1261,4.1211,4.1261,4.1193,4.0945,4.0945,4.0945,4.0945,4.0945,4.0945,4.0945,4.0945,4.0945,4.0945,4.0945,4.0945,4.0945,4.0945,4.0945,4.0945,4.0945,4.0945,4.0945,4.6313,4.6313,4.6313,4.6313,4.6313,4.6313,4.6313,4.6313,4.6313,4.6313,4.6313,4.6313,4.6313,4.6313,4.6313,4.6313,4.605,4.5635,4.507,4.5033,4.4907,4.4631,4.4342,4.4192,4.4192,4.3915,4.3501,4.2974,4.2974,4.2974,4.2974,4.2974,4.2974,4.2974,4.2974,4.2974,4.2974,4.2974,4.2974,4.2974,4.2974,4.2974,4.2974,4.2974,4.2974,4.2974,4.2974,4.2974,4.2974,4.2974,4.2974,4.2974,4.2974,4.2974,4.2974,4.2974,4.2974,4.2974,4.2974,4.2974,4.2974,4.2974,4.276,4.2451,4.1856,4.153,4.1288,4.1288,4.1062,4.0862,4.0862,4.0676,4.0388,4.0124,4.0086,3.9998,3.9735,3.9697,3.9697,3.9697,3.9697,3.9736,3.989,4.0134,4.0338,4.0504,4.0593,4.0744,4.0883,4.1047,4.1161,4.1311,4.1311,4.1311,4.1311,4.1311,4.1311,4.1311,4.1311,4.1311,4.1311,4.1311,4.1311,4.1311,4.1311,4.1311,4.1311,4.1311,4.1311,4.1311,4.1311,4.1311,4.1311,4.1311,4.1311,4.1311,4.6313,4.6313,4.6313,4.6313,4.6313,4.6313,4.6313,4.6313,4.6313,4.6313,4.6313,4.6313,4.6313,4.6313,4.6313,4.6313,4.6313,4.6112,4.566,4.5635,4.5409,4.4932,4.4819,4.4769,4.4769,4.4669,4.4179,4.3263,4.3263,4.3212,4.3124,4.3124,4.3074,4.2974,4.2974,4.2974,4.2974,4.2974,4.2974,4.2974,4.2974,4.2974,4.2974,4.2974,4.2974,4.2974,4.2974,4.2974,4.2974,4.2974,4.2974,4.2974,4.2974,4.2974,4.2974,4.2974,4.2974,4.2974,4.2974,4.2974,4.2974,4.2974,4.2974,4.2848,4.2451,4.1944,4.1564,4.1564,4.1543,4.148,4.148,4.1351,4.1137,4.0727,4.0664,4.0501,4.0036,3.9973,3.9936,3.9848,3.9747,3.9788,4.0083,4.0287,4.0453,4.0504,4.0694,4.0833,4.0883,4.1097,4.1261,4.1311,4.1311,4.1311,4.1311,4.1311,4.1311,4.1311,4.1311,4.1311,4.1311,4.1311,4.1311,4.1311,4.1311,4.1311,4.1311,4.1311,4.1311,4.1311,4.1311,4.1311,4.1311,4.1311,4.1311,4.1311,4.6313,4.6313,4.6313,4.6313,4.6313,4.6313,4.6313,4.6313,4.6313,4.6313,4.6313,4.6313,4.6313,4.6313,4.6313,4.6313,4.6313,4.6276,4.62,4.62,4.6163,4.6087,4.5623,4.5372,4.5372,4.4882,4.4556,4.4405,4.4405,4.4154,4.3689,4.3689,4.3438,4.2974,4.2974,4.2974,4.2974,4.2974,4.2974,4.2974,4.2974,4.2974,4.2974,4.2974,4.2974,4.2974,4.2974,4.2974,4.2974,4.2974,4.2974,4.2974,4.2974,4.2974,4.2974,4.2974,4.2974,4.2974,4.2974,4.2974,4.2974,4.2974,4.2974,4.2961,4.2886,4.2811,4.276,4.276,4.2371,4.2099,4.2099,4.1656,4.1263,4.1188,4.1175,4.115,4.1075,4.1062,4.0887,4.0463,3.9986,3.9788,4.0083,4.0134,4.0236,4.0504,4.0555,4.0643,4.0883,4.0933,4.1047,4.1261,4.1311,4.1311,4.1311,4.1311,4.1311,4.1311,4.1311,4.1311,4.1311,4.1311,4.1311,4.1311,4.1311,4.1311,4.1311,4.1311,4.1311,4.1311,4.1311,4.1311,4.1311,4.1311,4.1311,4.1311,4.6313,4.6313,4.6313,4.6313,4.6313,4.6313,4.6313,4.6313,4.6313,4.6313,4.6313,4.6313,4.6313,4.6313,4.6313,4.6313,4.6313,4.6313,4.6313,4.6313,4.6313,4.6313,4.6075,4.5949,4.5949,4.5698,4.5573,4.5573,4.4932,4.4505,4.4267,4.4267,4.4129,4.3903,4.3903,4.3903,4.3903,4.3903,4.3903,4.3903,4.3903,4.3903,4.3903,4.3903,4.3903,4.3903,4.3903,4.3903,4.3903,4.3903,4.3903,4.3903,4.3903,4.3903,4.3903,4.3903,4.3677,4.3438,4.3438,4.3212,4.2974,4.2974,4.2974,4.2974,4.2974,4.2974,4.2974,4.2974,4.2841,4.2678,4.2678,4.2421,4.2158,4.1844,4.1794,4.1693,4.1326,4.1288,4.12,4.1003,4.0764,4.0719,4.1022,4.073,4.0643,4.0965,4.0823,4.0795,4.0883,4.1047,4.1161,4.1311,4.1311,4.1311,4.1311,4.1311,4.1311,4.1311,4.1311,4.1311,4.1311,4.1311,4.1311,4.1311,4.1311,4.1311,4.1311,4.1311,4.1311,4.1311,4.1311,4.1311,4.1311,4.1311,4.1311,4.1311]}]]